[[{"header":{"parameterUnit":"m.s-1","parameterCategory":1,"la1":30.6,"la2":28.766,"lo1":-90.7593,"lo2":-88.6598,"dy":0.0162,"dx":0.0183,"nx":116,"ny":114,"refTime":"2023-03-02T06:00:00:Z","depth":0,"parameterNumber":2,"parameterNumberName":"U-component_of_WINDS"},"data":[0.0,0.0,0.0,0.0,0.0,0.0,0.0,0.0,0.0,0.0,0.0,0.0,0.0,0.0,0.0,0.0,0.0,0.0,0.0,0.0,0.0,0.0,0.0,0.0,0.0,0.0,0.0,0.0,0.0,0.0,0.0,0.0,0.0,0.0,0.0,0.0,0.0,0.0,0.0,0.0,0.0,0.0,0.0,0.0,0.0,0.0,0.0,0.0,0.0,0.0,0.0,0.0,0.0,0.0,0.0,0.0,0.0,0.0,0.0,0.0,0.0,0.0,0.0,0.0,0.0,0.0,0.0,0.0,0.0,0.0,0.0,0.0,0.0,0.0,0.0,0.0,0.0,0.0,0.0,0.0,0.0,0.0,0.0,0.0,0.0,0.0,0.0,0.0,0.0,0.0,0.0,0.0,0.0,0.0,0.0,0.0,0.0,0.0,0.0,0.0,0.0,0.0,0.0,0.0,0.0,0.0,0.0,0.0,0.0,0.0,0.0,0.0,0.0,0.0,0.0,0.0,0.0,0.0,0.0,0.0,0.0,0.0,0.0,0.0,0.0,0.0,0.0,0.0,0.0,0.0,0.0,0.0,0.0,0.0,0.0,0.0,0.0,0.0,0.0,0.0,0.0,0.0,0.0,0.0,0.0,0.0,0.0,0.0,0.0,0.0,0.0,0.0,0.0,0.0,0.0,0.0,0.0,0.0,0.0,0.0,0.0,0.0,0.0,0.0,0.0,0.0,0.0,0.0,0.0,0.0,0.0,0.0,0.0,0.0,0.0,0.0,0.0,0.0,0.0,0.0,0.0,0.0,0.0,0.0,0.0,0.0,0.0,0.0,0.0,0.0,0.0,0.0,0.0,0.0,0.0,0.0,0.0,0.0,0.0,0.0,0.0,0.0,0.0,0.0,0.0,0.0,0.0,0.0,0.0,0.0,0.0,0.0,0.0,0.0,0.0,0.0,0.0,0.0,0.0,0.0,0.0,0.0,0.0,0.0,0.0,0.0,0.0,0.0,0.0,0.0,0.0,0.0,0.0,0.0,0.0,0.0,0.0,0.0,0.0,0.0,0.0,0.0,0.0,0.0,0.0,0.0,0.0,0.0,0.0,0.0,0.0,0.0,0.0,0.0,0.0,0.0,0.0,0.0,0.0,0.0,0.0,0.0,0.0,0.0,0.0,0.0,0.0,0.0,0.0,0.0,0.0,0.0,0.0,0.0,0.0,0.0,0.0,0.0,0.0,0.0,0.0,0.0,0.0,0.0,0.0,0.0,0.0,0.0,0.0,0.0,0.0,0.0,0.0,0.0,0.0,0.0,0.0,0.0,0.0,0.0,0.0,0.0,0.0,0.0,0.0,0.0,0.0,0.0,0.0,0.0,0.0,0.0,0.0,0.0,0.0,0.0,0.0,0.0,0.0,0.0,0.0,0.0,0.0,0.0,0.0,0.0,0.0,0.0,0.0,0.0,0.0,0.0,0.0,0.0,0.0,0.0,0.0,0.0,0.0,0.0,0.0,0.0,0.0,0.0,0.0,0.0,0.0,0.0,0.0,0.0,0.0,0.0,0.0,0.0,0.0,0.0,0.0,0.0,0.0,0.0,0.0,0.0,0.0,0.0,0.0,0.0,0.0,0.0,0.0,0.0,0.0,0.0,0.0,0.0,0.0,0.0,0.0,0.0,0.0,0.0,0.0,0.0,0.0,0.0,0.0,0.0,0.0,0.0,0.0,0.0,0.0,0.0,0.0,0.0,0.0,0.0,0.0,0.0,0.0,0.0,0.0,0.0,0.0,0.0,0.0,0.0,0.0,0.0,0.0,0.0,0.0,0.0,0.0,0.0,0.0,0.0,0.0,0.0,0.0,0.0,0.0,0.0,0.0,0.0,0.0,0.0,0.0,0.0,0.0,0.0,0.0,0.0,0.0,0.0,0.0,0.0,0.0,0.0,0.0,0.0,0.0,0.0,0.0,0.0,0.0,0.0,0.0,0.0,0.0,0.0,0.0,0.0,0.0,0.0,0.0,0.0,0.0,0.0,0.0,0.0,0.0,0.0,0.0,0.0,0.0,0.0,0.0,0.0,0.0,0.0,0.0,0.0,0.0,0.0,0.0,0.0,0.0,0.0,0.0,0.0,0.0,0.0,0.0,0.0,0.0,0.0,0.0,0.0,0.0,0.0,0.0,0.0,0.0,0.0,0.0,0.0,0.0,0.0,0.0,0.0,0.0,0.0,0.0,0.0,0.0,0.0,0.0,0.0,0.0,0.0,0.0,0.0,0.0,0.0,0.0,0.0,0.0,0.0,0.0,0.0,0.0,0.0,0.0,0.0,0.0,0.0,0.0,0.0,0.0,0.0,0.0,0.0,0.0,0.0,0.0,0.0,0.0,0.0,0.0,0.0,0.0,0.0,0.0,0.0,0.0,0.0,0.0,0.0,0.0,0.0,0.0,0.0,0.0,0.0,0.0,0.0,0.0,0.0,0.0,0.0,0.0,0.0,0.0,0.0,0.0,0.0,0.0,0.0,0.0,0.0,0.0,0.0,0.0,0.0,0.0,0.0,0.0,0.0,0.0,0.0,0.0,0.0,0.0,0.0,0.0,0.0,0.0,0.0,0.0,0.0,0.0,0.0,0.0,0.0,0.0,0.0,0.0,0.0,0.0,0.0,0.0,0.0,0.0,0.0,0.0,0.0,0.0,0.0,0.0,0.0,0.0,0.0,0.0,0.0,0.0,0.0,0.0,0.0,0.0,0.0,0.0,0.0,0.0,0.0,0.0,0.0,0.0,0.0,0.0,0.0,0.0,0.0,0.0,0.0,0.0,0.0,0.0,0.0,0.0,0.0,0.0,0.0,0.0,0.0,0.0,0.0,0.0,0.0,0.0,0.0,0.0,0.0,0.0,0.0,0.0,0.0,0.0,0.0,0.0,0.0,0.0,0.0,0.0,0.0,0.0,0.0,0.0,0.0,0.0,0.0,0.0,0.0,0.0,0.0,0.0,0.0,0.0,0.0,0.0,0.0,0.0,0.0,0.0,0.0,0.0,0.0,0.0,0.0,0.0,0.0,0.0,0.0,0.0,0.0,0.0,0.0,0.0,0.0,0.0,0.0,0.0,0.0,0.0,0.0,0.0,0.0,0.0,0.0,0.0,0.0,0.0,0.0,0.0,0.0,0.0,0.0,0.0,0.0,0.0,0.0,0.0,0.0,0.0,0.0,0.0,0.0,0.0,0.0,0.0,0.0,0.0,0.0,0.0,0.0,0.0,0.0,0.0,0.0,0.0,0.0,0.0,0.0,0.0,0.0,0.0,0.0,0.0,0.0,0.0,0.0,0.0,0.0,0.0,0.0,0.0,0.0,0.0,0.0,0.0,0.0,0.0,0.0,0.0,0.0,0.0,0.0,0.0,0.0,0.0,0.0,0.0,0.0,0.0,0.0,0.0,0.0,0.0,0.0,0.0,0.0,0.0,0.0,0.0,0.0,0.0,0.0,0.0,0.0,0.0,0.0,0.0,0.0,0.0,0.0,0.0,0.0,0.0,0.0,0.0,0.0,0.0,0.0,0.0,0.0,0.0,0.0,0.0,0.0,0.0,0.0,0.0,0.0,0.0,0.0,0.0,0.0,0.0,0.0,0.0,0.0,0.0,0.0,0.0,0.0,0.0,0.0,0.0,0.0,0.0,0.0,0.0,0.0,0.0,0.0,0.0,0.0,0.0,0.0,0.0,0.0,0.0,0.0,0.0,0.0,0.0,0.0,0.0,0.0,0.0,0.0,0.0,0.0,0.0,0.0,0.0,0.0,0.0,0.0,0.0,0.0,0.0,0.0,0.0,0.0,0.0,0.0,0.0,0.0,0.0,0.0,0.0,0.0,0.0,0.0,0.0,0.0,0.0,0.0,0.0,0.0,0.0,0.0,0.0,0.0,0.0,0.0,0.0,0.0,0.0,0.0,0.0,0.0,0.0,0.0,0.0,0.0,0.0,0.0,0.0,0.0,0.0,0.0,0.0,0.0,0.0,0.0,0.0,0.0,0.0,0.0,0.0,0.0,0.0,0.0,0.0,0.0,0.0,0.0,0.0,0.0,0.0,0.0,0.0,0.0,0.0,0.0,0.0,0.0,0.0,0.0,0.0,0.0,0.0,0.0,0.0,0.0,0.0,0.0,0.0,0.0,0.0,0.0,0.0,0.0,0.0,0.0,0.0,0.0,0.0,0.0,0.0,0.0,0.0,0.0,0.0,0.0,0.0,0.0,0.0,0.0,0.0,0.0,0.0,0.0,0.0,0.0,0.0,0.0,0.0,0.0,0.0,0.0,0.0,0.0,0.0,0.0,0.0,0.0,0.0,0.0,0.0,0.0,0.0,0.0,0.0,0.0,0.0,0.0,0.0,0.0,0.0,0.0,0.0,0.0,0.0,0.0,0.0,0.0,0.0,0.0,0.0,0.0,0.0,0.0,0.0,0.0,0.0,0.0,0.0,0.0,0.0,0.0,0.0,0.0,0.0,0.0,0.0,0.0,0.0,0.0,0.0,0.0,0.0,0.0,0.0,0.0,0.0,0.0,0.0,0.0,0.0,0.0,0.0,0.0,0.0,0.0,0.0,0.0,0.0,0.0,0.0,0.0,0.0,0.0,0.0,0.0,0.0,0.0,0.0,0.0,0.0,0.0,0.0,0.0,0.0,0.0,0.0,0.0,0.0,0.0,0.0,0.0,0.0,0.0,0.0,0.0,0.0,0.0,0.0,0.0,0.0,0.0,0.0,0.0,0.0,0.0,0.0,0.0,0.0,0.0,0.0,0.0,0.0,0.0,0.0,0.0,0.0,0.0,0.0,0.0,0.0,0.0,0.0,0.0,0.0,0.0,0.0,0.0,0.0,0.0,0.0,0.0,0.0,0.0,0.0,0.0,0.0,0.0,0.0,0.0,0.0,0.0,0.0,0.0,0.0,0.0,0.0,0.0,0.0,0.0,0.0,0.0,0.0,0.0,0.0,0.0,0.0,0.0,0.0,0.0,0.0,0.0,0.0,0.0,0.0,0.0,0.0,0.0,0.0,0.0,0.0,0.0,0.0,0.0,0.0,0.0,0.0,0.0,0.0,0.0,0.0,0.0,0.0,0.0,0.0,0.0,0.0,0.0,0.0,0.0,0.0,0.0,0.0,0.0,0.0,0.0,0.0,0.0,0.0,0.0,0.0,0.0,0.0,0.0,0.0,0.0,0.0,0.0,0.0,0.0,0.0,0.0,0.0,0.0,0.0,0.0,0.0,0.0,0.0,0.0,0.0,0.0,0.0,0.0,0.0,0.0,0.0,0.0,0.0,0.0,0.0,0.0,0.0,0.0,0.0,0.0,0.0,0.0,0.0,0.0,0.0,0.0,0.0,0.0,0.0,0.0,0.0,0.0,0.0,0.0,0.0,0.0,0.0,0.0,0.0,0.0,0.0,0.0,0.0,0.0,0.0,0.0,0.0,0.0,0.0,0.0,0.0,0.0,0.0,0.0,0.0,0.0,0.0,0.0,0.0,0.0,0.0,0.0,0.0,0.0,0.0,0.0,0.0,0.0,0.0,0.0,0.0,0.0,0.0,0.0,0.0,0.0,0.0,0.0,0.0,0.0,0.0,0.0,0.0,0.0,0.0,0.0,0.0,0.0,0.0,0.0,0.0,0.0,0.0,0.0,0.0,0.0,0.0,0.0,0.0,0.0,0.0,0.0,0.0,0.0,0.0,0.0,0.0,0.0,0.0,0.0,0.0,0.0,0.0,0.0,0.0,0.0,0.0,0.0,0.0,0.0,0.0,0.0,0.0,0.0,0.0,0.0,0.0,0.0,0.0,0.0,0.0,0.0,0.0,0.0,0.0,0.0,0.0,0.0,0.0,0.0,0.0,0.0,0.0,0.0,0.0,0.0,0.0,0.0,0.0,0.0,0.0,0.0,0.0,0.0,0.0,0.0,0.0,0.0,0.0,0.0,0.0,0.0,0.0,0.0,0.0,0.0,0.0,0.0,0.0,0.0,0.0,0.0,0.0,0.0,0.0,0.0,0.0,0.0,0.0,0.0,0.0,0.0,0.0,0.0,0.0,0.0,0.0,0.0,0.0,0.0,0.0,0.0,0.0,0.0,-4.9977,-5.0171,0.0,0.0,0.0,0.0,0.0,0.0,0.0,0.0,0.0,0.0,0.0,0.0,0.0,0.0,0.0,0.0,0.0,0.0,0.0,0.0,0.0,0.0,0.0,0.0,0.0,0.0,0.0,0.0,0.0,0.0,0.0,0.0,0.0,0.0,0.0,0.0,0.0,0.0,-4.3906,-4.4766,-4.5625,-4.6094,-4.6308,-4.6308,0.0,0.0,0.0,0.0,0.0,0.0,0.0,0.0,0.0,0.0,0.0,0.0,0.0,0.0,0.0,0.0,0.0,0.0,0.0,0.0,0.0,0.0,0.0,0.0,0.0,0.0,0.0,0.0,0.0,0.0,0.0,0.0,0.0,0.0,0.0,0.0,0.0,0.0,0.0,0.0,0.0,0.0,0.0,0.0,0.0,0.0,0.0,0.0,0.0,0.0,0.0,0.0,0.0,0.0,0.0,0.0,0.0,0.0,0.0,0.0,0.0,0.0,0.0,0.0,0.0,0.0,0.0,0.0,0.0,0.0,-5.0453,-5.0511,0.0,0.0,0.0,0.0,0.0,0.0,0.0,0.0,0.0,0.0,0.0,0.0,0.0,0.0,0.0,0.0,0.0,0.0,0.0,0.0,0.0,0.0,0.0,0.0,-4.1191,-4.1191,-4.1191,-4.1269,0.0,0.0,0.0,0.0,0.0,0.0,0.0,0.0,0.0,-4.3691,-4.457,-4.5449,-4.6308,-4.6308,-4.6308,-4.6308,-4.6308,0.0,0.0,0.0,0.0,0.0,0.0,0.0,0.0,0.0,0.0,0.0,0.0,0.0,0.0,0.0,0.0,0.0,0.0,0.0,0.0,0.0,0.0,0.0,0.0,0.0,0.0,0.0,0.0,0.0,0.0,0.0,0.0,0.0,0.0,0.0,0.0,0.0,0.0,0.0,0.0,0.0,0.0,0.0,0.0,0.0,0.0,0.0,0.0,0.0,0.0,0.0,0.0,0.0,0.0,0.0,0.0,0.0,0.0,0.0,0.0,0.0,0.0,0.0,-4.8836,-4.9204,-4.9919,-4.9919,-5.026,-5.0898,-5.0898,-5.0898,-5.0898,-5.0898,0.0,0.0,0.0,0.0,0.0,0.0,0.0,0.0,0.0,0.0,0.0,0.0,0.0,0.0,0.0,0.0,0.0,0.0,0.0,0.0,0.0,-4.1169,-4.1191,-4.1191,-4.1191,-4.1504,0.0,0.0,0.0,0.0,0.0,0.0,0.0,-4.4883,-4.4453,-4.3691,-4.457,-4.5449,-4.6308,-4.6308,-4.6308,-4.6308,-4.6308,-4.6308,-4.6308,0.0,0.0,0.0,0.0,0.0,0.0,0.0,0.0,0.0,0.0,0.0,0.0,0.0,0.0,0.0,0.0,0.0,0.0,0.0,0.0,0.0,0.0,0.0,0.0,0.0,0.0,0.0,0.0,0.0,0.0,0.0,0.0,0.0,0.0,0.0,0.0,0.0,0.0,0.0,0.0,0.0,-4.8546,-4.9436,0.0,0.0,0.0,0.0,0.0,0.0,0.0,0.0,0.0,0.0,0.0,0.0,0.0,-4.8759,-4.9513,-4.9533,-4.9881,-5.0569,-5.0569,-5.0627,-5.0743,-5.0743,-5.0801,-5.0898,-5.0898,0.0,-5.0898,-5.0898,0.0,0.0,0.0,0.0,0.0,0.0,0.0,0.0,0.0,0.0,0.0,0.0,0.0,0.0,0.0,0.0,0.0,0.0,0.0,0.0,0.0,-4.1168,-4.1191,-4.1191,-4.1601,-4.2012,-4.2383,-4.3672,0.0,0.0,0.0,0.0,-4.5742,-4.5723,-4.5547,-4.5156,-4.5058,-4.5449,-4.6308,-4.6308,-4.6308,-4.6308,-4.6308,-4.6308,-4.6308,-4.6308,0.0,0.0,0.0,0.0,0.0,0.0,0.0,0.0,0.0,0.0,0.0,0.0,0.0,0.0,0.0,0.0,0.0,0.0,0.0,0.0,0.0,0.0,0.0,0.0,0.0,0.0,0.0,0.0,0.0,0.0,0.0,0.0,0.0,0.0,0.0,0.0,0.0,0.0,0.0,-4.8894,-4.9436,-5.0279,-5.0376,-5.0511,0.0,0.0,0.0,0.0,0.0,0.0,0.0,0.0,0.0,-4.9687,-4.9339,-4.9533,-5.0376,-5.0376,-5.055,-5.0898,-5.0898,-5.0898,-5.0898,-5.0898,-5.0898,-5.0898,-5.0898,-5.0898,-5.0898,-5.0898,-5.0898,-5.0898,0.0,0.0,0.0,0.0,-5.0898,-5.0898,0.0,0.0,0.0,0.0,0.0,0.0,0.0,0.0,0.0,0.0,0.0,0.0,-4.107,-4.1122,-4.1171,-4.1191,-4.1933,-4.248,-4.2715,-4.416,0.0,0.0,0.0,-4.6308,-4.6308,-4.6308,-4.6191,-4.5976,-4.5547,-4.5547,-4.5976,-4.6191,-4.6308,-4.6308,-4.6308,-4.6308,-4.6308,-4.6308,-4.6308,-4.6308,0.0,0.0,0.0,0.0,0.0,0.0,0.0,0.0,0.0,0.0,0.0,0.0,0.0,0.0,0.0,0.0,0.0,0.0,0.0,0.0,0.0,0.0,0.0,0.0,0.0,0.0,0.0,0.0,0.0,0.0,0.0,0.0,0.0,0.0,0.0,0.0,0.0,-4.9881,-5.0221,-5.0821,-5.0898,-5.0898,0.0,0.0,0.0,0.0,0.0,0.0,-5.0035,-4.9803,-4.9784,-4.9997,-5.0016,-5.0279,-5.0898,-5.0898,-5.0898,-5.0898,-5.0898,-5.0898,-5.0898,-5.0898,-5.0898,-5.0898,-5.0898,-5.0898,-5.0898,-5.0898,-5.0898,-5.0898,-5.0898,-5.0898,-5.0898,-5.0898,-5.0898,-5.0898,0.0,0.0,0.0,0.0,0.0,0.0,0.0,0.0,0.0,0.0,0.0,-4.0932,-4.101,-4.1068,-4.1121,-4.1191,-4.1933,-4.2754,-4.3574,-4.4492,-4.5371,-4.6191,-4.6289,-4.6308,-4.6308,-4.6308,-4.5898,-4.5078,-4.5859,-4.582,-4.5078,-4.5918,-4.6308,-4.6308,-4.6308,-4.6308,-4.6308,-4.6308,-4.6308,-4.6308,-4.6308,0.0,0.0,0.0,0.0,0.0,0.0,0.0,0.0,0.0,0.0,0.0,0.0,0.0,0.0,0.0,0.0,0.0,0.0,0.0,0.0,0.0,0.0,0.0,0.0,0.0,0.0,0.0,0.0,0.0,0.0,0.0,0.0,0.0,0.0,0.0,0.0,0.0,0.0,-5.0898,-5.0898,0.0,0.0,0.0,0.0,-5.0898,-5.0183,-5.0074,-5.0801,-5.0132,-5.0055,-5.0821,-5.084,-5.0859,-5.0898,-5.0898,-5.0898,-5.0898,-5.0898,-5.0898,-5.0898,-5.0898,-5.0898,-5.0898,-5.0898,-5.0898,-5.0898,-5.0898,-5.0898,-5.0898,-5.0898,-5.0898,-5.0898,-5.0898,-5.0898,-5.0898,0.0,0.0,0.0,0.0,0.0,0.0,0.0,0.0,-4.2558,-4.2054,-4.1361,-4.0924,-4.0984,-4.1064,-4.1335,-4.1914,-4.2754,-4.3613,-4.4473,-4.5351,-4.5976,-4.6289,-4.6308,-4.6308,-4.6308,-4.5742,-4.5312,-4.5,-4.5312,-4.5293,-4.5019,-4.5898,-4.6308,-4.6308,-4.6308,-4.6308,-4.6308,-4.6308,-4.6308,-4.6308,-4.6308,-4.6308,0.0,0.0,0.0,0.0,0.0,0.0,0.0,0.0,0.0,0.0,0.0,0.0,0.0,0.0,0.0,0.0,0.0,0.0,0.0,0.0,0.0,0.0,0.0,0.0,0.0,0.0,0.0,0.0,0.0,0.0,0.0,0.0,0.0,0.0,0.0,0.0,0.0,-5.0898,-5.0898,0.0,-5.0898,-5.0898,-5.0898,-5.0898,-5.0627,-5.0589,-5.0879,-5.0627,-5.0589,-5.0898,-5.0898,-5.0898,-5.0898,-5.0898,-5.0898,-5.0898,-5.0898,-5.0898,-5.0898,-5.0898,-5.0898,-5.0898,-5.0898,-5.0898,-5.0898,-5.0898,-5.0898,-5.0898,-5.0898,-5.0898,-5.0898,-5.0898,-5.0898,-5.0898,0.0,0.0,0.0,0.0,0.0,0.0,0.0,0.0,-4.3426,-4.2943,-4.1947,-4.1301,-4.1354,-4.1426,-4.1711,-4.2301,-4.3457,-4.4258,-4.4531,-4.5644,-4.6172,-4.5879,-4.6133,-4.6152,-4.5879,-4.5293,-4.4707,-4.4121,-4.5019,-4.5293,-4.5039,-4.6484,-4.7187,-4.7187,-4.7187,-4.7012,-4.6738,-4.6738,-4.6562,-4.6308,-4.6308,-4.6308,-4.6308,0.0,0.0,0.0,0.0,0.0,0.0,0.0,0.0,0.0,0.0,0.0,0.0,0.0,0.0,0.0,0.0,0.0,0.0,0.0,0.0,0.0,0.0,0.0,0.0,0.0,0.0,0.0,0.0,0.0,0.0,0.0,0.0,0.0,0.0,-5.0898,-5.0898,-5.0898,-5.0898,-5.0898,-5.0898,-5.0898,-5.0898,-5.0898,-5.0898,-5.0898,-5.0898,-5.0898,-5.0898,-5.0898,-5.0898,-5.0898,-5.0898,-5.0898,-5.0898,-5.0898,-5.0898,-5.0898,-5.0898,-5.0898,-5.0898,-5.0898,-5.0898,-5.0898,-5.0898,-5.0898,-5.0898,-5.0898,-5.0898,-5.0898,-5.0898,-5.0898,-5.0898,-5.0898,0.0,0.0,0.0,0.0,0.0,0.0,0.0,-4.4967,-4.4449,-4.4587,-4.3111,-4.2078,-4.2131,-4.219,-4.2287,-4.2376,-4.3981,-4.4648,-4.3808,-4.5351,-4.5918,-4.5078,-4.582,-4.5859,-4.5019,-4.4941,-4.4121,-4.248,-4.5019,-4.5859,-4.5137,-4.7695,-4.8906,-4.8906,-4.8906,-4.8437,-4.7637,-4.7637,-4.7148,-4.6348,-4.6308,-4.6308,-4.6308,0.0,0.0,0.0,0.0,0.0,0.0,0.0,0.0,0.0,0.0,0.0,0.0,0.0,0.0,0.0,0.0,0.0,0.0,0.0,0.0,0.0,0.0,0.0,0.0,0.0,0.0,0.0,0.0,0.0,0.0,0.0,0.0,0.0,-5.0898,-5.0898,-5.0898,-5.0898,-5.0898,-5.0898,-5.0898,-5.0898,-5.0898,-5.0898,-5.0898,-5.0898,-5.0898,-5.0898,-5.0898,-5.0898,-5.0898,-5.0898,-5.0898,-5.0898,-5.0898,-5.0898,-5.0898,-5.0898,-5.0898,-5.0898,-5.0898,-5.0898,-5.0898,-5.0898,-5.0898,-5.0898,-5.0898,-5.0898,-5.0898,-5.0898,-5.0898,-5.0898,-5.0898,-5.0898,0.0,0.0,0.0,0.0,0.0,0.0,0.0,-4.5009,-4.4498,-4.4587,-4.3634,-4.2963,-4.3038,-4.3059,-4.3374,-4.4128,-4.4648,-4.4855,-4.4668,-4.5683,-4.6191,-4.5957,-4.5566,-4.5254,-4.5019,-4.3769,-4.3496,-4.4297,-4.5019,-4.5879,-4.6914,-4.8262,-4.8906,-4.8906,-4.8906,-4.8769,-4.8535,-4.8535,-4.8047,-4.7187,-4.6543,-4.6308,-4.6308,0.0,0.0,0.0,0.0,0.0,0.0,0.0,0.0,0.0,0.0,0.0,0.0,0.0,0.0,0.0,0.0,0.0,0.0,0.0,0.0,0.0,0.0,0.0,0.0,0.0,0.0,0.0,0.0,0.0,0.0,0.0,-5.0898,-5.0898,-5.0898,-5.0898,-5.0898,-5.0898,-5.0898,-5.0898,-5.0898,-5.0898,-5.0898,-5.0898,-5.0898,-5.0898,-5.0898,-5.0898,-5.0898,-5.0898,-5.0898,-5.0898,-5.0898,-5.0898,-5.0898,-5.0898,-5.0898,-5.0898,-5.0898,-5.0898,-5.0898,-5.0898,-5.0898,-5.0898,-5.0898,-5.0898,-5.0898,-5.0898,-5.0898,-5.0898,-5.0898,-5.0898,-5.0898,-5.0898,0.0,0.0,0.0,0.0,0.0,0.0,0.0,-4.5333,-4.5061,-4.5097,-4.4369,-4.3853,-4.3903,-4.394,-4.4193,-4.4802,-4.4885,-4.4927,-4.5,-4.5469,-4.5762,-4.5762,-4.5273,-4.4824,-4.4453,-4.3828,-4.3984,-4.5,-4.6094,-4.7148,-4.8164,-4.9375,-4.9941,-4.9941,-4.9941,-4.9766,-4.9433,-4.9433,-4.8945,-4.8105,-4.7598,-4.6953,-4.6308,-4.6308,-4.6308,-4.6308,-4.6308,-4.6308,-4.6308,-4.6308,0.0,0.0,0.0,0.0,0.0,0.0,0.0,0.0,0.0,0.0,0.0,0.0,0.0,0.0,0.0,0.0,0.0,0.0,0.0,0.0,0.0,0.0,0.0,0.0,-5.0898,-5.0898,-5.0898,-5.0898,-5.0898,-5.0898,-5.0898,-5.0898,-5.0898,-5.0898,-5.0898,-5.0898,-5.0898,-5.0898,-5.0898,-5.0898,-5.0898,-5.0898,-5.0898,-5.0898,-5.0898,-5.0898,-5.0898,-5.0898,-5.1273,-5.1447,-5.1467,-5.1815,-5.1989,-5.197,-5.1602,-5.1447,-5.1428,-5.1053,-5.0898,-5.0898,0.0,0.0,0.0,0.0,-5.0898,-5.0898,0.0,0.0,0.0,0.0,0.0,0.0,0.0,-4.5765,-4.5803,-4.58,-4.5181,-4.4736,-4.4736,-4.4787,-4.4861,-4.4938,-4.4999,-4.5079,-4.5137,-4.496,-4.4902,-4.5,-4.4804,-4.4433,-4.3867,-4.4512,-4.5058,-4.5449,-4.7754,-4.9004,-4.9219,-5.0703,-5.1406,-5.1406,-5.1406,-5.0996,-5.0332,-5.0332,-4.9844,-4.9043,-4.9043,-4.8008,-4.6445,-4.6445,-4.6387,-4.6308,-4.6308,-4.6308,-4.6308,-4.6308,0.0,0.0,0.0,0.0,0.0,0.0,0.0,0.0,0.0,0.0,0.0,0.0,0.0,0.0,0.0,0.0,0.0,0.0,0.0,0.0,0.0,0.0,0.0,0.0,-5.0898,-5.0898,-5.0898,-5.0898,-5.0898,-5.0898,-5.0898,-5.0898,-5.0898,-5.0898,-5.0898,-5.0898,-5.0898,-5.0898,-5.0898,-5.0898,0.0,0.0,0.0,-5.0956,-5.1053,-5.1053,-5.1091,-5.1188,-5.197,-5.2345,-5.2364,-5.3149,-5.3498,-5.3459,-5.2693,-5.2345,-5.2287,-5.1409,-5.0995,-5.0898,-5.0801,-5.0821,-5.0898,-5.0801,-5.0821,-5.0898,0.0,0.0,0.0,0.0,0.0,0.0,0.0,-4.5769,-4.58,-4.5807,-4.5671,-4.5568,-4.5568,-4.5576,-4.5647,-4.575,-4.5823,-4.5911,-4.6035,-4.4726,-4.4277,-4.4961,-4.3652,-4.3476,-4.4726,-4.4219,-4.5332,-4.8144,-4.8652,-4.959,-5.0918,-5.125,-5.1406,-5.1406,-5.1406,-5.1308,-5.1172,-5.1172,-5.0703,-4.9941,-4.9941,-4.8906,-4.7344,-4.7344,-4.6914,-4.6308,-4.6308,-4.6308,-4.6308,-4.6308,-4.6308,-4.6308,-4.6288,-4.6241,0.0,0.0,0.0,0.0,0.0,0.0,0.0,0.0,0.0,0.0,0.0,0.0,0.0,0.0,0.0,0.0,0.0,0.0,0.0,-5.0921,-5.0898,-5.0898,-5.0898,-5.0898,-5.0898,-5.0898,-5.0898,-5.0898,-5.0898,-5.0898,-5.0898,-5.0898,-5.0898,-5.0898,-5.0898,-5.0898,-5.0898,-5.0898,-5.0898,-5.1235,-5.1931,-5.195,-5.2298,-5.2995,-5.3169,0.0,-5.3246,-5.342,-5.3498,-5.3478,-5.3323,-5.3246,-5.3169,-5.2298,-5.1525,-5.084,-5.019,-5.0318,-5.0821,-5.0163,-5.0337,-5.0898,0.0,0.0,0.0,0.0,0.0,0.0,0.0,-4.5791,-4.5807,-4.5807,-4.5807,-4.5807,-4.5807,-4.5807,-4.5841,-4.5991,-4.6052,-4.5967,-4.5616,-4.5186,-4.4975,-4.5,-4.4589,-4.4765,-4.5625,-4.6074,-4.7363,-4.9551,-4.9941,-5.0586,-5.1406,-5.1406,-5.1406,-5.1406,-5.1406,-5.1406,-5.1406,-5.1406,-5.1172,-5.0801,-5.0801,-5.0039,-4.8808,-4.793,-4.7324,-4.6894,-4.6465,-4.6308,-4.6308,-4.6308,-4.6308,-4.6308,-4.6308,-4.6288,-4.6243,0.0,0.0,0.0,0.0,0.0,0.0,0.0,0.0,0.0,0.0,0.0,0.0,0.0,0.0,-5.0199,-5.0991,0.0,-5.1081,-5.101,-5.0932,-5.0763,-5.0357,-5.0299,-5.0453,-5.084,-5.0898,-5.0898,-5.0898,-5.0898,-5.0898,-5.0898,-5.0898,-5.0898,-5.0898,-5.0898,-5.0898,-5.0898,-5.1331,-5.1757,-5.221,-5.2635,-5.3072,-5.3498,-5.3942,-5.4155,-5.4155,-5.4561,-5.4755,-5.4735,-5.4329,-5.4155,-5.4078,-5.3207,-5.2589,-5.2066,-5.0809,-5.055,-5.084,-5.0453,-5.0299,-5.0299,0.0,0.0,0.0,0.0,0.0,0.0,0.0,-4.5798,-4.5807,-4.5807,-4.5807,-4.5807,-4.5807,-4.5807,-4.5841,-4.5991,-4.6054,-4.5823,-4.5184,-4.5648,-4.5664,-4.5039,-4.5664,-4.621,-4.6543,-4.8086,-4.9394,-5.043,-5.1074,-5.1406,-5.1406,-5.1406,-5.1406,-5.1406,-5.1406,-5.1406,-5.1406,-5.1406,-5.1406,-5.1406,-5.1406,-5.0918,-5.0039,-4.8457,-4.7754,-4.748,-4.6601,-4.6308,-4.6308,-4.6308,-4.6308,-4.6308,-4.6308,-4.6308,-4.6308,-4.6308,-4.6308,0.0,0.0,0.0,0.0,0.0,0.0,0.0,0.0,0.0,-4.7616,-4.8557,-4.9295,-5.0085,-5.1044,-5.1189,-5.1078,-5.0878,-5.0758,-5.0395,-4.9552,-4.9455,-4.9687,-5.0337,-5.055,-5.0666,-5.0666,-5.0801,-5.0898,-5.0898,-5.0898,-5.0898,-5.0898,-5.1053,-5.1149,-5.1149,-5.1989,-5.2539,-5.2713,-5.3401,-5.3826,-5.3981,-5.4697,-5.5026,-5.5064,-5.5702,-5.6012,-5.5973,-5.5316,-5.4948,-5.4755,-5.4039,-5.3652,-5.3362,-5.195,-5.1401,-5.1343,-5.084,-5.0357,-4.9939,0.0,0.0,0.0,0.0,0.0,0.0,0.0,0.0,-4.5807,-4.5807,-4.5807,-4.5807,-4.5807,-4.5807,-4.5841,-4.5991,-4.6012,-4.6017,-4.6042,-4.542,-4.5025,-4.5,-4.5098,-4.5879,-4.7422,-4.8398,-4.9687,-5.1269,-5.1367,-5.1406,-5.1406,-5.1406,-5.1406,-5.1406,-5.1406,-5.1406,-5.1406,-5.1406,-5.1406,-5.1406,-5.1406,-5.0918,-5.0098,-4.9121,-4.8262,-4.748,-4.6601,-4.6308,-4.6308,-4.6308,-4.6308,-4.6308,-4.6308,-4.6308,-4.6308,-4.6308,-4.6308,-4.6308,-4.6308,-4.6308,-4.6308,-4.6308,-4.6308,-4.6308,0.0,0.0,-4.6914,-4.8535,-4.8964,-4.9489,-5.1004,-5.1284,-5.0995,-5.0095,-4.9928,-4.9608,-4.8684,-4.8546,-4.8585,-4.8662,-4.9359,-4.9842,-4.9842,-5.0473,-5.0898,-5.0898,-5.0898,-5.0898,-5.0898,-5.1621,-5.2047,-5.2047,-5.2898,-5.373,-5.4503,-5.46,-5.5006,-5.5722,-5.5818,-5.5877,-5.5877,-5.5973,-5.6012,-5.5993,-5.5896,-5.547,-5.4793,-5.4697,-5.4194,-5.3478,-5.3285,-5.3207,-5.2937,-5.0674,-5.0221,-5.0763,0.0,0.0,0.0,0.0,0.0,0.0,0.0,0.0,0.0,0.0,-4.5807,-4.5807,-4.5807,-4.5807,-4.5808,-4.5886,-4.5939,-4.6046,-4.6137,-4.5837,-4.569,-4.5742,-4.623,-4.6855,-4.7578,-4.8945,-5.0,-5.0703,-5.1172,-5.1406,-5.1406,-5.1406,-5.1406,-5.1406,-5.1406,-5.1406,-5.1406,-5.1406,-5.1406,-5.1367,-5.0898,-5.0508,-5.0058,-4.8672,-4.793,-4.748,-4.6601,-4.6308,0.0,-4.6308,-4.6308,-4.6308,-4.6308,-4.6308,-4.6308,-4.6308,-4.6308,-4.6308,-4.6308,-4.6308,-4.6308,-4.6308,-4.6308,-4.6308,-4.6308,-4.6308,-4.6797,-4.8535,-4.8906,-4.9394,-5.105,-5.09,-5.0406,0.0,-4.9465,-4.8788,-4.7888,-4.7766,-4.757,-4.7054,-4.774,-4.8638,-4.9618,-5.0434,-5.0898,-5.0898,-5.0898,-5.0898,-5.0898,-5.1738,-5.221,-5.221,-5.3536,-5.4426,-5.4793,-5.5258,-5.5664,-5.6012,-5.6012,-5.6012,-5.6012,-5.6012,-5.6012,-5.6012,-5.6012,-5.5818,-5.5509,-5.5509,-5.5277,-5.4909,-5.4445,-5.4252,-5.4,-5.1912,-5.1061,-5.0821,0.0,0.0,0.0,0.0,0.0,0.0,0.0,0.0,0.0,0.0,-4.5807,-4.5807,-4.5807,-4.5807,-4.5807,-4.5807,-4.5899,-4.5993,-4.6095,-4.6145,-4.6209,-4.6308,-4.7129,-4.7598,-4.7598,-4.9062,-4.9844,-4.9844,-5.043,-5.0703,-5.0703,-5.0703,-5.0703,-5.0703,-5.0703,-5.0703,-5.0703,-5.0703,-5.0703,-5.0664,-5.0078,-4.9707,-4.9355,-4.8086,-4.7441,-4.7168,-4.6523,-4.6308,-4.6308,-4.6308,-4.6308,-4.6308,-4.6308,-4.6308,-4.6308,-4.6308,-4.6308,-4.6308,-4.6308,-4.6308,-4.6308,-4.6308,-4.6484,-4.666,-4.666,-4.6836,-4.7441,-4.8945,-4.9258,-4.9629,-5.0859,-5.0503,-4.9882,-4.9386,-4.8744,-4.7986,-4.7092,-4.6971,-4.6816,-4.6425,-4.7081,-4.8132,-4.9586,-5.0232,-5.0666,-5.0879,-5.0898,-5.0995,-5.1254,-5.2086,-5.2674,-5.2898,-5.4368,-5.5122,-5.5122,-5.5722,-5.6012,-5.6012,-5.6012,-5.6012,-5.6012,-5.6012,-5.6012,-5.6012,-5.6012,-5.6012,-5.6012,-5.6012,-5.6012,-5.5935,-5.5354,-5.5122,-5.4948,-5.3459,-5.2376,-5.1505,0.0,0.0,0.0,0.0,0.0,0.0,0.0,0.0,0.0,0.0,0.0,0.0,0.0,-4.5807,-4.5807,-4.5807,-4.5807,-4.5891,-4.6091,-4.6102,-4.6158,-4.6289,-4.7128,-4.7597,-4.7598,-4.8476,-4.8944,-4.8945,-4.8965,-4.8984,-4.8984,-4.8984,-4.8984,-4.8984,-4.8984,-4.8984,-4.8984,-4.8984,-4.8984,-4.8965,-4.8945,-4.8437,-4.7676,-4.7617,-4.707,-4.6348,-4.6308,-4.6308,-4.6308,-4.6308,-4.6308,-4.6308,-4.6308,-4.6308,-4.6308,-4.6308,-4.6308,-4.6308,-4.6308,-4.6308,-4.6308,-4.6308,-4.6933,-4.7558,-4.7558,-4.8203,-4.9082,-4.998,-5.0156,-5.0176,-5.0234,-5.0215,-4.9627,-4.7868,-4.7549,-4.7203,-4.6264,-4.6137,-4.6433,-4.7251,-4.8001,-4.8807,0.0,-4.9755,-5.0055,-5.084,-5.0898,-5.1273,-5.2132,-5.2995,-5.3846,-5.4697,-5.5528,-5.5973,-5.5973,-5.5993,-5.6012,-5.6012,-5.6012,-5.6012,-5.6012,-5.6012,-5.6012,-5.6012,-5.6012,-5.6012,-5.6012,-5.6012,-5.6012,-5.6012,-5.5973,-5.5973,-5.5857,-5.5026,-5.4175,-5.3304,0.0,0.0,0.0,0.0,0.0,0.0,0.0,0.0,0.0,0.0,0.0,0.0,0.0,0.0,0.0,0.0,-4.5873,-4.5988,-4.6095,-4.6142,-4.6206,-4.6308,-4.6582,-4.6738,-4.6737,-4.7596,-4.8045,-4.8044,-4.8612,-4.8905,-4.8905,-4.8906,-4.8906,-4.8906,-4.8906,-4.8906,-4.8906,-4.8906,-4.8906,-4.8848,-4.8262,-4.7851,-4.7539,-4.6953,-4.6562,-4.6308,0.0,-4.6308,-4.6308,-4.6308,-4.6308,-4.6308,-4.6308,-4.6308,-4.6308,-4.6308,0.0,0.0,0.0,0.0,-4.7168,-4.7168,-4.7812,-4.8457,-4.8457,-4.8691,-4.9141,-5.0019,-5.0195,-5.0195,-5.0195,-4.9726,-4.8945,-4.7751,-4.7087,-4.6597,-4.6278,-4.6238,-4.6544,-4.7377,-4.7686,0.0,0.0,0.0,0.0,-5.0879,-5.1447,-5.1892,-5.219,-5.3575,-5.4503,-5.4793,-5.5586,-5.6012,-5.6012,-5.6012,-5.6012,-5.6012,-5.6012,-5.6012,-5.6012,-5.6012,-5.6012,-5.6012,-5.6012,-5.6012,-5.6012,-5.6012,-5.6012,-5.6012,-5.6012,-5.6012,-5.5973,-5.5702,-5.5412,-5.4967,0.0,0.0,0.0,0.0,0.0,0.0,0.0,0.0,0.0,0.0,0.0,0.0,0.0,0.0,0.0,0.0,0.0,-4.5988,-4.6095,-4.6139,-4.6206,-4.6308,-4.6308,-4.6308,-4.6308,-4.6854,-4.7146,-4.7146,-4.7694,-4.7968,-4.7968,-4.7969,-4.7969,-4.7969,-4.7969,-4.7969,-4.7969,-4.7969,-4.7969,-4.793,-4.7363,-4.7148,-4.707,-4.6504,-4.6308,0.0,-4.6308,-4.6308,-4.6308,-4.6308,-4.6308,-4.6308,-4.6308,-4.6308,-4.6308,0.0,0.0,0.0,0.0,-4.7402,-4.8066,-4.8066,-4.8711,-4.9355,-4.9355,-4.959,-4.9941,-5.0508,-5.0625,-5.0449,-4.9844,-4.9277,-4.8516,-4.7324,-4.668,-4.6308,-4.6308,-4.6308,-4.6601,-4.7432,-4.7772,-4.8456,0.0,0.0,0.0,-5.0969,-5.1763,-5.2361,-5.2655,-5.402,-5.4929,-5.5219,-5.5741,-5.6012,-5.6012,-5.6012,-5.6012,-5.6012,-5.6012,-5.6012,-5.6012,-5.6012,-5.6012,-5.6012,-5.6012,-5.6012,-5.6012,-5.6012,-5.6012,-5.6012,-5.6012,-5.6012,-5.6012,-5.6012,-5.6012,-5.5799,0.0,0.0,0.0,0.0,0.0,0.0,0.0,0.0,0.0,0.0,0.0,0.0,0.0,0.0,0.0,0.0,0.0,0.0,-4.6091,-4.6098,-4.6155,-4.6289,-4.6308,-4.6308,-4.6308,-4.6308,-4.6307,-4.6308,-4.6308,-4.6308,-4.6308,-4.6308,-4.6308,-4.6308,-4.6308,-4.6308,-4.6308,-4.6308,-4.6308,-4.6308,-4.6308,-4.6308,-4.6308,-4.6308,-4.6308,-4.6308,-4.6308,-4.6308,-4.6308,-4.6308,0.0,0.0,0.0,0.0,0.0,0.0,0.0,-4.7617,-4.7656,-4.8301,-4.8965,-4.8965,-4.9629,-5.0254,-5.0254,-5.082,-5.1348,-5.1348,-5.1308,-5.0762,0.0,0.0,-4.8281,-4.6582,-4.6308,-4.6308,-4.6308,-4.6308,-4.6621,0.0,0.0,0.0,0.0,0.0,0.0,-5.1192,0.0,-5.2725,-5.3522,-5.4404,-5.5227,-5.5993,-5.6012,-5.6012,-5.6012,-5.6012,-5.6012,-5.6012,-5.6012,-5.6012,-5.6012,-5.6012,-5.6012,-5.6012,-5.6012,-5.6012,-5.6012,-5.6012,-5.6012,-5.6012,-5.6012,-5.6012,-5.6012,-5.6012,-5.6012,-5.5896,0.0,0.0,0.0,0.0,0.0,0.0,0.0,0.0,0.0,0.0,0.0,0.0,0.0,0.0,0.0,0.0,0.0,0.0,-4.6091,-4.6098,-4.6155,-4.6289,0.0,0.0,0.0,0.0,0.0,-4.6305,-4.6307,-4.6307,-4.6307,-4.6308,-4.6308,-4.6308,-4.6308,-4.6308,-4.6308,-4.6308,-4.6308,-4.6308,-4.6308,-4.6308,-4.6308,-4.6308,-4.6308,-4.6308,-4.6308,-4.6308,-4.6308,0.0,0.0,0.0,0.0,-4.6308,-4.6426,0.0,0.0,-4.7734,-4.8398,-4.9199,-4.9863,-4.9863,-5.0488,-5.1094,-5.1094,-5.0781,-5.0508,-5.0508,-4.998,-4.9219,-4.8125,0.0,0.0,-4.6484,-4.6308,0.0,-4.6308,-4.6308,0.0,-4.75,0.0,-4.9197,-5.0057,-5.0874,0.0,0.0,-5.2961,-5.3749,-5.4504,-5.5364,-5.5889,-5.5993,-5.6012,-5.6012,-5.6012,-5.6012,-5.6012,-5.6012,-5.6012,-5.6012,-5.6012,-5.6012,-5.6012,-5.6012,-5.6012,-5.6012,-5.6012,-5.6012,-5.6012,-5.6012,-5.6012,-5.6012,-5.6012,-5.6012,-5.6012,-5.5973,0.0,0.0,0.0,0.0,0.0,0.0,0.0,0.0,0.0,0.0,0.0,0.0,0.0,0.0,0.0,0.0,0.0,0.0,0.0,-4.6128,-4.6197,-4.6308,0.0,0.0,0.0,0.0,0.0,0.0,0.0,0.0,-4.6308,-4.6308,-4.6308,-4.6308,-4.6308,-4.6308,-4.6308,-4.6308,-4.6308,0.0,0.0,-4.6308,-4.6308,-4.6308,-4.6308,-4.6308,-4.6308,0.0,0.0,0.0,0.0,-4.6308,-4.6308,-4.6308,-4.6465,-4.7344,0.0,-4.8359,-4.9238,-5.0098,-5.0723,-5.0723,-5.1074,-5.1308,-5.0957,-5.0527,-5.0098,-4.9707,-4.9238,-4.8633,-4.7754,-4.7598,-4.7305,0.0,0.0,0.0,-4.6308,-4.6308,-4.6484,0.0,-4.8144,0.0,-4.957,-5.1055,-5.2323,0.0,-5.3606,-5.4145,-5.4853,-5.5728,-5.6146,-5.5993,-5.6012,-5.6012,-5.6012,-5.6012,-5.6012,-5.6012,-5.6012,-5.6012,-5.6012,-5.6012,-5.6012,-5.6012,-5.6012,-5.6012,-5.6012,-5.6012,-5.6012,-5.6012,-5.6012,-5.6012,-5.6012,-5.6012,-5.6012,-5.6012,0.0,0.0,0.0,0.0,0.0,0.0,0.0,0.0,0.0,0.0,0.0,0.0,0.0,0.0,0.0,0.0,0.0,0.0,0.0,0.0,0.0,0.0,0.0,0.0,0.0,0.0,0.0,0.0,0.0,0.0,0.0,0.0,0.0,0.0,0.0,-4.6308,-4.6308,-4.6308,-4.6308,-4.6308,-4.6308,-4.6308,-4.6308,0.0,0.0,0.0,0.0,0.0,0.0,0.0,-4.6308,-4.6308,-4.6308,-4.6308,-4.6484,-4.748,-4.8301,-4.9101,-5.0098,-5.0879,-5.1406,-5.1406,-5.1406,-5.1191,-5.0371,-5.0117,-4.9785,-4.8906,-4.8633,-4.832,-4.7578,-4.7422,-4.7187,-4.6426,0.0,-4.6308,-4.6308,-4.6308,-4.6308,-4.6308,-4.7832,-4.8906,-4.8906,-5.1191,-5.3066,-5.3926,-5.4052,-5.4384,-5.508,-5.5822,-5.6175,-5.6035,-5.6001,-5.6012,-5.6012,-5.6012,-5.6012,-5.6012,-5.6012,-5.6012,-5.6012,-5.6012,-5.6012,-5.6012,-5.6012,-5.6012,-5.6012,-5.6012,-5.6012,-5.6012,-5.6012,-5.6012,-5.6012,-5.6012,-5.6012,-5.6012,0.0,0.0,0.0,0.0,0.0,0.0,0.0,0.0,0.0,0.0,-4.5807,-4.5807,0.0,0.0,0.0,0.0,0.0,0.0,0.0,0.0,0.0,0.0,0.0,0.0,0.0,-4.6308,-4.6308,-4.6308,-4.6308,0.0,0.0,0.0,0.0,0.0,0.0,-4.6308,-4.6308,-4.6308,-4.6308,-4.6308,-4.6308,-4.6308,-4.6308,0.0,0.0,0.0,0.0,0.0,0.0,0.0,-4.6308,-4.6308,-4.6308,-4.6308,-4.6601,-4.8203,-4.8789,-4.9238,-5.0762,-5.1289,-5.1406,-5.1406,-5.1406,-5.1191,-5.0371,-4.9648,0.0,-4.8008,-4.7246,-4.6699,-4.6543,-4.6523,-4.6484,-4.6328,-4.6308,-4.6308,-4.6308,-4.6308,-4.6308,0.0,-4.7832,-4.8906,-4.8906,-5.1191,0.0,0.0,-5.4667,-5.5401,-5.6171,-5.6364,-5.6359,-5.6168,-5.6067,-5.6012,-5.6012,-5.6012,-5.6012,-5.6012,-5.6012,-5.6012,-5.6012,-5.6012,-5.6012,-5.6012,-5.6012,-5.6012,-5.6012,-5.6012,-5.6012,-5.6012,-5.6012,-5.6012,-5.6012,-5.6012,-5.6012,-5.6012,0.0,0.0,0.0,0.0,0.0,0.0,0.0,-4.5807,-4.5807,-4.5807,-4.5807,-4.5807,-4.5807,-4.5807,-4.5807,0.0,0.0,0.0,0.0,0.0,0.0,0.0,0.0,0.0,0.0,-4.6308,-4.6308,-4.6308,0.0,-4.6308,0.0,-4.6308,-4.6308,-4.6308,-4.6308,-4.6308,-4.6308,-4.6308,-4.6308,-4.6308,-4.6308,-4.6308,0.0,0.0,0.0,0.0,0.0,0.0,0.0,0.0,-4.6308,-4.6308,-4.6308,-4.6308,-4.6641,-4.8398,-4.8906,-4.9277,-5.0937,-5.1406,-5.1406,-5.1406,-5.1094,-5.0566,-4.9707,0.0,0.0,-4.7109,-4.6582,-4.6308,-4.6308,-4.668,0.0,-4.6367,-4.668,-4.6816,-4.6367,-4.6308,-4.6308,-4.6308,-4.7832,-4.8906,-4.8906,-5.1601,-5.3555,-5.3965,-5.5234,-5.6129,-5.6471,-5.6409,-5.6295,-5.6201,-5.6064,-5.6012,-5.6012,-5.6012,-5.6012,-5.6012,-5.6012,-5.6012,-5.6012,-5.6012,-5.6012,-5.6012,-5.6012,-5.6012,-5.6012,-5.6012,-5.6012,-5.6012,-5.6012,-5.6012,-5.6012,-5.6012,-5.6012,-5.6012,0.0,0.0,0.0,0.0,0.0,0.0,0.0,-4.5807,-4.5807,-4.5807,-4.5807,-4.5807,-4.5807,-4.5807,-4.5821,0.0,0.0,0.0,0.0,0.0,0.0,0.0,0.0,0.0,0.0,0.0,0.0,-4.6308,-4.6308,0.0,0.0,0.0,0.0,0.0,-4.6308,-4.6308,-4.6308,-4.6308,-4.6308,0.0,0.0,-4.6308,0.0,0.0,0.0,0.0,0.0,0.0,0.0,0.0,-4.6308,-4.6308,-4.6308,-4.6308,-4.6601,-4.8164,-4.8613,-4.8984,-5.0683,-5.1133,-5.1133,-5.1133,-5.0664,-4.9922,-4.8867,-4.8086,0.0,-4.6484,-4.6308,-4.6308,-4.6308,-4.6855,-4.7168,0.0,-4.6992,-4.7148,-4.6641,-4.6426,-4.6308,0.0,-4.7676,0.0,-4.8887,-5.166,0.0,-5.3965,-5.5605,-5.658,-5.6522,-5.6355,-5.6247,-5.6218,-5.6117,-5.6026,-5.6012,-5.6012,-5.6012,-5.6012,-5.6012,-5.6012,-5.6012,-5.6012,-5.6012,-5.6012,-5.6012,-5.6012,-5.6012,-5.6012,-5.6012,-5.6012,-5.6012,-5.6012,-5.6012,-5.6012,-5.6012,-5.6012,0.0,0.0,0.0,0.0,0.0,0.0,0.0,-4.5807,-4.5807,-4.5807,-4.5807,-4.5807,-4.5807,-4.5807,-4.5861,0.0,0.0,0.0,0.0,0.0,0.0,0.0,0.0,0.0,0.0,0.0,0.0,-4.6308,-4.6308,0.0,0.0,0.0,0.0,0.0,0.0,-4.6308,-4.6308,-4.6308,0.0,0.0,0.0,0.0,0.0,0.0,0.0,0.0,0.0,0.0,0.0,0.0,0.0,-4.6308,-4.6308,-4.6308,-4.6484,-4.7441,0.0,0.0,-4.9844,-5.0312,-5.0312,-5.0312,-5.0254,-4.9766,-4.8105,0.0,-4.7344,-4.6484,-4.6308,-4.6308,-4.6308,-4.6367,-4.6641,-4.7363,-4.6875,-4.668,-4.7383,-4.6797,-4.6308,-4.6308,0.0,0.0,-4.8828,-5.0566,-5.2305,-5.3887,-5.5605,-5.6601,-5.6582,-5.6522,-5.641,-5.6279,-5.6224,-5.6132,-5.6012,-5.6012,-5.6012,-5.6012,-5.6012,-5.6012,-5.6012,-5.6012,-5.6012,-5.6012,-5.6012,-5.6012,-5.6012,-5.6012,-5.6012,-5.6012,-5.6012,-5.6012,-5.6012,-5.6012,-5.6012,-5.6012,0.0,0.0,0.0,0.0,0.0,0.0,-4.5807,-4.5807,-4.5807,-4.5807,-4.5807,-4.5807,-4.5807,-4.5861,-4.5947,-4.5997,0.0,0.0,0.0,0.0,0.0,0.0,0.0,0.0,0.0,0.0,-4.6308,-4.6308,-4.6308,0.0,0.0,0.0,0.0,0.0,0.0,-4.6308,-4.6308,0.0,0.0,0.0,0.0,0.0,0.0,0.0,0.0,0.0,0.0,0.0,-4.6308,0.0,0.0,0.0,-4.6308,-4.6308,0.0,0.0,-4.7598,-4.7871,-4.9082,-4.9414,-4.9414,-4.9414,-4.9023,-4.8457,-4.7754,0.0,-4.6719,-4.6367,-4.6308,-4.6308,-4.6308,-4.6738,-4.7207,-4.7539,-4.7754,0.0,-4.832,-4.8086,-4.7676,-4.7148,-4.7851,0.0,0.0,0.0,-5.2344,-5.4609,-5.5918,-5.6601,-5.6601,-5.6548,-5.648,-5.6419,-5.628,-5.6168,-5.6124,-5.6043,-5.6012,-5.6012,-5.6012,-5.6012,-5.6012,-5.6012,-5.6012,-5.6012,-5.6012,-5.6012,-5.6012,-5.6012,-5.6012,-5.6012,-5.6012,-5.6012,-5.6012,-5.6012,-5.6012,-5.6012,0.0,0.0,0.0,0.0,0.0,-4.5807,-4.5807,-4.5807,-4.5807,-4.5807,-4.5807,-4.5821,-4.5841,-4.5933,-4.6027,-4.6063,-4.6102,0.0,0.0,0.0,0.0,0.0,0.0,0.0,0.0,0.0,-4.6308,-4.6308,-4.6308,-4.6308,0.0,0.0,-4.6308,-4.6308,0.0,0.0,0.0,0.0,0.0,0.0,0.0,0.0,0.0,0.0,0.0,0.0,0.0,0.0,0.0,0.0,0.0,0.0,0.0,0.0,0.0,0.0,-4.7226,-4.7402,-4.8281,-4.8516,-4.8516,-4.8516,-4.8047,-4.7539,0.0,0.0,-4.6308,-4.6308,-4.6308,-4.6308,-4.6308,-4.6797,-4.7383,-4.7891,-4.8281,-4.8691,-4.9219,-4.9062,-4.8574,0.0,0.0,-4.8262,0.0,-4.9902,-5.2383,-5.4746,-5.5723,-5.6328,-5.6582,-5.6555,-5.652,-5.6508,-5.6359,-5.6253,-5.6194,-5.6109,-5.6043,-5.6012,-5.6012,-5.6012,-5.6012,-5.6012,-5.6012,-5.6012,-5.6012,-5.6012,-5.6012,-5.6012,-5.6012,-5.6012,-5.6012,-5.6012,-5.6012,-5.6012,-5.6012,-5.6012,0.0,0.0,0.0,0.0,0.0,0.0,-4.5807,-4.5807,-4.5807,-4.5807,-4.5807,-4.5861,-4.5986,-4.6002,-4.6044,-4.6195,-4.6202,0.0,0.0,0.0,0.0,0.0,0.0,0.0,0.0,0.0,-4.6308,-4.6308,-4.6308,-4.6308,-4.6308,-4.6308,-4.6308,-4.6308,0.0,0.0,0.0,0.0,0.0,0.0,0.0,0.0,0.0,0.0,0.0,0.0,0.0,0.0,0.0,0.0,0.0,0.0,0.0,0.0,0.0,0.0,-4.6308,-4.6504,-4.7383,-4.7617,-4.7617,-4.7617,-4.7617,-4.7363,0.0,-4.6308,-4.6308,-4.6308,-4.6308,-4.6308,-4.6308,-4.6308,-4.6875,-4.8613,-4.8164,0.0,-4.9941,-4.9433,0.0,0.0,0.0,-4.7617,-4.7598,-4.9902,-5.2129,-5.3887,-5.4824,0.0,-5.6543,-5.6601,-5.6579,-5.6508,-5.6506,-5.6409,-5.6201,-5.6194,-5.6139,-5.6012,-5.6012,-5.6012,-5.6012,-5.6012,-5.6012,-5.6012,-5.6012,-5.6012,-5.6012,-5.6012,-5.6012,-5.6012,-5.6012,-5.6012,-5.6012,-5.6012,-5.6012,-5.6012,0.0,0.0,0.0,0.0,0.0,0.0,0.0,-4.5807,-4.5807,-4.5807,-4.5807,-4.5841,-4.5986,-4.6046,-4.6105,-4.6199,-4.6202,0.0,0.0,0.0,0.0,0.0,0.0,0.0,0.0,0.0,-4.6308,-4.6308,-4.6308,-4.6308,-4.6308,-4.6308,-4.6308,-4.6308,-4.6308,-4.6308,0.0,0.0,0.0,0.0,0.0,0.0,0.0,0.0,0.0,0.0,0.0,0.0,0.0,0.0,0.0,0.0,0.0,0.0,0.0,0.0,0.0,0.0,-4.6641,-4.6719,-4.6719,-4.6719,-4.6719,-4.6641,-4.6367,-4.6308,-4.6308,-4.6308,-4.6308,-4.6308,-4.6308,-4.6308,-4.6875,-4.8613,-4.8672,-4.9082,0.0,0.0,0.0,-4.8652,-4.7441,-4.6953,0.0,0.0,-5.1035,-5.2148,-5.3574,-5.4531,-5.4805,-5.539,-5.5976,-5.6559,-5.6522,-5.6433,-5.6266,-5.6224,-5.6119,-5.6012,-5.6012,-5.6012,-5.6012,-5.6012,-5.6012,-5.6012,-5.6012,-5.6012,-5.6012,-5.6012,-5.6012,-5.6012,-5.6012,-5.6012,-5.6012,-5.6012,-5.6012,-5.6012,0.0,0.0,0.0,0.0,0.0,0.0,0.0,-4.5807,-4.5807,-4.5807,-4.5835,-4.5916,-4.6027,-4.6098,-4.616,-4.6237,-4.6239,0.0,0.0,0.0,0.0,0.0,0.0,0.0,-4.6308,-4.6308,-4.6308,-4.6308,-4.6308,-4.6308,-4.6308,-4.6308,-4.6308,-4.6308,-4.6308,-4.6308,0.0,0.0,0.0,0.0,0.0,0.0,-4.6308,0.0,0.0,0.0,0.0,0.0,0.0,0.0,0.0,0.0,0.0,0.0,0.0,0.0,0.0,0.0,0.0,-4.6308,-4.6308,-4.6308,-4.6308,0.0,0.0,-4.6308,-4.6308,-4.6308,-4.6308,-4.6308,-4.6308,-4.6308,-4.6875,-4.8613,-4.8906,-4.9492,0.0,0.0,0.0,-4.9101,0.0,0.0,0.0,-4.8574,-4.9824,-5.1289,-5.2402,-5.3301,-5.3965,-5.4512,-5.5058,-5.5605,-5.6225,-5.6465,-5.6292,-5.6266,-5.6155,-5.6012,-5.6012,-5.6012,-5.6012,-5.6012,-5.6012,-5.6012,-5.6012,-5.5838,0.0,-5.5548,-5.5354,-5.5084,-5.5432,-5.5548,-5.5586,-5.5896,-5.6012,-5.5973,0.0,0.0,0.0,0.0,0.0,0.0,0.0,-4.5807,-4.5807,-4.5821,-4.591,-4.6022,-4.6098,-4.6158,-4.6235,-4.6289,0.0,0.0,0.0,0.0,0.0,0.0,0.0,0.0,-4.6308,-4.6308,-4.6308,-4.6308,-4.6308,-4.6308,-4.6308,-4.6308,-4.6308,-4.6308,-4.6308,-4.6308,-4.6308,-4.6308,-4.6308,-4.6308,-4.6308,-4.6308,0.0,0.0,0.0,0.0,0.0,0.0,0.0,0.0,0.0,0.0,0.0,0.0,0.0,0.0,0.0,0.0,0.0,0.0,0.0,0.0,0.0,0.0,0.0,0.0,0.0,-4.6308,-4.6308,-4.6308,-4.6308,-4.6308,-4.6875,-4.8613,-4.8906,-4.9492,0.0,-5.1308,0.0,0.0,-4.7363,0.0,-4.7422,-4.7558,-4.8574,-5.0957,-5.123,-5.2012,-5.3633,-5.3848,-5.3906,-5.3906,-5.5547,-5.6315,-5.6117,-5.6117,-5.6047,-5.5915,-5.5857,-5.5857,-5.5915,-5.5857,-5.5818,-5.5818,-5.5818,-5.5393,-5.4716,-5.4716,-5.4233,-5.3575,-5.4387,-5.4716,-5.4793,-5.5548,-5.5818,-5.5722,0.0,0.0,0.0,0.0,0.0,0.0,0.0,0.0,0.0,0.0,-4.5986,-4.605,-4.616,-4.6197,-4.6235,0.0,0.0,0.0,0.0,0.0,0.0,0.0,0.0,0.0,-4.6308,-4.6308,-4.6308,-4.6308,-4.6308,-4.6308,-4.6308,-4.6308,-4.6308,-4.6308,-4.6308,-4.6308,-4.6308,-4.6308,-4.6308,-4.6308,-4.6308,-4.6308,0.0,0.0,0.0,0.0,-4.6308,-4.6308,0.0,0.0,0.0,0.0,0.0,0.0,0.0,0.0,-4.6308,0.0,0.0,0.0,0.0,0.0,0.0,0.0,0.0,0.0,0.0,0.0,0.0,0.0,0.0,-4.6308,-4.6875,-4.8613,-4.8906,-4.9492,-5.1152,0.0,0.0,-4.8945,-4.7363,-4.6387,-4.6582,-4.7207,-4.7851,-4.8457,-4.9726,-5.0664,-5.1074,-5.2305,-5.3008,-5.3008,-5.4043,-5.4536,-5.4398,-5.4398,-5.4622,-5.5064,-5.4407,-5.4445,-5.5064,-5.4387,-5.4097,-5.4097,-5.4097,-5.3981,-5.3807,-5.3807,-5.3672,-5.3517,-5.373,-5.3807,-5.3826,-5.402,-5.4097,-5.4058,0.0,0.0,0.0,0.0,0.0,0.0,0.0,0.0,0.0,0.0,0.0,-4.6084,-4.6197,-4.6235,0.0,0.0,0.0,0.0,0.0,0.0,0.0,0.0,0.0,-4.6308,-4.6308,-4.6308,-4.6308,-4.6308,-4.6308,-4.6308,-4.6308,-4.6308,-4.6308,-4.6308,-4.6308,-4.6308,-4.6308,-4.6308,-4.6308,-4.6308,-4.6308,0.0,0.0,0.0,0.0,0.0,-4.6308,-4.6308,0.0,-4.6308,-4.6308,-4.6308,0.0,0.0,0.0,0.0,-4.6308,0.0,0.0,0.0,0.0,0.0,0.0,0.0,0.0,0.0,0.0,0.0,0.0,0.0,0.0,0.0,-4.6875,-4.8613,-4.8906,0.0,0.0,0.0,-4.875,-4.8359,-4.7129,-4.6308,0.0,-4.6738,-4.7168,-4.7578,-4.8476,-4.918,-4.957,-5.0469,-5.1133,-5.1543,-5.2012,-5.2759,-5.3794,-5.379,-5.3941,-5.4194,-5.373,-5.3749,-5.4194,-5.371,-5.3498,-5.3498,-5.3498,-5.3265,-5.2898,-5.2898,-5.2666,-5.2356,-5.2743,-5.2898,-5.2956,-5.3343,-5.3498,-5.3382,0.0,0.0,0.0,0.0,0.0,0.0,0.0,0.0,0.0,0.0,0.0,0.0,0.0,0.0,0.0,0.0,0.0,0.0,0.0,0.0,0.0,0.0,-4.6308,-4.6308,-4.6308,-4.6308,-4.6308,-4.6308,-4.6308,-4.6308,-4.6308,-4.6308,-4.6308,-4.6308,-4.6308,-4.6308,-4.6308,-4.6308,-4.6308,-4.6308,-4.6308,0.0,0.0,0.0,0.0,0.0,0.0,0.0,0.0,-4.6308,-4.6308,-4.6308,-4.6308,0.0,0.0,0.0,0.0,0.0,0.0,0.0,0.0,0.0,0.0,0.0,0.0,0.0,0.0,0.0,0.0,0.0,0.0,-4.6406,0.0,0.0,0.0,0.0,-5.0117,-4.9453,-4.8574,-4.7695,-4.6836,0.0,-4.6308,-4.6308,-4.6601,-4.7344,-4.7519,-4.793,-4.8652,-4.8828,-4.9238,-4.998,-5.0,-5.0964,-5.2992,-5.3272,-5.3369,-5.3325,-5.3166,-5.3169,-5.3304,-5.3149,-5.3091,-5.3091,-5.3091,-5.2685,-5.1989,-5.1989,-5.1563,-5.0975,-5.1718,-5.1989,-5.2086,-5.2821,-5.3033,-5.2666,0.0,0.0,0.0,0.0,0.0,0.0,0.0,0.0,0.0,0.0,0.0,0.0,0.0,0.0,0.0,0.0,0.0,0.0,0.0,0.0,0.0,-4.6308,-4.6308,-4.6308,-4.6308,-4.6308,-4.6308,-4.6308,-4.6308,-4.6308,-4.6308,-4.6308,-4.6308,-4.6308,-4.6308,-4.6308,-4.6308,-4.6308,-4.6308,-4.6308,-4.6308,0.0,0.0,0.0,0.0,0.0,0.0,0.0,0.0,-4.6308,-4.6308,-4.6308,-4.6308,0.0,0.0,0.0,0.0,0.0,-4.6308,-4.6308,-4.6308,-4.6308,0.0,0.0,0.0,0.0,0.0,0.0,0.0,0.0,0.0,-4.6894,-4.7734,0.0,0.0,-5.082,0.0,0.0,-4.8574,-4.7695,0.0,-4.6308,-4.6308,-4.6308,-4.6367,-4.6484,-4.7187,-4.7656,-4.7793,-4.8496,-4.8965,-4.9101,-4.9101,-4.9214,-4.9486,-5.0881,-5.1906,-5.2473,-5.1683,-5.1699,-5.2364,-5.1641,-5.1304,-5.1304,-5.1304,-5.1207,-5.1091,-5.1091,-5.1014,-5.0917,-5.1053,-5.1091,-5.1111,-5.1246,-5.0867,-5.0035,0.0,0.0,0.0,0.0,0.0,0.0,0.0,0.0,0.0,0.0,0.0,0.0,0.0,0.0,0.0,0.0,0.0,0.0,0.0,0.0,-4.6308,-4.6308,-4.6308,-4.6308,-4.6308,-4.6308,-4.6308,-4.6308,-4.6308,-4.6308,-4.6308,-4.6308,-4.6308,-4.6308,-4.6308,-4.6308,-4.6308,-4.6308,-4.6308,-4.6308,0.0,0.0,0.0,0.0,0.0,0.0,0.0,0.0,0.0,0.0,-4.6308,-4.6308,-4.6308,0.0,0.0,0.0,0.0,0.0,-4.6308,-4.6308,-4.6308,-4.6308,0.0,0.0,0.0,0.0,0.0,0.0,0.0,0.0,0.0,0.0,-4.8047,-4.9375,0.0,-5.0469,-4.9629,-4.875,-4.7871,0.0,0.0,-4.6308,-4.6308,-4.6308,-4.6308,-4.6308,-4.668,-4.6894,-4.6894,-4.7285,-4.7715,-4.8183,-4.8203,-4.8398,-4.8802,-4.9463,-5.0179,-5.0938,-5.047,-5.0693,-5.1486,-5.1072,-5.0898,-5.0898,-5.0898,-5.0898,-5.0898,-5.0898,-5.0898,-5.0898,-5.0898,-5.0627,-5.0183,-4.9726,-4.903,-4.8179,0.0,0.0,0.0,0.0,0.0,0.0,0.0,0.0,0.0,0.0,0.0,0.0,0.0,0.0,0.0,0.0,0.0,0.0,0.0,-4.6308,-4.6308,-4.6308,-4.6308,-4.6308,-4.6308,-4.6308,-4.6308,-4.6308,-4.6308,-4.6308,-4.6308,-4.6308,-4.6308,-4.6308,-4.6308,-4.6308,-4.6308,-4.6308,-4.6308,-4.6308,0.0,0.0,0.0,0.0,0.0,0.0,0.0,0.0,0.0,0.0,0.0,0.0,0.0,0.0,0.0,-4.6308,-4.6308,-4.6308,-4.6308,-4.6308,-4.6308,-4.6308,0.0,0.0,0.0,0.0,0.0,0.0,0.0,0.0,0.0,-4.748,0.0,-5.0234,-5.0312,-4.9902,-4.9023,-4.8144,-4.7285,-4.6406,-4.6308,-4.6308,-4.6308,-4.6308,-4.6308,-4.6308,-4.6308,-4.6308,-4.6308,-4.6308,-4.6601,-4.7266,-4.7305,-4.7617,-4.8281,-4.8113,-4.8518,-4.9521,-4.9445,-4.9726,-5.0299,-5.0299,-5.0434,-5.0608,-5.0608,-5.0608,-5.0608,-5.0608,-5.0492,-5.0299,-5.0299,-4.9939,-4.9301,-4.8411,-4.7676,-4.7076,0.0,0.0,0.0,0.0,0.0,0.0,0.0,0.0,0.0,0.0,0.0,0.0,0.0,0.0,0.0,0.0,0.0,0.0,0.0,-4.6308,-4.6308,-4.6308,-4.6308,-4.6308,-4.6308,-4.6308,-4.6308,-4.6308,-4.6308,-4.6308,-4.6308,-4.6308,-4.6308,-4.6308,-4.6308,-4.6308,-4.6308,-4.6308,-4.6308,-4.6308,-4.6308,0.0,0.0,0.0,0.0,0.0,0.0,0.0,0.0,0.0,0.0,0.0,0.0,0.0,-4.6308,-4.6308,-4.6308,-4.6308,-4.6308,-4.6308,-4.6308,-4.6308,-4.6308,0.0,-4.6308,-4.6308,0.0,-4.6308,0.0,0.0,0.0,-4.8887,-5.0293,-5.1172,-5.0683,-4.9902,-4.9023,0.0,-4.7285,-4.6406,-4.6308,-4.6308,-4.6308,-4.6308,-4.6308,-4.6308,-4.6308,-4.6308,-4.6308,-4.6308,-4.6328,-4.6387,-4.6387,-4.6426,-4.6484,-4.6357,-4.7088,-4.8678,-4.8567,-4.8527,-4.8585,-4.8585,-4.903,-4.9784,-4.9784,-4.9784,-4.9784,-4.9784,-4.932,-4.8585,-4.8585,-4.8546,-4.8392,-4.7502,-4.7154,-4.698,0.0,0.0,0.0,0.0,0.0,0.0,0.0,0.0,0.0,0.0,0.0,0.0,0.0,0.0,0.0,0.0,0.0,0.0,0.0,-4.6308,-4.6308,-4.6308,-4.6308,-4.6308,-4.6308,-4.6308,-4.6308,-4.6308,-4.6308,-4.6308,-4.6308,-4.6308,-4.6308,-4.6308,-4.6308,-4.6308,-4.6308,-4.6308,-4.6308,-4.6308,-4.6308,-4.6308,0.0,0.0,0.0,0.0,0.0,0.0,0.0,0.0,-4.6308,-4.6308,-4.6308,-4.6308,-4.6308,-4.6308,-4.6308,-4.6308,-4.6308,-4.6308,-4.6308,-4.6308,-4.6308,0.0,0.0,-4.6308,-4.6308,-4.6308,-4.6738,0.0,0.0,0.0,-5.0469,-5.1269,-5.0273,-4.9277,-4.8945,-4.7676,-4.668,-4.6348,-4.6308,-4.6308,-4.6308,-4.6308,-4.6308,-4.6308,-4.6308,-4.6308,-4.6308,-4.6308,-4.6308,-4.6308,-4.6308,-4.6308,-4.6308,-4.6162,-4.641,-4.7053,-4.7429,-4.7869,-4.8392,-4.8392,-4.8585,-4.8894,-4.8894,-4.8894,-4.8894,-4.8894,-4.8701,-4.8353,-4.7792,-4.7579,-4.7482,-4.6612,-4.629,-4.6252,0.0,0.0,0.0,0.0,0.0,0.0,0.0,0.0,0.0,0.0,0.0,0.0,0.0,0.0,0.0,0.0,0.0,0.0,-4.6308,-4.6308,-4.6308,-4.6308,-4.6308,-4.6308,-4.6308,-4.6308,-4.6308,-4.6308,-4.6308,-4.6308,-4.6308,-4.6308,-4.6308,-4.6308,-4.6308,-4.6308,-4.6308,-4.6308,-4.6308,-4.6308,-4.6308,-4.6308,0.0,0.0,0.0,0.0,0.0,0.0,0.0,0.0,-4.6308,-4.6308,-4.6308,-4.6308,-4.6308,-4.6308,-4.6308,-4.6308,-4.6308,-4.6308,-4.6308,-4.6308,0.0,0.0,-4.6308,-4.6308,-4.6387,-4.6641,-4.7617,-4.8789,-4.998,0.0,0.0,0.0,-4.998,-4.8906,-4.8906,-4.7402,-4.6308,-4.6308,-4.6308,-4.6308,-4.6308,-4.6308,-4.6308,-4.6308,-4.6308,-4.6308,-4.6308,-4.6308,-4.6308,-4.6308,-4.6308,-4.6289,-4.6267,-4.6153,-4.6087,-4.606,-4.6499,-4.6999,-4.7579,-4.7579,-4.7734,-4.7985,-4.7985,-4.7985,-4.7985,-4.7985,-4.7831,-4.7521,-4.6922,-4.6689,-4.6619,-4.602,-4.5807,-4.5845,0.0,0.0,0.0,0.0,0.0,0.0,0.0,0.0,0.0,0.0,0.0,0.0,0.0,0.0,0.0,0.0,0.0,0.0,-4.6308,-4.6308,-4.6308,-4.6308,-4.6308,-4.6308,-4.6308,-4.6308,-4.6308,-4.6308,-4.6308,-4.6308,-4.6308,-4.6308,-4.6308,-4.6308,-4.6308,-4.6308,-4.6308,-4.6308,-4.6308,-4.6308,-4.6308,-4.6308,-4.6308,0.0,0.0,0.0,0.0,0.0,0.0,0.0,-4.6308,-4.6308,-4.6308,-4.6308,-4.6308,-4.6308,-4.6308,-4.6308,-4.6308,-4.6308,-4.6308,0.0,0.0,0.0,-4.6308,-4.6308,-4.6543,-4.7422,-4.8984,-5.0195,-5.0215,-5.0859,0.0,-5.1406,-4.998,-4.8906,-4.8906,-4.7402,-4.6308,-4.6308,-4.6308,-4.6308,-4.6308,-4.6308,-4.6308,-4.6308,-4.6308,-4.6308,-4.6308,-4.6308,-4.6308,-4.6308,-4.6308,-4.6267,-4.6202,-4.6134,-4.608,-4.5997,-4.5854,-4.5807,-4.5807,-4.5807,-4.6271,-4.7096,-4.7096,-4.7096,-4.7096,-4.7096,-4.6581,-4.5807,-4.5807,-4.5807,-4.5807,-4.5807,-4.5807,-4.5942,0.0,0.0,0.0,0.0,0.0,0.0,0.0,0.0,0.0,0.0,0.0,0.0,0.0,0.0,0.0,0.0,0.0,0.0,-4.6308,-4.6308,-4.6308,-4.6308,-4.6308,-4.6308,-4.6308,-4.6308,-4.6308,-4.6308,-4.6308,-4.6308,-4.6308,-4.6308,-4.6308,-4.6308,-4.6308,-4.6308,-4.6308,-4.6308,-4.6308,-4.6308,-4.6308,-4.6308,-4.6308,0.0,0.0,0.0,0.0,0.0,0.0,0.0,0.0,0.0,-4.6308,-4.6308,-4.6308,-4.6308,-4.6308,-4.6308,-4.6308,-4.6308,0.0,-4.6308,0.0,0.0,0.0,-4.6308,0.0,0.0,-4.9414,-5.0371,-5.0937,-5.123,0.0,-5.1406,-4.998,-4.8906,-4.8906,-4.7402,-4.6308,-4.6308,-4.6308,-4.6308,-4.6308,-4.6308,-4.6308,-4.6308,-4.6308,-4.6308,-4.6308,-4.6308,-4.6308,-4.6308,-4.6244,-4.6213,-4.6202,-4.6084,-4.6013,-4.5997,-4.5854,-4.5807,-4.5807,-4.5807,-4.5942,-4.6194,-4.6194,-4.6194,-4.6194,-4.6194,-4.6039,-4.5807,-4.5807,-4.5807,-4.5807,-4.5807,-4.6194,-4.6748,0.0,0.0,0.0,0.0,0.0,0.0,0.0,0.0,0.0,0.0,-4.6308,0.0,0.0,0.0,0.0,0.0,0.0,0.0,0.0,-4.6308,-4.6308,-4.6308,-4.6308,-4.6308,-4.6308,-4.6308,-4.6308,-4.6308,-4.6308,-4.6308,-4.6308,-4.6308,-4.6308,-4.6308,-4.6308,-4.6308,-4.6308,-4.6308,-4.6308,-4.6308,-4.6308,-4.6308,-4.6308,0.0,0.0,0.0,0.0,0.0,0.0,0.0,0.0,0.0,-4.6308,-4.6308,-4.6308,-4.6308,-4.6308,-4.6308,-4.6308,-4.6308,0.0,-4.6308,-4.6308,-4.6308,-4.6308,0.0,0.0,0.0,-4.9844,-5.082,-5.1308,-5.1406,0.0,-5.1406,-5.0273,-4.9414,-4.9414,-4.793,-4.6816,-4.6816,-4.6504,-4.6445,-4.6777,-4.6816,-4.6953,-4.7305,-4.7324,-4.7324,-4.7324,-4.6992,-4.6816,-4.6816,-4.6413,-4.6195,-4.6158,-4.6044,-4.5975,-4.5929,-4.5848,-4.5807,-4.5807,-4.5807,-4.5807,-4.5807,-4.5807,-4.5807,-4.5807,-4.5807,-4.5807,-4.5807,-4.5807,-4.5807,-4.5807,-4.5807,-4.6348,-4.7154,0.0,0.0,0.0,0.0,0.0,0.0,0.0,0.0,0.0,0.0,-4.6308,0.0,0.0,0.0,0.0,0.0,0.0,0.0,0.0,0.0,-4.6308,-4.6308,-4.6308,-4.6308,-4.6308,-4.6308,-4.6308,-4.6308,-4.6308,-4.6308,-4.6308,-4.6308,-4.6308,-4.6308,-4.6308,-4.6308,-4.6308,-4.6308,-4.6308,-4.6308,-4.6308,-4.6308,-4.6308,-4.6308,0.0,0.0,0.0,0.0,0.0,0.0,0.0,0.0,-4.6308,-4.6308,-4.6308,-4.6308,-4.6308,-4.6308,-4.6308,0.0,0.0,-4.6308,-4.6308,0.0,-4.6308,-4.7656,-4.8906,-4.8906,0.0,-5.1406,-5.1406,-5.1406,-5.1406,-5.1406,-5.0723,-5.0195,-5.0195,-4.8769,-4.7715,-4.7715,-4.7012,-4.6855,-4.7637,-4.7715,-4.8047,-4.8848,-4.8906,-4.8906,-4.8906,-4.8144,-4.7715,-4.7695,-4.6878,-4.6389,-4.6321,-4.6251,-4.6162,-4.6039,-4.6039,-4.6039,-4.6039,-4.5865,-4.5807,-4.5807,-4.5807,-4.5807,-4.5807,-4.5807,-4.5807,-4.5807,-4.5807,-4.5807,-4.5807,-4.5807,-4.6406,-4.7328,0.0,0.0,0.0,0.0,0.0,0.0,0.0,0.0,0.0,0.0,0.0,0.0,0.0,0.0,0.0,0.0,0.0,0.0,0.0,0.0,-4.6308,-4.6308,-4.6308,-4.6308,-4.6308,-4.6308,-4.6308,-4.6308,-4.6308,-4.6308,-4.6308,-4.6308,-4.6308,-4.6308,-4.6308,-4.6308,-4.6308,-4.6308,-4.6308,-4.6308,-4.6308,-4.6308,-4.6308,-4.6308,-4.6308,0.0,0.0,0.0,0.0,0.0,0.0,0.0,-4.6308,-4.6308,-4.6308,-4.6308,-4.6308,-4.6308,0.0,-4.6308,0.0,0.0,-4.6308,-4.6308,-4.6308,-4.7656,-4.8906,-4.8906,-5.0234,-5.1406,-5.1406,-5.1406,-5.1406,-5.1406,-5.0723,-5.0195,-5.0195,-4.9297,-4.8613,-4.8613,-4.8457,-4.8418,-4.8594,-4.8613,-4.8691,-4.8887,-4.8906,-4.8906,-4.8906,-4.8711,-4.8572,-4.8476,-4.8218,-4.8051,-4.7985,-4.7928,-4.7867,-4.7831,-4.7831,-4.7831,-4.7792,-4.6426,-4.5807,-4.5807,-4.5807,-4.5807,-4.5807,-4.5807,-4.5807,-4.5807,-4.5807,-4.5807,-4.5807,-4.5807,-4.6786,-4.814,0.0,0.0,0.0,0.0,0.0,0.0,0.0,0.0,0.0,0.0,0.0,0.0,0.0,0.0,0.0,0.0,0.0,0.0,0.0,0.0,-4.6308,-4.6308,-4.6308,-4.6308,-4.6308,-4.6308,-4.6308,-4.6308,-4.6308,-4.6308,-4.6308,-4.6308,-4.6308,-4.6308,-4.6308,-4.6308,-4.6308,-4.6308,-4.6308,-4.6308,-4.6308,-4.6308,-4.6308,-4.6308,-4.6308,-4.6308,-4.6308,0.0,0.0,0.0,0.0,0.0,0.0,0.0,-4.6308,-4.6308,-4.6308,0.0,0.0,0.0,0.0,-4.6308,0.0,-4.6308,-4.6308,-4.6992,-4.7773,-4.8183,-4.9941,-5.1406,-5.1406,-5.1406,-5.1406,-5.1406,-5.1055,-5.0762,-5.0762,-5.0058,-4.9512,-4.9512,-4.9141,-4.9062,-4.9473,-4.9512,-4.9687,-5.0078,-5.0098,-5.0098,-5.0098,-4.9726,-4.947,-4.9323,-4.8844,-4.8567,-4.8491,-4.8424,-4.8392,-4.8392,-4.8392,-4.8392,-4.8353,-4.7018,-4.6426,-4.6406,-4.5981,-4.5807,-4.5807,-4.5807,-4.5807,-4.5807,-4.5807,-4.5807,-4.5807,-4.5807,-4.6631,-4.7831,0.0,0.0,0.0,0.0,0.0,0.0,0.0,0.0,0.0,0.0,0.0,0.0,0.0,0.0,0.0,0.0,0.0,0.0,0.0,0.0,0.0,-4.6308,-4.6308,-4.6308,-4.6308,-4.6308,-4.6308,-4.6308,-4.6308,-4.6308,-4.6308,-4.6308,-4.6308,-4.6308,-4.6308,-4.6308,-4.6308,-4.6308,-4.6308,-4.6308,-4.6308,-4.6308,-4.6308,-4.6308,-4.6308,-4.6308,-4.6308,-4.6308,-4.6308,-4.6308,0.0,0.0,0.0,0.0,-4.6308,-4.6308,-4.6308,0.0,0.0,0.0,-4.6269,-4.6113,-4.6074,0.0,-4.5898,-4.5976,-4.6289,-4.6992,-4.9062,-5.084,-5.1133,-5.1191,-5.123,-5.1387,-5.1406,-5.1406,-5.1406,-5.082,-5.041,-5.041,-4.9766,-4.9609,-5.0332,-5.041,-5.0683,-5.1348,-5.1406,-5.1406,-5.1406,-5.0762,-5.0347,-5.0211,-4.9442,-4.9006,-4.8928,-4.8856,-4.8836,-4.8836,-4.8836,-4.8836,-4.8798,-4.7947,-4.7463,-4.727,-4.6406,-4.602,-4.602,-4.5865,-4.5807,-4.5807,-4.5807,-4.5807,-4.5807,-4.5807,-4.6348,-4.7212,0.0,0.0,0.0,0.0,0.0,0.0,0.0,0.0,0.0,0.0,-4.6308,0.0,0.0,0.0,0.0,0.0,0.0,0.0,0.0,0.0,0.0,-4.6308,-4.6308,-4.6308,-4.6308,-4.6308,-4.6308,-4.6308,-4.6308,-4.6308,-4.6308,-4.6308,-4.6308,-4.6308,-4.6308,-4.6308,-4.6308,-4.6308,-4.6308,-4.6308,-4.6308,-4.6308,-4.6308,-4.6308,-4.6308,-4.6308,-4.6308,-4.6308,-4.6308,-4.6308,-4.6308,0.0,0.0,0.0,-4.6308,-4.6308,-4.6308,0.0,0.0,0.0,-4.6113,0.0,-4.5176,-4.498,0.0,0.0,-4.5215,0.0,-4.6816,-4.8574,-5.0078,-5.0351,-5.0586,-5.1289,-5.1406,-5.1406,-5.1406,-5.1308,-5.123,-5.123,-5.1133,-5.1113,-5.123,-5.123,-5.1289,-5.1387,-5.1406,-5.1406,-5.1406,-5.1308,-5.1181,-5.1046,-5.0915,-5.0763,-5.0588,-5.0565,-5.0569,-5.0569,-5.0569,-5.0569,-5.0531,-4.9726,-4.8933,-4.8179,-4.7289,-4.6922,-4.6864,-4.6116,-4.5807,-4.5807,-4.5807,-4.5807,-4.5807,-4.5807,-4.6348,-4.7212,0.0,0.0,0.0,0.0,0.0,0.0,0.0,0.0,0.0,0.0,0.0,-4.6308,0.0,0.0,0.0,0.0,0.0,0.0,0.0,0.0,0.0,-4.6308,-4.6308,-4.6308,-4.6308,-4.6308,-4.6308,-4.6308,-4.6306,-4.6305,-4.6306,-4.6307,-4.6308,-4.6308,-4.6308,-4.6308,-4.6308,-4.6308,-4.6308,-4.6308,-4.6308,-4.6308,-4.6308,-4.6308,-4.6308,-4.6308,-4.6308,-4.6308,-4.6308,-4.6308,-4.6308,-4.6308,-4.6308,0.0,0.0,0.0,-4.6308,0.0,-4.5703,-4.5566,-4.5351,0.0,-4.4277,-4.418,-4.3789,0.0,-4.3672,-4.418,-4.4492,-4.5527,-4.8242,-4.873,-4.9023,-4.9863,-5.041,-5.0723,-5.0723,-5.1113,-5.1406,-5.1406,-5.1406,-5.1406,-5.1406,-5.1406,-5.1406,-5.1406,-5.1406,-5.1406,-5.1406,-5.1406,-5.1335,-5.1207,-5.1203,-5.1108,-5.0906,-5.0898,-5.0898,-5.0898,-5.0898,-5.0898,-5.0898,-5.0531,-4.9919,-4.9088,-4.8217,-4.7831,-4.7753,-4.6883,-4.6542,-4.6484,-4.6,-4.5807,-4.5807,-4.5807,-4.6039,-4.6503,0.0,0.0,0.0,0.0,0.0,0.0,0.0,0.0,0.0,0.0,0.0,0.0,0.0,0.0,0.0,0.0,0.0,0.0,0.0,0.0,0.0,0.0,0.0,-4.6308,-4.6308,-4.6307,-4.6306,-4.6306,-4.6302,-4.6301,-4.6301,-4.6304,-4.6307,-4.6308,-4.6308,-4.6308,-4.6308,-4.6308,-4.6308,-4.6308,-4.6308,-4.6308,-4.6308,-4.6308,-4.6308,-4.6308,-4.6308,-4.6308,-4.6308,-4.6308,-4.6308,-4.6308,-4.6308,-4.6308,0.0,0.0,0.0,0.0,0.0,0.0,-4.4453,-4.3594,-4.3379,-4.332,0.0,0.0,-4.2285,0.0,-4.2558,-4.2949,-4.5762,-4.6816,-4.7558,-4.8437,-4.9297,-4.9863,-4.9863,-5.0391,-5.0762,-5.0762,-5.0957,-5.1094,-5.1094,-5.1289,-5.1406,-5.1406,-5.1406,-5.1406,-5.1406,-5.1386,-5.1328,-5.1207,-5.1178,-5.1095,-5.0906,-5.0898,-5.0898,-5.0898,-5.0898,-5.0898,-5.0898,-5.0898,-5.0569,-4.9958,-4.9107,-4.874,-4.8662,-4.7792,-4.7424,-4.7366,-4.6709,-4.6464,-4.6464,-4.6464,-4.6464,-4.66,0.0,0.0,0.0,0.0,0.0,0.0,0.0,0.0,0.0,0.0,0.0,0.0,-4.6308,-4.6308,-4.6308,-4.6308,0.0,0.0,0.0,0.0,0.0,0.0,0.0,0.0,-4.6302,-4.6302,-4.6302,-4.6302,-4.6296,-4.6296,-4.6301,-4.6296,-4.6301,-4.6307,-4.6308,-4.6308,-4.6308,-4.6308,-4.6308,-4.6308,-4.6308,-4.6308,-4.6308,-4.6308,-4.6308,-4.6308,-4.6308,-4.6308,-4.6308,-4.6308,-4.6308,-4.6308,-4.6308,-4.6308,-4.6308,0.0,0.0,0.0,0.0,-4.3769,0.0,-4.2695,0.0,0.0,0.0,0.0,0.0,-4.1328,-4.1289,-4.1543,-4.25,-4.4707,-4.6641,-4.7539,-4.8398,-4.8965,-4.8965,-4.9004,-4.9023,-4.9023,-4.9766,-5.0254,-5.0254,-5.0957,-5.1406,-5.1406,-5.1406,-5.1406,-5.1406,-5.1337,-5.1277,-5.1203,-5.1132,-5.1043,-5.0898,-5.0898,-5.0898,-5.0898,-5.0898,-5.0898,-5.0898,-5.0898,-5.0879,-5.0782,-4.9977,-4.9629,-4.9571,-4.8682,-4.8333,-4.8333,-4.8275,-4.8256,-4.8256,-4.8256,-4.8256,-4.8392,0.0,0.0,0.0,0.0,0.0,0.0,0.0,0.0,0.0,0.0,0.0,0.0,0.0,-4.6308,-4.6308,-4.6306,-4.6306,0.0,0.0,0.0,0.0,0.0,0.0,0.0,-4.6301,-4.6299,-4.6296,-4.6296,-4.6309,-4.6306,-4.6309,-4.6293,-4.6297,-4.6304,-4.6307,-4.6308,-4.6308,-4.6308,-4.6308,-4.6308,-4.6308,-4.6308,-4.6308,-4.6308,-4.6308,-4.6308,-4.6308,-4.6308,-4.6308,-4.6308,-4.6308,-4.6308,-4.6308,-4.5918,-4.5351,-4.4805,-4.4414,0.0,0.0,0.0,0.0,-4.1836,-4.1621,-4.1543,-4.1269,-4.1191,-4.1191,-4.1191,-4.1191,-4.1289,-4.1582,-4.2812,-4.4082,-4.4961,-4.6308,-4.7226,-4.7226,-4.8183,-4.8906,-4.8906,-4.9179,-4.9374,-4.9373,-4.9626,-5.0016,-5.0524,-5.0604,-5.0859,-5.1366,-5.1333,-5.1274,-5.1203,-5.1127,-5.1037,-5.0898,-5.0898,-5.0898,-5.0898,-5.0898,-5.0898,-5.0898,-5.0898,-5.0898,-5.0879,-5.0589,-5.0473,-5.0415,-4.9591,-4.9223,-4.9184,-4.8624,-4.8392,-4.8392,-4.8392,-4.8392,-4.843,0.0,0.0,0.0,0.0,0.0,0.0,0.0,0.0,0.0,-4.6308,0.0,0.0,0.0,0.0,-4.6307,-4.6302,-4.6301,-4.6301,-4.63,-4.63,0.0,0.0,0.0,0.0,0.0,-4.6018,-4.6015,-4.6309,-4.601,-4.6007,-4.63,-4.6309,-4.6296,-4.6301,-4.6306,-4.6308,-4.6308,-4.6308,-4.6308,-4.6308,-4.6308,-4.6308,-4.6308,-4.6308,-4.6308,-4.6269,-4.5976,-4.5859,-4.582,-4.5527,-4.543,-4.543,-4.543,-4.5039,-4.4394,-4.3516,-4.3262,0.0,-4.2226,0.0,0.0,0.0,0.0,-4.1191,-4.1191,0.0,-4.1191,-4.1191,-4.1191,-4.1191,-4.1191,-4.1641,-4.2285,-4.3125,-4.4473,-4.543,-4.5429,-4.6425,-4.7148,-4.7146,-4.7673,-4.8023,-4.8021,-4.8568,-4.9114,-4.966,-4.9742,-5.0093,-5.0889,-5.0879,-5.0913,-5.1088,-5.1062,-5.099,-5.0898,-5.0898,-5.0898,-5.0898,-5.0898,-5.0898,-5.0898,-5.0898,-5.0898,-5.0898,-5.0898,-5.0898,-5.0859,-5.0318,-5.0113,-5.0055,-4.9475,-4.9243,-4.9243,-4.9243,-4.9243,-4.9243,0.0,0.0,0.0,0.0,0.0,0.0,0.0,0.0,-4.6307,-4.6307,0.0,0.0,0.0,0.0,0.0,-4.6301,-4.6301,-4.63,-4.6293,-4.6293,0.0,0.0,0.0,0.0,-4.63,-4.548,-4.5441,-4.63,-4.5441,-4.546,-4.6302,-4.6309,-4.6296,-4.6302,-4.6267,-4.6269,-4.6269,-4.6269,-4.625,-4.6211,-4.6211,-4.6211,-4.6211,-4.6211,-4.6211,-4.6113,-4.5273,-4.4961,-4.4824,-4.3984,-4.3691,-4.3691,-4.3672,-4.3652,-4.3496,-4.2617,-4.2363,-4.2187,0.0,0.0,0.0,0.0,0.0,0.0,-4.1191,0.0,-4.1191,-4.1191,-4.1191,-4.1191,-4.1191,-4.1191,-4.1445,-4.2246,-4.3086,-4.3652,-4.3651,-4.3689,-4.3708,-4.3706,-4.5188,-4.6223,-4.6223,-4.7786,-4.8802,-4.8821,-4.8841,-4.9184,-4.9913,-4.9905,-5.0162,-5.0828,-5.0859,-5.0879,-5.0898,-5.0898,-5.0898,-5.0898,-5.0898,-5.0898,-5.0898,-5.0898,-5.0898,-5.0898,-5.0898,-5.0898,-5.0898,-5.0898,-5.0898,-5.0898,-5.0898,-5.0898,-5.0898,-5.0898,-5.0898,-5.089,0.0,0.0,0.0,0.0,0.0,0.0,-4.6305,-4.6304,-4.6303,0.0,0.0,0.0,-4.6296,-4.6291,-4.629,-4.6295,-4.6291,-4.6306,-4.6305,-4.6305,-4.6303,-4.63,-4.63,-4.63,-4.63,-4.6066,-4.6066,-4.63,-4.6066,-4.6069,-4.6309,-4.6293,-4.6299,-4.6267,-4.5642,-4.5351,-4.5351,-4.5351,-4.5,-4.4414,-4.4414,-4.4414,-4.4414,-4.4414,-4.4414,-4.4394,-4.4141,-4.4062,-4.4023,-4.3789,-4.3691,-4.3594,-4.2969,-4.2754,-4.2598,-4.1777,-4.1523,-4.1484,-4.1269,0.0,0.0,0.0,0.0,0.0,0.0,0.0,-4.1191,-4.1191,-4.1191,-4.1191,-4.1191,-4.1191,-4.1269,-4.1425,-4.2186,-4.2753,-4.2752,-4.3298,-4.3705,-4.37,-4.4129,-4.442,-4.4414,-4.5429,-4.6347,0.0,-4.7602,-4.8275,-4.9012,-4.8943,-4.9245,-5.0016,-5.0035,-5.0299,-5.0898,-5.0898,-5.0898,-5.0898,-5.0898,-5.0898,-5.0898,-5.0898,-5.0898,-5.0898,-5.0898,-5.0898,-5.0898,-5.0898,-5.0898,-5.0898,-5.0898,-5.0898,-5.0898,-5.0898,-5.0901,-5.0897,0.0,0.0,0.0,0.0,0.0,-4.6301,-4.6301,-4.63,-4.6299,0.0,0.0,0.0,-4.6308,-4.6306,-4.6308,-4.6293,-4.6291,-4.6291,-4.6291,-4.6291,-4.6309,-4.6306,-4.6306,-4.6306,-4.6306,-4.5934,-4.5934,-4.6306,-4.5938,-4.594,-4.6293,-4.6299,-4.6108,-4.574,-4.5233,-4.4609,-4.3926,-4.3926,-4.3828,-4.3691,-4.3691,-4.3691,-4.3691,-4.3691,-4.3691,-4.3652,-4.3281,-4.3164,-4.3105,-4.2773,-4.2656,-4.2578,-4.2051,-4.1894,-4.1816,-4.1348,-4.1191,-4.1191,-4.1191,-4.1191,-4.1191,-4.1191,0.0,0.0,-4.1191,-4.1191,-4.1191,0.0,-4.1191,-4.1191,-4.1191,-4.1172,-4.1152,-4.1112,-4.1539,-4.1869,-4.1869,-4.2297,-4.2625,-4.2619,-4.293,-4.3163,-4.3157,-4.3957,-4.466,-4.5187,-4.5978,-4.6894,-4.7981,-4.8275,-4.8621,-4.9104,-4.9123,-4.9537,-5.0395,-5.0395,-5.0569,-5.0898,-5.0898,-5.0898,-5.0898,-5.055,-5.0395,-5.0376,-5.0008,-4.9861,-4.9873,-5.0225,-5.0565,-5.0893,-5.0893,-5.0885,-5.085,-5.085,-5.0852,-5.0855,0.0,0.0,-4.6294,-4.63,-4.63,-4.63,-4.63,-4.6295,-4.6291,0.0,-4.6305,-4.6302,-4.6302,-4.6308,-4.6291,-4.6291,-4.6297,-4.63,-4.63,-4.63,-4.6297,-4.6293,-4.6291,-4.6291,-4.6291,-4.5549,-4.551,-4.6291,-4.5516,-4.5536,-4.6294,-4.6206,-4.574,-4.4999,-4.4804,-4.3848,-4.2383,-4.2305,-4.2715,-4.3418,-4.3418,-4.3418,-4.3418,-4.3418,-4.3418,-4.332,-4.2539,-4.2266,-4.2148,-4.1425,-4.1191,-4.1191,-4.1191,-4.1191,-4.1191,-4.1191,-4.1191,-4.1191,-4.1191,-4.1191,-4.1191,-4.1191,-4.1171,0.0,-4.1171,-4.1171,-4.1171,-4.1171,-4.1172,-4.1191,-4.1191,-4.1132,-4.1091,-4.1091,-4.1105,-4.1098,-4.1098,-4.1098,-4.1095,-4.1109,-4.1771,-4.2259,-4.2259,-4.304,-4.3548,-4.3542,-4.4306,-4.5361,-4.6758,-4.7585,-4.805,-4.8149,-4.8156,-4.8597,-4.9544,-4.9537,-4.9943,-5.0755,-5.0755,-5.0755,-5.0735,-5.0001,-4.9641,-4.9513,-4.8732,-4.8384,-4.8442,-4.9158,-4.9972,-5.0772,-5.0861,-5.0855,-5.081,-5.0801,-5.0793,-5.0764,0.0,0.0,-4.6303,-4.6305,-4.6305,-4.6305,-4.6305,-4.6305,-4.6303,-4.6303,-4.6302,-4.6303,-4.629,-4.6306,-4.6303,-4.6303,-4.6305,-4.6305,-4.6305,-4.6305,-4.6305,-4.6303,-4.6303,-4.6303,-4.6303,-4.6128,-4.6128,-4.6303,-4.6129,-4.6135,-4.6281,-4.5579,-4.5153,-4.4941,-4.3535,-4.2715,-4.2363,-4.1719,-4.1523,-4.1699,-4.1699,-4.1699,-4.1699,-4.1699,-4.1699,-4.168,-4.1504,-4.1403,-4.1332,-4.1176,-4.1117,-4.1121,-4.1171,-4.1191,-4.1191,-4.1191,-4.1191,-4.1191,-4.1191,-4.1191,-4.1191,-4.1122,-4.1073,0.0,-4.0964,-4.1001,-4.1039,0.0,-4.108,-4.1129,-4.1129,-4.1108,-4.1107,-4.1102,-4.11,-4.1098,-4.1098,-4.1094,-4.1091,-4.1109,-4.1246,-4.1343,-4.1343,-4.2142,-4.2637,-4.2579,-4.3816,-4.4718,-4.5067,-4.5796,-4.6524,-4.7221,-4.724,-4.7689,-4.8559,-4.8565,-4.901,-4.9853,-4.9801,-4.9801,-4.9845,-4.9647,-4.9219,-4.8643,-4.8419,-4.8314,-4.8319,-4.8491,-4.9095,-4.9993,-5.0585,-5.0846,-5.0863,-5.081,-5.0775,-5.0633,0.0,-4.6007,-4.63,-4.63,-4.63,-4.63,-4.63,-4.63,-4.63,-4.63,-4.6305,-4.6306,-4.6306,-4.6291,-4.6291,-4.6308,-4.6291,-4.6293,-4.6293,-4.6293,-4.6291,-4.6306,-4.6306,-4.6306,-4.6306,-4.6306,-4.6306,-4.6306,-4.6291,-4.6079,-4.5634,-4.5209,-4.4547,-4.3671,-4.2793,-4.2168,-4.1738,-4.1367,-4.1191,-4.1191,-4.1191,-4.1191,-4.1191,-4.1191,-4.1171,-4.1146,-4.1146,-4.1112,-4.1061,-4.1083,-4.1076,-4.1066,-4.1121,-4.1139,-4.1108,-4.1108,-4.1108,-4.1108,-4.1108,-4.1108,-4.1083,-4.1064,-4.1008,0.0,0.0,-4.0903,-4.0896,-4.0896,-4.0922,-4.0959,-4.0959,-4.0955,-4.095,-4.0942,-4.1015,-4.1044,-4.1044,-4.108,-4.1109,-4.1109,-4.1109,-4.1109,-4.1109,-4.146,-4.1802,-4.2087,-4.278,-4.3575,-4.4406,-4.4812,-4.5415,-4.6331,-4.6351,-4.6772,-4.765,-4.7645,-4.8089,-4.8944,-4.8919,-4.8919,-4.8944,-4.8475,-4.8047,-4.7674,-4.7209,-4.6989,-4.7024,-4.7439,-4.7907,-4.8466,-4.9684,-5.014,-5.0198,-5.0604,-5.0461,-4.999,-4.4797,-4.5578,-4.6105,-4.6261,-4.63,-4.63,-4.63,-4.63,-4.6302,-4.6303,-4.6282,-4.6259,-4.6253,-4.6239,-4.622,-4.6212,-4.6218,-4.6227,-4.6252,-4.6252,-4.6272,-4.6291,-4.6291,-4.6291,-4.6291,-4.6291,-4.6291,-4.6291,-4.6121,-4.5691,-4.4984,-4.4662,-4.3746,-4.2397,-4.2204,-4.1756,-4.1112,-4.1151,-4.1171,-4.1171,-4.1171,-4.1191,-4.1191,-4.1191,-4.1146,-4.1108,-4.1072,-4.1039,-4.0981,-4.1033,-4.1037,-4.0984,-4.1064,-4.1033,-4.099,-4.099,-4.099,-4.099,-4.099,-4.099,-4.0987,-4.097,-4.105,-4.1108,0.0,0.0,0.0,-4.1051,0.0,0.0,0.0,0.0,0.0,0.0,0.0,0.0,0.0,-4.0805,0.0,-4.1108,-4.1083,-4.1078,-4.1078,-4.1003,-4.1144,-4.1635,-4.1809,-4.2454,-4.3748,-4.4124,-4.4641,-4.5415,-4.5588,-4.6018,-4.6733,-4.6744,-4.7169,-4.8026,-4.8037,-4.8037,-4.8006,-4.7304,-4.6907,-4.6711,-4.6,-4.5684,-4.575,-4.6386,-4.6684,-4.6891,-4.8582,-4.9201,-4.9259,-4.9942,-4.974,-4.9125,-4.4678,-4.5088,-4.5382,-4.6163,-4.63,-4.63,-4.63,-4.63,-4.6303,-4.6291,-4.6194,-4.6122,-4.6114,-4.6025,-4.5945,-4.5945,-4.5945,-4.6005,-4.6115,-4.6118,-4.6181,-4.628,-4.6302,-4.6302,-4.6302,-4.6302,-4.6302,-4.6302,-4.5521,-4.5095,-4.4965,-4.3424,-4.259,-4.2361,-4.1537,-4.1175,-4.1172,-4.1077,-4.1067,-4.1114,-4.1114,-4.1145,-4.1191,-4.1122,-4.1112,-4.1081,-4.0976,-4.0915,-4.0906,-4.0915,-4.0915,-4.092,-4.0981,-4.1016,-4.099,-4.099,-4.099,-4.099,-4.099,-4.099,-4.097,-4.0854,-4.1348,-4.1862,-4.1807,0.0,-4.2705,-4.1924,0.0,0.0,0.0,0.0,0.0,0.0,0.0,0.0,-3.8824,-3.9894,-4.0901,-4.1081,-4.1054,-4.1003,-4.1003,-4.0844,-4.0769,-4.0835,-4.1441,-4.1889,-4.2066,-4.3489,-4.4363,-4.4459,-4.5218,-4.5678,-4.5844,-4.5783,-4.6206,-4.706,-4.7064,-4.7064,-4.706,-4.6959,-4.6512,-4.5835,-4.5684,-4.5648,-4.5701,-4.5736,-4.5757,-4.5939,-4.7595,-4.8296,-4.8342,-4.8374,-4.8336,-4.8144,-4.3255,-4.4307,-4.5129,-4.548,-4.5968,-4.63,-4.63,-4.6221,-4.6184,-4.6189,-4.6075,-4.5985,-4.5981,-4.593,-4.5901,-4.5905,-4.5899,-4.592,-4.5983,-4.5987,-4.6005,-4.6061,-4.6061,-4.6061,-4.6061,-4.6061,-4.585,-4.5367,-4.503,-4.4387,-4.3422,-4.2687,-4.2067,-4.1579,-4.1087,-4.0925,-4.0972,-4.0959,-4.0956,-4.0983,-4.1028,-4.1064,-4.1078,-4.1059,-4.1011,-4.0963,-4.0873,-4.0834,-4.0846,-4.0888,-4.0868,-4.0851,-4.0915,-4.093,-4.0883,-4.0883,-4.0883,-4.0883,-4.0883,-4.0883,-4.0985,-4.1385,-4.1718,-4.2066,-4.2555,-4.2919,-4.3046,-4.2668,0.0,0.0,0.0,0.0,0.0,0.0,-4.0556,0.0,0.0,0.0,-4.0822,-4.0912,0.0,0.0,-4.083,-4.0759,-4.0662,-4.0581,-4.0873,-4.1277,-4.1769,-4.247,-4.3297,-4.4259,-4.4643,-4.5103,-4.564,-4.5603,-4.5776,-4.6151,-4.6152,-4.6152,-4.6151,-4.6152,-4.5958,-4.5646,-4.5612,-4.5622,-4.564,-4.5603,-4.5594,-4.5671,-4.6374,-4.6989,-4.7498,-4.7942,-4.7798,-4.7355,-4.1927,-4.3255,-4.4444,-4.4912,-4.5519,-4.6003,-4.6206,-4.6135,-4.6049,-4.6049,-4.594,-4.5878,-4.5875,-4.5844,-4.5826,-4.5821,-4.5821,-4.5834,-4.5869,-4.5875,-4.577,-4.5574,-4.5788,-4.5691,-4.5225,-4.5458,-4.5166,-4.4336,-4.4148,-4.344,-4.2236,-4.1997,-4.1549,-4.0948,-4.082,-4.0784,-4.08,-4.0828,-4.0848,-4.0852,-4.0926,-4.0945,-4.0953,-4.0972,-4.0932,-4.0872,-4.0827,-4.0797,-4.0809,-4.0856,-4.0829,-4.0809,-4.0862,-4.0848,-4.0797,-4.0797,-4.0797,-4.0797,-4.0797,-4.0958,-4.1261,-4.1828,-4.2276,-4.2757,-4.3354,-4.3654,-4.372,-4.347,-4.3431,0.0,0.0,0.0,0.0,0.0,0.0,-4.0829,0.0,-4.055,0.0,0.0,0.0,0.0,0.0,-4.0642,-4.0595,-4.0504,-4.0496,-4.0785,-4.1412,-4.1681,-4.247,-4.3932,-4.4182,-4.472,-4.5594,-4.5594,-4.5594,-4.5594,-4.5594,-4.5594,-4.5594,-4.5594,-4.5594,-4.5594,-4.5594,-4.5594,-4.5594,-4.5594,-4.5594,-4.5594,-4.5594,-4.599,-4.6605,-4.7201,-4.7048,-4.6547,-4.1148,-4.1869,-4.3021,-4.4717,-4.501,-4.5271,-4.5995,-4.5992,-4.591,-4.591,-4.5841,-4.5794,-4.5794,-4.5692,-4.5612,-4.5612,-4.5612,-4.5668,-4.578,-4.5794,-4.5486,-4.4778,-4.5477,-4.5147,-4.3525,-4.4317,-4.4317,-4.3447,-4.2597,-4.2169,-4.2092,-4.1247,-4.0829,-4.0807,-4.0721,-4.0747,-4.0793,-4.0723,-4.0715,-4.0721,-4.078,-4.0807,-4.0802,-4.0873,-4.0867,-4.0803,-4.0797,-4.0797,-4.0797,-4.0803,-4.0797,-4.0797,-4.0803,-4.0797,-4.0797,-4.0797,-4.0797,-4.0797,-4.0797,-4.1364,-4.1942,-4.1907,-4.3115,-4.4309,-4.4275,-4.4921,-4.5287,-4.4432,-4.4259,-4.4028,-4.3239,-4.3085,0.0,0.0,0.0,0.0,0.0,0.0,0.0,0.0,0.0,0.0,0.0,-4.0504,-4.0504,-4.0496,-4.0496,-4.0516,-4.0535,-4.1335,-4.222,-4.3104,-4.3893,-4.472,-4.5594,-4.5594,-4.5594,-4.5594,-4.5594,-4.5594,-4.5594,-4.5594,-4.5594,-4.5594,-4.5594,-4.5594,-4.5594,-4.5594,-4.5594,-4.5594,-4.5594,-4.5614,-4.5633,-4.5671,-4.5671,-4.5633,-4.1033,-4.1278,-4.1844,-4.3017,-4.3699,-4.4319,-4.5062,-4.5556,-4.5628,-4.5047,-4.488,-4.46,-4.406,-4.3973,-4.3951,-4.3951,-4.3951,-4.3957,-4.4002,-4.4503,-4.4457,-4.368,-4.4414,-4.4317,-4.3224,-4.3494,-4.3204,-4.2335,-4.2099,-4.1695,-4.1172,-4.0876,-4.0726,-4.0732,-4.0616,-4.0589,-4.0604,-4.0616,-4.0622,-4.0648,-4.0707,-4.0726,-4.0746,-4.0814,-4.0814,-4.0797,-4.0797,-4.0797,-4.0797,-4.0797,-4.0797,-4.0797,-4.0797,-4.0797,-4.079,-4.0746,-4.0739,-4.0713,-4.0674,-4.0873,-4.1207,-4.1772,-4.2333,-4.3026,-4.4116,-4.4553,-4.4662,-4.4355,-4.4759,-4.4902,-4.4047,-4.3893,0.0,0.0,0.0,0.0,0.0,0.0,0.0,0.0,0.0,0.0,0.0,0.0,-4.0496,-4.0496,-4.0496,-4.0496,-4.0496,-4.0785,-4.1335,-4.222,-4.3066,-4.3893,-4.472,-4.5306,-4.5594,-4.5594,-4.5594,-4.5594,-4.5594,-4.5594,-4.5594,-4.5594,-4.5594,-4.5594,-4.5594,-4.5594,-4.5594,-4.5594,-4.5594,-4.5594,-4.5594,-4.5594,-4.5594,-4.5594,-4.0948,-4.0933,-4.1209,-4.2089,-4.2902,-4.3617,-4.4095,-4.455,-4.4645,-4.4085,-4.3928,-4.3682,-4.3162,-4.3104,-4.3104,-4.3104,-4.3104,-4.3104,-4.3104,-4.3585,-4.3508,-4.2681,-4.3431,-4.3335,-4.22,-4.2489,-4.222,-4.1335,-4.1384,-4.1143,-4.0622,-4.0622,-4.0622,-4.0622,-4.0557,-4.0523,-4.0496,-4.0573,-4.06,-4.0573,-4.0633,-4.0687,-4.07,-4.0759,-4.0797,-4.0797,-4.0797,-4.0797,-4.0797,-4.0797,-4.0797,-4.0797,-4.0797,-4.0797,-4.079,-4.0726,-4.07,-4.0694,-4.0654,-4.0853,-4.1205,-4.1764,-4.2121,-4.2611,-4.3692,-4.3899,-4.3951,-4.4239,-4.4509,-4.4729,-4.4759,-4.4509,0.0,0.0,0.0,0.0,0.0,-4.1508,0.0,0.0,0.0,0.0,0.0,-4.0496,-4.0496,-4.0496,-4.0496,-4.0496,-4.0496,-4.0496,-4.0893,-4.1769,-4.2643,-4.3489,-4.4297,-4.5171,-4.5594,-4.5594,-4.5594,-4.5594,-4.5594,-4.5594,-4.5594,-4.5594,-4.5594,-4.5594,-4.5594,-4.5594,-4.5594,-4.5594,-4.5594,-4.5594,-4.5594,-4.5594,-4.5594,-4.5594,-4.0824,-4.0796,-4.1048,-4.1874,-4.2637,-4.3131,-4.3131,-4.3119,-4.3085,-4.3047,-4.3047,-4.3047,-4.3047,-4.3047,-4.3047,-4.3104,-4.3104,-4.3085,-4.3047,-4.3085,-4.2701,-4.1769,-4.2566,-4.2239,-4.0535,-4.1316,-4.1335,-4.0496,-4.0496,-4.0496,-4.0496,-4.0496,-4.0496,-4.0496,-4.0573,-4.0565,-4.0496,-4.0573,-4.0565,-4.0504,-4.0579,-4.0647,-4.07,-4.0778,-4.079,-4.0797,-4.0797,-4.0797,-4.0797,-4.0797,-4.0797,-4.0797,-4.0797,-4.0797,-4.079,-4.0726,-4.07,-4.07,-4.0694,-4.1245,-4.1834,-4.1846,-4.2402,-4.2988,-4.3036,-4.3047,-4.3258,-4.4028,-4.3605,-4.3566,-4.5133,-4.4797,-4.4566,0.0,0.0,0.0,0.0,0.0,-4.1865,-4.1865,-4.1123,0.0,0.0,-4.0496,-4.0496,-4.0496,-4.0496,-4.0496,0.0,-4.0496,-4.0873,-4.1712,-4.2624,-4.347,-4.422,-4.5152,-4.5594,-4.5594,-4.5594,-4.5594,-4.5594,-4.5594,-4.5594,-4.5594,-4.5594,-4.5594,-4.5594,-4.5594,-4.5594,-4.5594,-4.5594,-4.5594,-4.5594,-4.5594,-4.5594,-4.5594,-4.0768,-4.0649,-4.0653,-4.0872,-4.1608,-4.2148,-4.2148,-4.2694,-4.2874,-4.222,-4.2143,-4.2143,-4.2143,-4.2143,-4.2393,-4.3047,-4.3104,-4.2835,-4.2181,-4.2739,-4.2412,-4.0893,-4.1662,-4.1623,-4.0516,-4.0727,-4.0727,-4.0496,-4.0496,-4.0496,-4.0496,-4.0496,-4.0496,-4.0496,-4.0523,-4.0523,-4.0496,-4.0523,-4.0523,-4.0516,-4.0569,-4.0605,-4.0628,-4.07,-4.0752,-4.0797,-4.0797,-4.0797,-4.0797,-4.0797,-4.0797,-4.0797,-4.0797,-4.0797,-4.079,-4.0726,-4.07,-4.0694,-4.0628,-4.0768,-4.0928,-4.0938,-4.1096,-4.1401,-4.1997,-4.2143,-4.22,-4.2412,-4.2797,-4.3028,-4.2816,-4.3605,-4.4374,0.0,0.0,0.0,-4.4028,-4.3278,-4.2777,-4.2777,-4.2566,-4.1912,-4.0631,-4.0496,-4.0496,-4.0496,-4.0496,-4.0496,-4.0496,-4.0496,-4.0593,-4.0843,-4.2316,-4.3201,-4.3412,-4.4883,-4.5594,-4.5594,-4.5594,-4.5594,-4.5594,-4.5594,-4.5594,-4.5594,-4.5594,-4.5594,-4.5594,-4.5594,-4.5594,-4.5594,-4.5594,-4.5594,-4.5594,-4.5594,-4.5594,-4.5594,-4.0649,-4.0557,-4.0496,-4.0496,-4.0912,-4.1239,-4.1239,-4.1643,-4.1912,-4.1808,-4.1788,-4.1942,-4.2335,-4.2374,-4.2566,-4.3066,-4.3104,-4.2893,-4.2412,-4.2835,-4.2489,-4.1123,-4.1546,-4.1393,-4.0516,-4.0496,-4.0496,-4.0496,-4.0496,-4.0496,-4.0496,-4.0496,-4.0496,-4.0496,0.0,-4.0496,-4.0496,-4.0496,-4.0496,-4.0516,-4.0573,-4.0591,0.0,-4.1092,-4.128,-4.1371,-4.1757,-4.1641,-4.1371,-4.1757,-4.1893,-4.1893,-4.1893,-4.1893,-4.1886,-4.1815,-4.1782,-4.1775,-4.174,-4.1733,-4.1641,-4.1258,-4.1166,-4.1177,-4.1227,-4.1239,-4.1335,-4.1712,-4.1893,-4.2047,-4.2316,-4.2835,-4.3451,0.0,0.0,-4.4874,-4.4874,-4.4143,-4.3624,-4.3624,-4.3316,-4.2701,-4.172,-4.1296,-4.0912,-4.0535,-4.0496,-4.0496,-4.0496,-4.0496,-4.0496,-4.0496,-4.2181,-4.3104,-4.3104,-4.4767,-4.5594,-4.5594,-4.5594,-4.5594,-4.5594,-4.5594,-4.5594,-4.5594,-4.5594,-4.5594,-4.5594,-4.5594,-4.5594,-4.5594,-4.5594,-4.5594,-4.5594,-4.5594,-4.5594,-4.5594,-4.0527,-4.0496,-4.0496,-4.0496,-4.0593,-4.0669,-4.0669,-4.0669,-4.0931,-4.1692,-4.1904,-4.2297,-4.3162,-4.3258,-4.3297,-4.3412,-4.3431,-4.3374,-4.3258,-4.3258,-4.2874,-4.2,-4.1865,-4.145,-4.0689,-4.0554,-4.0496,-4.0496,-4.0496,-4.0496,-4.0496,-4.0496,0.0,0.0,0.0,0.0,0.0,-4.0496,-4.0496,-4.0516,-4.0573,-4.0668,-4.0865,-4.1691,-4.2073,-4.228,-4.3169,-4.2918,-4.2299,-4.3034,-4.3305,-4.3305,-4.3305,-4.3305,-4.3298,-4.3225,-4.3199,-4.3211,-4.3207,-4.3199,-4.3011,-4.226,-4.1975,-4.1678,-4.087,-4.0573,-4.0708,-4.147,-4.1027,-4.0958,-4.247,-4.2239,-4.2316,0.0,-4.4883,-4.5441,-4.5441,-4.4874,-4.447,-4.447,-4.3855,0.0,-4.3278,-4.2489,-4.1604,-4.0746,-4.0669,-4.0631,-4.0516,-4.0496,-4.0496,-4.0496,-4.2181,-4.3104,-4.3104,-4.4767,-4.5594,-4.5594,-4.5594,-4.5594,-4.5594,-4.5594,-4.5594,-4.5594,-4.5594,-4.5594,-4.5594,-4.5594,-4.5594,-4.5594,-4.5594,-4.5594,-4.5594,-4.5594,-4.5594,-4.5594,-4.0527,-4.0496,-4.0496,-4.0496,-4.1085,-4.1566,-4.1566,-4.1566,-4.1643,-4.1769,-4.2431,-4.3181,-4.3989,-4.4085,-4.4374,-4.5094,-4.5171,-4.4863,-4.4143,-4.4085,-4.372,-4.2912,-4.2181,-4.1731,-4.1585,-4.0873,-4.0496,-4.0496,-4.0496,-4.0496,-4.0496,-4.0496,0.0,0.0,0.0,0.0,-4.0496,-4.0496,-4.0496,-4.0516,-4.0573,-4.1034,-4.1694,-4.1923,-4.2459,-4.3189,-4.4052,-4.3808,-4.3092,-4.3247,-4.3305,-4.3305,-4.3305,-4.3305,-4.3298,-4.3218,-4.3204,-4.3197,-4.3199,-4.3204,-4.3158,-4.2946,-4.2379,-4.1832,-4.1612,-4.1008,-4.0535,-4.0708,-4.0612,-4.0593,-4.09,-4.1412,-4.2143,-4.3143,-4.3989,-4.4528,-4.4528,-4.5017,-4.5364,-4.5364,-4.5248,-4.4883,-4.4162,-4.3355,-4.2508,-4.1643,-4.1566,-4.1258,-4.0535,-4.0496,-4.0496,-4.0496,-4.2181,-4.3104,-4.3104,-4.4767,-4.5594,-4.5594,-4.5594,-4.5594,-4.5594,-4.5594,-4.5594,-4.5594,-4.5594,-4.5594,-4.5594,-4.5594,-4.5594,-4.5594,-4.5594,-4.5594,-4.5594,-4.5594,-4.5594,-4.5594,-4.0512,-4.0854,-4.1162,-4.1162,-4.1893,-4.247,-4.247,-4.2835,-4.3104,-4.3104,-4.3451,-4.4047,-4.4874,-4.4979,-4.5152,-4.5556,-4.5594,-4.5421,-4.4998,-4.4979,-4.4605,-4.3758,-4.3316,-4.2701,-4.1808,-4.1393,-4.095,-4.0496,-4.0496,-4.0496,-4.0496,-4.0496,-4.0496,-4.0496,0.0,-4.0496,0.0,-4.0496,-4.0496,-4.0496,-4.0531,-4.0826,-4.1289,-4.1767,-4.2219,-4.2795,-4.4123,-4.4302,-4.3984,-4.4431,-4.4592,-4.4592,-4.4571,-4.4544,-4.4537,-4.4522,-4.4495,-4.4507,-4.45,-4.4511,-4.436,-4.3838,-4.3426,-4.2917,-4.2008,-4.1489,-4.1046,-4.0593,-4.0496,-4.0496,-4.0496,-4.12,-4.1942,-4.2354,-4.3124,-4.3682,-4.3682,-4.4047,-4.4451,-4.4883,-4.494,-4.494,-4.4979,-4.4624,-4.3855,-4.2566,-4.247,-4.2085,-4.1219,-4.1162,-4.0969,-4.0516,-4.2181,-4.3104,-4.3104,-4.4767,-4.5594,-4.5594,-4.5594,-4.5594,-4.5594,-4.5594,-4.5594,-4.5594,-4.5594,-4.5594,-4.5594,-4.5594,-4.5594,-4.5594,-4.5594,-4.5594,-4.5594,-4.5594,-4.5594,-4.5594,-4.1016,-4.1604,-4.2085,-4.2085,-4.2797,-4.3355,-4.3355,-4.4047,-4.4509,-4.4316,-4.4451,-4.4836,-4.5537,-4.5594,-4.5594,-4.5594,-4.5594,-4.5594,-4.5594,-4.5594,-4.5287,-4.4605,-4.4393,-4.3682,-4.2354,-4.1981,-4.147,-4.0785,-4.0593,-4.0323,-3.9977,-4.0323,-4.0496,-4.0496,-4.0496,-4.0496,-4.0496,-4.0496,-4.0496,-4.0496,-4.0523,-4.0657,-4.0947,-4.1629,-4.2056,-4.2432,-4.3812,-4.4267,-4.4318,-4.5005,-4.536,-4.5514,-4.5465,-4.5322,-4.5167,-4.5152,-4.5152,-4.5144,-4.5161,-4.5261,-4.5233,-4.4479,-4.4297,-4.3951,-4.2624,-4.22,-4.1835,-4.095,-4.0631,-4.0496,-4.0496,-4.1066,-4.1527,-4.1527,-4.2258,-4.2816,-4.2816,-4.2989,-4.3335,-4.397,-4.4047,-4.4316,-4.4998,-4.5075,-4.4509,-4.3201,-4.3258,-4.2989,-4.2124,-4.1904,-4.1489,-4.0804,-4.2297,-4.3104,-4.3104,-4.4767,-4.5594,-4.5594,-4.5594,-4.5594,-4.5594,-4.5594,-4.5594,-4.5594,-4.5594,-4.5594,-4.5594,-4.5594,-4.5594,-4.5594,-4.5594,-4.5594,-4.5594,-4.5594,-4.5594,-4.5594,-4.2701,-4.2912,-4.2989,-4.2989,-4.3643,-4.4182,-4.4182,-4.4921,-4.519,-4.4393,-4.4998,-4.5518,-4.5594,-4.5594,-4.5594,-4.5594,-4.5594,-4.5594,-4.5594,-4.5594,-4.5556,-4.5479,-4.472,-4.422,-4.4066,-4.2585,-4.175,-4.1681,-4.0893,-3.9727,-3.8277,-3.9785,-4.0496,-4.0496,-4.0496,-4.0496,-4.0496,-4.0496,-4.0496,-4.0516,-4.0573,-4.1069,-4.1797,-4.1873,-4.2389,-4.311,-4.3265,-4.3323,-4.3327,-4.3347,-4.3921,-4.4616,-4.4608,-4.4068,-4.3423,-4.3366,-4.3331,-4.3343,-4.3333,-4.3882,-4.4402,-4.4316,-4.4297,-4.4259,-4.4105,-4.3508,-4.2739,-4.1854,-4.1046,-4.0496,-4.0496,-4.0573,-4.0631,-4.0631,-4.1354,-4.1923,-4.1923,-4.2604,-4.3124,-4.3201,-4.3201,-4.3239,-4.3335,-4.3335,-4.3278,-4.3104,-4.3778,-4.3835,-4.3028,-4.2239,-4.175,-4.1673,-4.2604,-4.3104,-4.3104,-4.4767,-4.5594,-4.5594,-4.5594,-4.5594,-4.5594,-4.5594,-4.5594,-4.5594,-4.5594,-4.5594,-4.5594,-4.5594,-4.5594,-4.5594,-4.5594,-4.5594,-4.5594,-4.5594,-4.5594,-4.5594,-4.3028,-4.3489,-4.3816,-4.3816,-4.4509,-4.5075,-4.5075,-4.5383,-4.5479,-4.5133,-4.5383,-4.5594,-4.5594,-4.5594,-4.5594,-4.5594,-4.5594,-4.5594,-4.5594,-4.5594,-4.5594,-4.5594,-4.5267,-4.4836,-4.4316,-4.3643,-4.2816,-4.1788,-4.145,-4.0662,-3.9515,-4.0189,-4.0496,-4.0496,-4.0496,-4.0496,-4.0496,-4.0496,-4.0496,-4.0496,-4.0531,-4.0758,-4.1127,-4.113,-4.135,-4.1716,-4.2227,-4.2391,-4.2449,-4.2938,-4.3358,-4.3655,-4.3651,-4.3412,-4.3134,-4.3118,-4.3091,-4.311,-4.3113,-4.3682,-4.4297,-4.4297,-4.4682,-4.4932,-4.4412,-4.4047,-4.3585,-4.2758,-4.2297,-4.1893,-4.1373,-4.1277,-4.1104,-4.0593,-4.0785,-4.1027,-4.1027,-4.1316,-4.172,-4.2258,-4.2316,-4.2527,-4.3047,-4.3104,-4.3104,-4.3104,-4.3393,-4.3201,-4.2354,-4.1981,-4.1566,-4.1046,-4.2374,-4.3104,-4.3104,-4.4767,-4.5594,-4.5594,-4.5594,-4.5594,-4.5594,-4.5594,-4.5594,-4.5594,-4.5594,-4.5594,-4.5594,-4.5594,-4.5594,-4.5594,-4.5594,-4.5594,-4.5594,-4.5594,-4.5594,-4.5594,-4.3778,-4.4278,-4.4682,-4.4682,-4.519,-4.5594,-4.5594,-4.5594,-4.5594,-4.5594,-4.5594,-4.5594,-4.5594,-4.5594,-4.5594,-4.5594,-4.5594,-4.5594,-4.5594,-4.5594,-4.5594,-4.5594,-4.5594,-4.5306,-4.4701,-4.4432,-4.372,-4.2547,-4.2297,-4.1489,-4.015,-3.9881,-4.0035,-4.0496,-4.0496,-4.0496,-4.0496,-4.0496,-4.0496,-4.0496,-4.0496,-4.0531,-4.0573,-4.0573,-4.0573,-4.065,-4.1265,-4.1466,-4.1508,-4.2125,-4.2345,-4.2375,-4.2632,-4.2547,-4.2335,-4.2335,-4.2335,-4.2335,-4.2335,-4.3124,-4.3951,-4.3951,-4.4778,-4.5441,-4.4816,-4.4682,-4.4451,-4.3624,-4.3258,-4.2912,-4.2297,-4.1962,-4.1604,-4.0969,-4.0669,-4.0496,-4.0496,-4.0496,-4.0727,-4.1335,-4.1412,-4.1662,-4.2277,-4.2335,-4.2335,-4.2335,-4.2335,-4.2297,-4.22,-4.1942,-4.1527,-4.0893,-4.2316,-4.3104,-4.3104,-4.4767,-4.5594,-4.5594,-4.5594,-4.5594,-4.5594,-4.5594,-4.5594,-4.5594,-4.5594,-4.5594,-4.5594,-4.5594,-4.5594,-4.5594,-4.5594,-4.5594,-4.5594,-4.5594,-4.5594,-4.5594,-4.5402,-4.5575,-4.5575,-4.5575,-4.5594,-4.5594,-4.5594,-4.5594,-4.5594,-4.5594,-4.5594,-4.5594,-4.5594,-4.5594,-4.5594,-4.5594,-4.5594,-4.5594,-4.5594,-4.5594,-4.5594,-4.5594,-4.5594,-4.5594,-4.5575,-4.4739,-4.4297,-4.4259,-4.347,-4.1797,-3.9304,-3.843,-3.8911,-4.0496,-4.0496,-4.0496,-4.0496,-4.0496,-4.0496,-4.0496,-4.0496,-4.0496,-4.0496,-4.0496,-4.0496,-4.0496,-4.0516,-4.0516,-4.0516,-4.0535,-4.0535,-4.0689,-4.1546,-4.1219,-4.0535,-4.0535,-4.0535,-4.0535,-4.0535,-4.1797,-4.3104,-4.3104,-4.4374,-4.5594,-4.5594,-4.5575,-4.5344,-4.4451,-4.3643,-4.3104,-4.3085,-4.2374,-4.1788,-4.1788,-4.1066,-4.0496,-4.0496,-4.0496,-4.0496,-4.0516,-4.0516,-4.0516,-4.0535,-4.0535,-4.0535,-4.0535,-4.0535,-4.1285,-4.2989,-4.2277,-4.1788,-4.1769,-4.2643,-4.3104,-4.3104,-4.4767,-4.5594,-4.5594,-4.5594,-4.5594,-4.5594,-4.5594,-4.5594,-4.5594,-4.5594,-4.5594,-4.5594,-4.5594,-4.5594,-4.5594,-4.5594,-4.5594,-4.5594,-4.5594,-4.5594,-4.5594,-4.5556,-4.5594,-4.5594,-4.5594,-4.5594,-4.5594,-4.5594,-4.5594,-4.5594,-4.5594,-4.5594,-4.5594,-4.5594,-4.5594,-4.5594,-4.5594,-4.5594,-4.5594,-4.5594,-4.5594,-4.5594,-4.5594,-4.5594,-4.5594,-4.5594,-4.5325,-4.4893,-4.4297,-4.4047,-4.2912,-4.1008,-4.0719,-4.0566,-4.0496,-4.0496,-4.0496,-4.0496,-4.0496,-4.0496,-4.0496,-4.0496,-4.0496,-4.0496,-4.0496,-4.0496,-4.0496,-4.0496,-4.0496,-4.0496,-4.0496,-4.0496,-4.0554,-4.0843,-4.0727,-4.0496,-4.0496,-4.0496,-4.0496,-4.0496,-4.1758,-4.3104,-4.3104,-4.4355,-4.5594,-4.5594,-4.5594,-4.5518,-4.5248,-4.4979,-4.4624,-4.4028,-4.3239,-4.2489,-4.1904,-4.1066,-4.0496,-4.0496,-4.0496,-4.0496,-4.0496,-4.0496,-4.0496,-4.0496,-4.0496,-4.0496,-4.0496,-4.0496,-4.0746,-4.1304,-4.1066,-4.1181,-4.1769,-4.2643,-4.3355,-4.3912,-4.5037,-4.5594,-4.5594,-4.5594,-4.5594,-4.5594,-4.5594,-4.5594,-4.5594,-4.5594,-4.5594,-4.5594,-4.5594,-4.5594,-4.5594,-4.5594,-4.5594,-4.5594,-4.5594,-4.5594,-4.5594,-4.5594,-4.5594,-4.5594,-4.5594,-4.5594,-4.5594,-4.5594,-4.5594,-4.5594,-4.5594,-4.5594,-4.5594,-4.5594,-4.5594,-4.5594,-4.5594,-4.5594,-4.5594,-4.5594,-4.5594,-4.5594,-4.5594,-4.5594,-4.5594,-4.5594,-4.5594,-4.5325,-4.4778,-4.4451,-4.3758,-4.2739,-4.2077,-4.1508,-4.0969,-4.065,-4.0496,-4.0496,-4.0496,-4.0496,-4.0496,-4.0496,-4.0496,-4.0496,-4.0496,-4.0496,-4.0496,-4.0496,-4.0496,-4.0496,-4.0496,-4.0496,-4.0496,-4.0496,-4.0496,-4.0496,-4.0496,-4.0496,-4.0573,-4.0893,-4.2027,-4.3162,-4.347,-4.4586,-4.5594,-4.5594,-4.5594,-4.5594,-4.5594,-4.5594,-4.5441,-4.4893,-4.4105,-4.3278,-4.2431,-4.1566,-4.0873,-4.0554,-4.0496,-4.0496,-4.0496,-4.0496,-4.0496,-4.0496,-4.0496,-4.0496,-4.0496,-4.0804,-4.0989,-4.0989,-4.0989,-4.1239,-4.1769,-4.2951,-4.3797,-4.4297,-4.5171,-4.5594,-4.5594,-4.5594,-4.5594,-4.5594,-4.5594,-4.5594,-4.5594,-4.5594,-4.5594,-4.5594,-4.5594,-4.5594,-4.5594,-4.5594,-4.5594,-4.5594,-4.5594,-4.5594,-4.5594,-4.5594,-4.5594,-4.5594,-4.5594,-4.5594,-4.5594,-4.5594,-4.5594,-4.5594,-4.5594,-4.5594,-4.5594,-4.5594,-4.5594,-4.5594,-4.5594,-4.5594,-4.5594,-4.5594,-4.5594,-4.5594,-4.5594,-4.5594,-4.5594,-4.5594,-4.5594,-4.5594,-4.5594,-4.4778,-4.4355,-4.4259,-4.2701,-4.1904,-4.175,-4.095,-4.0554,-4.0496,-4.0496,-4.0496,-4.0496,-4.0496,-4.0496,-4.0496,-4.0496,-4.0496,-4.0496,-4.0496,-4.0496,-4.0496,-4.0496,-4.0496,-4.0496,-4.0496,-4.0496,-4.0496,-4.0496,-4.0535,-4.0766,-4.1585,-4.2489,-4.3355,-4.4105,-4.496,-4.5594,-4.5594,-4.5594,-4.5594,-4.5594,-4.5594,-4.5594,-4.5594,-4.4902,-4.4047,-4.3239,-4.2374,-4.1508,-4.0631,-4.0496,-4.0496,-4.0496,-4.0554,-4.0593,-4.0593,-4.065,-4.0689,-4.0689,-4.1431,-4.1885,-4.1885,-4.1942,-4.1962,-4.1962,-4.3489,-4.4335,-4.4393,-4.519,-4.5594,-4.5594,-4.5594,-4.5594,-4.5594,-4.5594,-4.5594,-4.5594,-4.5594,-4.5594,-4.5594,-4.5594,-4.5594,-4.5594,-4.5594,-4.5594,-4.5594,-4.5594,-4.5594,-4.5594,-4.5594,-4.5594,-4.5594,-4.5594,-4.5594,-4.5594,-4.5594,-4.5594,-4.5594,-4.5594,-4.5594,-4.5594,-4.5594,-4.5594,-4.5594,-4.5594,-4.5594,-4.5594,-4.5594,-4.5594,-4.5594,-4.5594,-4.5594,-4.5594,-4.5594,-4.5594,-4.5594,-4.5594,-4.5402,-4.496,-4.4297,-4.3893,-4.3028,-4.1788,-4.1585,-4.1123,-4.0496,-4.0496,-4.0496,-4.0496,-4.0496,-4.0496,-4.0496,-4.0496,-4.0496,-4.0496,-4.0496,-4.0496,-4.0496,-4.0496,-4.0496,-4.0496,-4.0496,-4.0496,-4.0496,-4.0496,-4.0969,-4.1546,-4.1731,-4.2874,-4.4066,-4.4239,-4.496,-4.5594,-4.5594,-4.5594,-4.5594,-4.5594,-4.5594,-4.5594,-4.5594,-4.4902,-4.4047,-4.3239,-4.2374,-4.1508,-4.0631,-4.0496,-4.0496,-4.0496,-4.1085,-4.1489,-4.1489,-4.2085,-4.247,-4.247,-4.2681,-4.2797,-4.2797,-4.3374,-4.3701,-4.3701,-4.4085,-4.4624,-4.5287,-4.5498,-4.5594,-4.5594,-4.5594,-4.5594,-4.5594,-4.5594,-4.5594,-4.5594,-4.5594,-4.5594,-4.5594,-4.5594,-4.5594,-4.5594,-4.5594,-4.5594,-4.5594,-4.5594,-4.5594,-4.5594,-4.5594,-4.5594,-4.5594,-4.5594,-4.5594,-4.5594,-4.5594,-4.5594,-4.5594,-4.5594,-4.5594,-4.5594,-4.5594,-4.5594,-4.5594,-4.5594,-4.5594,-4.5594,-4.5594,-4.5594,-4.5594,-4.5594,-4.5594,-4.5594,-4.5594,-4.5594,-4.5594,-4.5594,-4.5594,-4.5364,-4.4902,-4.4489,-4.3624,-4.2374,-4.1981,-4.1316,-4.0496,-4.0496,-4.0496,-4.0496,-4.0496,-4.0496,-4.0496,-4.0496,-4.0496,-4.0496,-4.0496,-4.0496,-4.0496,-4.0496,-4.0496,-4.0573,-4.0969,-4.1085,-4.1162,-4.1566,-4.1739,-4.1962,-4.2739,-4.3605,-4.4393,-4.4778,-4.5248,-4.5594,-4.5594,-4.5594,-4.5594,-4.5594,-4.5594,-4.5594,-4.5594,-4.521,-4.4624,-4.3778,-4.3258,-4.2643,-4.1816,-4.1681,-4.1681,-4.1681,-4.2104,-4.2393,-4.2393,-4.2816,-4.3104,-4.3104,-4.3431,-4.3643,-4.3643,-4.4432,-4.4701,-4.4316,-4.4682,-4.5133,-4.5594,-4.5594,-4.5594,-4.5594,-4.5594,-4.5594,-4.5594,-4.5594,-4.5594,-4.5594,-4.5594,-4.5594,-4.5594,-4.5594,-4.5594,-4.5594,-4.5594,-4.5594,-4.5594,-4.5594,-4.5594,-4.5594,-4.5594,-4.5594,-4.5594,-4.5594,-4.5594,-4.5594,-4.5594,-4.5594,-4.5594,-4.5594,-4.5594,-4.5594,-4.5594,-4.5594,-4.5594,-4.5594,-4.5594,-4.5594,-4.5594,-4.5594,-4.5594,-4.5594,-4.5594,-4.5594,-4.5594,-4.5594,-4.5594,-4.5594,-4.5594,-4.5594,-4.5575,-4.4836,-4.3989,-4.3066,-4.2335,-4.1431,-4.0496,-4.0496,-4.0496,-4.0496,-4.0496,-4.0496,-4.0496,-4.0496,-4.0496,-4.0496,-4.0496,-4.0573,-4.0708,-4.0708,-4.0785,-4.1016,-4.1758,-4.2,-4.2181,-4.3028,-4.2758,-4.2489,-4.3912,-4.4393,-4.4662,-4.5421,-4.5594,-4.5594,-4.5594,-4.5594,-4.5594,-4.5594,-4.5594,-4.5594,-4.5594,-4.5594,-4.5306,-4.4432,-4.4297,-4.4028,-4.3201,-4.3104,-4.3104,-4.3104,-4.3201,-4.3278,-4.3278,-4.3393,-4.347,-4.347,-4.4105,-4.4489,-4.4489,-4.521,-4.5267,-4.4509,-4.521,-4.5594,-4.5594,-4.5594,-4.5594,-4.5594,-4.5594,-4.5594,-4.5594,-4.5594,-4.5594,-4.5594,-4.5594,-4.5594,-4.5594,-4.5594,-4.5594,-4.5594,-4.5594,-4.5594,-4.5594,-4.5594,-4.5594,-4.5594,-4.5594,-4.5594,-4.5594,-4.5594,-4.5594,-4.5594,-4.5594,-4.5594,-4.5594,-4.5594,-4.5594,-4.5594,-4.5594,-4.5594,-4.5594,-4.5594,-4.5594,-4.5594,-4.5594,-4.5594,-4.5594,-4.5594,-4.5594,-4.5594,-4.5594,-4.5594,-4.5594,-4.5594,-4.5594,-4.5594,-4.5594,-4.546,-4.4566,-4.3085,-4.297,-4.2008,-4.0496,-4.0496,-4.0496,-4.0496,-4.0496,-4.0496,-4.0496,-4.0496,-4.0496,-4.0496,-4.0496,-4.0969,-4.1604,-4.1604,-4.2085,-4.272,-4.2854,-4.2893,-4.3066,-4.3874,-4.4028,-4.397,-4.422,-4.4836,-4.5441,-4.5575,-4.5594,-4.5594,-4.5594,-4.5594,-4.5594,-4.5594,-4.5594,-4.5594,-4.5594,-4.5594,-4.5306,-4.4432,-4.4297,-4.4028,-4.3201,-4.3104,-4.3104,-4.3104,-4.3701,-4.4105,-4.4105,-4.4778,-4.521,-4.521,-4.5325,-4.5402,-4.5402,-4.5537,-4.5537,-4.5402,-4.5537,-4.5594,-4.5594,-4.5594,-4.5594,-4.5594,-4.5594,-4.5594,-4.5594,-4.5594,-4.5594,-4.5594,-4.5594,-4.5594,-4.5594,-4.5594,-4.5594,-4.5594,-4.5594,-4.5594,-4.5594,-4.5594,-4.5594,-4.5594,-4.5594,-4.5594,-4.5594,-4.5594,-4.5594,-4.5594,-4.5594,-4.5594,-4.5594,-4.5594,-4.5594,-4.5594,-4.5594,-4.5594,-4.5594,-4.5594,-4.5594,-4.5594,-4.5594,-4.5594,-4.5594,-4.5594,-4.5594,-4.5594,-4.5594,-4.5594,-4.5594,-4.5594,-4.5594,-4.5594,-4.5594,-4.5594,-4.494,-4.372,-4.3297,-4.2393,-4.1162,-4.0708,-4.0496,-4.0496,-4.0496,-4.0496,-4.0554,-4.1027,-4.12,-4.1258,-4.172,-4.2162,-4.2508,-4.2508,-4.2777,-4.3181,-4.3605,-4.3739,-4.3912,-4.4739,-4.4998,-4.4998,-4.4998,-4.5287,-4.5594,-4.5594,-4.5594,-4.5594,-4.5594,-4.5594,-4.5594,-4.5594,-4.5594,-4.5594,-4.5594,-4.5594,-4.5479,-4.5075,-4.4998,-4.4883,-4.4489,-4.4451,-4.4451,-4.4451,-4.4759,-4.4998,-4.4998,-4.5364,-4.5594,-4.5594,-4.5594,-4.5594,-4.5594,-4.5594,-4.5594,-4.5594,-4.5594,-4.5594,-4.5594,-4.5594,-4.5594,-4.5594,-4.5594,-4.5594,-4.5594,-4.5594,-4.5594,-4.5594,-4.5594,-4.5594,-4.5594,-4.5594,-4.5594,-4.5594,-4.5594,-4.5594,-4.5594,-4.5594,-4.5594,-4.5594,-4.5594,-4.5594,-4.5594,-4.5594,-4.5594,-4.5594,-4.5594,-4.5594,-4.5594,-4.5594,-4.5594,-4.5594,-4.5594,-4.5594,-4.5594,-4.5594,-4.5594,-4.5594,-4.5594,-4.5594,-4.5594,-4.5594,-4.5594,-4.5594,-4.5594,-4.5594,-4.5594,-4.5594,-4.5594,-4.5594,-4.5594,-4.5594,-4.5133,-4.4278,-4.3643,-4.2893,-4.2066,-4.1393,-4.1112,-4.1112,-4.1112,-4.1112,-4.1189,-4.1854,-4.2104,-4.22,-4.2854,-4.322,-4.3374,-4.3374,-4.3508,-4.3797,-4.4412,-4.4605,-4.472,-4.5402,-4.5594,-4.5594,-4.5594,-4.5594,-4.5594,-4.5594,-4.5594,-4.5594,-4.5594,-4.5594,-4.5594,-4.5594,-4.5594,-4.5594,-4.5594,-4.5594,-4.5594,-4.5594,-4.5594,-4.5594,-4.5594,-4.5594,-4.5594,-4.5594,-4.5594,-4.5594,-4.5594,-4.5594,-4.5594,-4.5594,-4.5594,-4.5594,-4.5594,-4.5594,-4.5594,-4.5594,-4.5594,-4.5594,-4.5594,-4.5594,-4.5594,-4.5594,-4.5594,-4.5594,-4.5594,-4.5594,-4.5594,-4.5594,-4.5594,-4.5594,-4.5594,-4.5594,-4.5594,-4.5594,-4.5594,-4.5594,-4.5594,-4.5594,-4.5594,-4.5633,-4.5594,-4.5594,-4.5594,-4.5594,-4.5594,-4.5594,-4.5594,-4.5594,-4.5594,-4.5594,-4.5594,-4.5594,-4.5594,-4.5594,-4.5594,-4.5594,-4.5594,-4.5594,-4.5594,-4.5594,-4.5594,-4.5594,-4.5594,-4.5594,-4.5594,-4.5594,-4.5594,-4.5594,-4.5594,-4.5594,-4.5594,-4.5594,-4.5133,-4.4297,-4.4239,-4.3758,-4.3008,-4.2931,-4.2912,-4.2912,-4.2912,-4.2912,-4.2912,-4.2989,-4.3008,-4.3008,-4.3085,-4.3585,-4.4201,-4.4201,-4.4739,-4.5441,-4.5498,-4.5498,-4.5518,-4.5575,-4.5594,-4.5594,-4.5594,-4.5594,-4.5594,-4.5594,-4.5594,-4.5594,-4.5594,-4.5594,-4.5594,-4.5594,-4.5594,-4.5594,-4.5594,-4.5594,-4.5594,-4.5594,-4.5594,-4.5594,-4.5594,-4.5594,-4.5594,-4.5594,-4.5594,-4.5594,-4.5594,-4.5594,-4.5594,-4.5594,-4.5594,-4.5594,-4.5594,-4.5594,-4.5594,-4.5594,-4.5594,-4.5594,-4.5594,-4.5594,-4.5594,-4.5594,-4.5594,-4.5594,-4.5594,-4.5594,-4.5594,-4.5594,-4.5594,-4.5594,-4.5594,-4.5594,-4.5594,-4.5594,-4.5594,-4.5594,-4.5594,-4.5594,-4.5594,-4.5729,-4.5594,-4.5594,-4.5594,-4.5594,-4.5594,-4.5594,-4.5594,-4.5594,-4.5594,-4.5594,-4.5594,-4.5594,-4.5594,-4.5594,-4.5594,-4.5594,-4.5594,-4.5594,-4.5594,-4.5594,-4.5594,-4.5594,-4.5594,-4.5594,-4.5594,-4.5594,-4.5594,-4.5594,-4.5594,-4.5594,-4.5594,-4.5594,-4.5421,-4.5075,-4.4528,-4.4124,-4.3816,-4.3316,-4.3104,-4.3104,-4.3104,-4.3104,-4.3143,-4.3643,-4.3835,-4.3912,-4.4451,-4.4863,-4.5114,-4.5114,-4.5325,-4.5594,-4.5594,-4.5594,-4.5594,-4.5594,-4.5594,-4.5594,-4.5594,-4.5594,-4.5594,-4.5594,-4.5594,-4.5594,-4.5594,-4.5594,-4.5594,-4.5594,-4.5594,-4.5594,-4.5594,-4.5594,-4.5594,-4.5594,-4.5594,-4.5594,-4.5594,-4.5594,-4.5594,-4.5594,-4.5594,-4.5594,-4.5594,-4.5594,-4.5594,-4.5594,-4.5594,-4.5594,-4.5594,-4.5594,-4.5594,-4.5594,-4.5594,-4.5594,-4.5594,-4.5594,-4.5594,-4.5594,-4.5594,-4.5594,-4.5594,-4.5594,-4.5594,-4.5594,-4.5594,-4.5594,-4.5594,-4.5594,-4.5594,-4.5594,-4.5594,-4.5594,-4.5594,-4.5594,-4.5594,-4.5652,-4.5594,-4.5594,-4.5594,-4.5594,-4.5594,-4.5594,-4.5594,-4.5594,-4.5594,-4.5594,-4.5594,-4.5594,-4.5594,-4.5594,-4.5594,-4.5594,-4.5594,-4.5594,-4.5594,-4.5594,-4.5594,-4.5594,-4.5594,-4.5594,-4.5594,-4.5594,-4.5594,-4.5594,-4.5594,-4.5594,-4.5594,-4.5594,-4.5594,-4.5575,-4.4979,-4.4701,-4.4662,-4.4124,-4.3893,-4.3893,-4.3893,-4.3893,-4.3951,-4.4489,-4.4701,-4.4778,-4.5383,-4.5594,-4.5594,-4.5594,-4.5594,-4.5594,-4.5594,-4.5594,-4.5594,-4.5594,-4.5594,-4.5594,-4.5594,-4.5594,-4.5594,-4.5594,-4.5594,-4.5594,-4.5594,-4.5594,-4.5594,-4.5594,-4.5594,-4.5594,-4.5594,-4.5594,-4.5594,-4.5594,-4.5594,-4.5594,-4.5594,-4.5594,-4.5594,-4.5594,-4.5594,-4.5594,-4.5594,-4.5594,-4.5594,-4.5594,-4.5594,-4.5594,-4.5594,-4.5594,-4.5594,-4.5594,-4.5594,-4.5594,-4.5594,-4.5594,-4.5594,-4.5594,-4.5594,-4.5594,-4.5594,-4.5594,-4.5594,-4.5594,-4.5594,-4.5594,-4.5594,-4.5594,-4.5594,-4.5594,-4.5594,-4.5594,-4.5594,-4.5594,-4.555,-4.5505,-4.5594,-4.5594,-4.5594,-4.5594,-4.5594,-4.5594,-4.5594,-4.5594,-4.5594,-4.5594,-4.5594,-4.5594,-4.5594,-4.5594,-4.5594,-4.5594,-4.5594,-4.5594,-4.5594,-4.5594,-4.5594,-4.5594,-4.5594,-4.5594,-4.5594,-4.5594,-4.5594,-4.5594,-4.5594,-4.5594,-4.5594,-4.5594,-4.5594,-4.5594,-4.5594,-4.5594,-4.5594,-4.5594,-4.5594,-4.5594,-4.5594,-4.5594,-4.5594,-4.5594,-4.5594,-4.5594,-4.5594,-4.5594,-4.5594,-4.5594,-4.5594,-4.5594,-4.5594,-4.5594,-4.5594,-4.5594,-4.5594,-4.5594,-4.5594,-4.5594,-4.5594,-4.5594,-4.5594,-4.5594,-4.5594,-4.5594,-4.5594,-4.5594,-4.5594,-4.5594,-4.5594,-4.5594,-4.5594,-4.5594,-4.5594,-4.5594,-4.5594,-4.5594,-4.5594,-4.5594,-4.5594,-4.5594,-4.5594,-4.5594,-4.5594,-4.5594,-4.5594,-4.5594,-4.5594,-4.5594,-4.5594,-4.5594,-4.5594,-4.5594,-4.5594,-4.5594,-4.5594,-4.5594,-4.5594,-4.5594,-4.5594,-4.5594,-4.5594,-4.5594,-4.5594,-4.5594,-4.5594,-4.5594,-4.5594,-4.5594,-4.5594,-4.5594,-4.5594,-4.5594,-4.5429,-4.5316,-4.5594,-4.5594,-4.5594,-4.5594,-4.5594,-4.5594,-4.5594,-4.5594,-4.5594,-4.5594,-4.5594,-4.5594,-4.5594,-4.5594,-4.5594,-4.5594,-4.5594,-4.5594,-4.5594,-4.5594,-4.5594,-4.5594,-4.5594,-4.5594,-4.5594,-4.5594,-4.5594,-4.5594,-4.5594,-4.5594,-4.5594,-4.5594,-4.5594,-4.5594,-4.5594,-4.5594,-4.5594,-4.5594,-4.5594,-4.5594,-4.5594,-4.5594,-4.5594,-4.5594,-4.5594,-4.5594,-4.5594,-4.5594,-4.5594,-4.5594,-4.5594,-4.5594,-4.5594,-4.5594,-4.5594,-4.5594,-4.5594,-4.5594,-4.5594,-4.5594,-4.5594,-4.5594,-4.5594,-4.5594,-4.5594,-4.5594,-4.5594,-4.5594,-4.5594,-4.5594,-4.5594,-4.5594,-4.5594,-4.5594,-4.5594,-4.5594,-4.5594,-4.5594,-4.5594,-4.5594,-4.5594,-4.5594,-4.5594,-4.5594,-4.5594,-4.5594,-4.5594,-4.5594,-4.5594,-4.5594,-4.5594,-4.5594,-4.5594,-4.5594,-4.5594,-4.5594,-4.5594,-4.5594,-4.5594,-4.5594,-4.5594,-4.5594,-4.5594,-4.5594,-4.5594,-4.5594,-4.5594,-4.5594,-4.5594,-4.5594,-4.5594,-4.5594,-4.5577,-4.54,-4.5263,-4.5218,-4.5594,-4.5594,-4.5594,-4.5594,-4.5594,-4.5594,-4.5594,-4.5594,-4.5594,-4.5594,-4.5594,-4.5594,-4.5594,-4.5594,-4.5594,-4.5594,-4.5594,-4.5594,-4.5594,-4.5594,-4.5594,-4.5594,-4.5594,-4.5594,-4.5594,-4.5594,-4.5594,-4.5594,-4.5594,-4.5594,-4.5594,-4.5594,-4.5594,-4.5594,-4.5594,-4.5594,-4.5594,-4.5594,-4.5594,-4.5594,-4.5594,-4.5594,-4.5594,-4.5594,-4.5594,-4.5594,-4.5594,-4.5594,-4.5594,-4.5594,-4.5594,-4.5594,-4.5594,-4.5594,-4.5594,-4.5594,-4.5594,-4.5594,-4.5594,-4.5594,-4.5594,-4.5594,-4.5594,-4.5594,-4.5594,-4.5594,-4.5594,-4.5594,-4.5594,-4.5594,-4.5594,-4.5594,-4.5594,-4.5594,-4.5594,-4.5594,-4.5594,-4.5594,-4.5594,-4.5594,-4.5594,-4.5594,-4.5594,-4.5594,-4.5594,-4.5594,-4.5594,-4.5594,-4.5594,-4.5594,-4.5594,-4.5594,-4.5594,-4.5594,-4.5594,-4.5594,-4.5594,-4.5594,-4.5594,-4.5594,-4.5594,-4.5594,-4.5594,-4.5594,-4.5594,-4.5594,-4.5594,-4.5594,-4.5594,-4.5586,-4.5485,-4.5438,-4.541,-4.5129,-4.4966,-4.4861,-4.5594,-4.5594,-4.5594,-4.5594,-4.5594,-4.5594,-4.5594,-4.5594,-4.5594,-4.5594,-4.5594,-4.5594,-4.5594,-4.5594,-4.5594,-4.5594,-4.5594,-4.5594,-4.5594,-4.5594,-4.5594,-4.5594,-4.5594,-4.5594,-4.5594,-4.5594,-4.5594,-4.5594,-4.5594,-4.5594,-4.5594,-4.5594,-4.5594,-4.5594,-4.5594,-4.5594,-4.5594,-4.5594,-4.5594,-4.5594,-4.5594,-4.5594,-4.5594,-4.5594,-4.5594,-4.5594,-4.5594,-4.5594,-4.5594,-4.5594,-4.5594,-4.5594,-4.5594,-4.5594,-4.5594,-4.5594,-4.5594,-4.5594,-4.5594,-4.5594,-4.5594,-4.5594,-4.5594,-4.5594,-4.5594,-4.5594,-4.5594,-4.5594,-4.5594,-4.5594,-4.5594,-4.5594,-4.5594,-4.5594,-4.5594,-4.5594,-4.5594,-4.5594,-4.5594,-4.5594,-4.5594,-4.5594,-4.5594,-4.5594,-4.5594,-4.5594,-4.5594,-4.5594,-4.5594,-4.5594,-4.5594,-4.5594,-4.5594,-4.5594,-4.5594,-4.5594,-4.5594,-4.5594,-4.5594,-4.5594,-4.5594,-4.5594,-4.5594,-4.5594,-4.5594,-4.5594,-4.5594,-4.5594,-4.5586,-4.555,-4.5302,-4.5191,-4.5129,-4.4861,-4.4612,-4.4402,-4.5594,-4.5594,-4.5594,-4.5594,-4.5594,-4.5594,-4.5594,-4.5594,-4.5594,-4.5594,-4.5594,-4.5594,-4.5594,-4.5594,-4.5594,-4.5594,-4.5594,-4.5594,-4.5594,-4.5594,-4.5594,-4.5594,-4.5594,-4.5594,-4.5594,-4.5594,-4.5594,-4.5594,-4.5594,-4.5594,-4.5594,-4.5594,-4.5594,-4.5594,-4.5594,-4.5594,-4.5594,-4.5594,-4.5594,-4.5594,-4.5594,-4.5594,-4.5594,-4.5594,-4.5594,-4.5594,-4.5594,-4.5594,-4.5594,-4.5594,-4.5594,-4.5594,-4.5594,-4.5594,-4.5594,-4.5594,-4.5594,-4.5594,-4.5594,-4.5594,-4.5594,-4.5594,-4.5594,-4.5594,-4.5594,-4.5594,-4.5594,-4.5594,-4.5594,-4.5594,-4.5594,-4.5594,-4.5594,-4.5594,-4.5594,-4.5594,-4.5594,-4.5594,-4.5594,-4.5594,-4.5594,-4.5594,-4.5594,-4.5594,-4.5594,-4.5594,-4.5594,-4.5594,-4.5594,-4.5594,-4.5594,-4.5594,-4.5594,-4.5594,-4.5594,-4.5594,-4.5594,-4.5594,-4.5594,-4.5594,-4.5594,-4.5594,-4.5594,-4.5594,-4.5594,-4.5594,-4.5594,-4.5594,-4.5485,-4.5273,-4.5222,-4.5074,-4.4849,-4.4585,-4.4452,-4.4374,-4.5594,-4.5594,-4.5594,-4.5594,-4.5594,-4.5594,-4.5594,-4.5594,-4.5594,-4.5594,-4.5594,-4.5594,-4.5594,-4.5594,-4.5594,-4.5594,-4.5594,-4.5594,-4.5594,-4.5594,-4.5594,-4.5594,-4.5594,-4.5594,-4.5594,-4.5594,-4.5594,-4.5594,-4.5594,-4.5594,-4.5594,-4.5594,-4.5594,-4.5594,-4.5594,-4.5594,-4.5594,-4.5594,-4.5594,-4.5594,-4.5594,-4.5594,-4.5594,-4.5594,-4.5594,-4.5594,-4.5594,-4.5594,-4.5594,-4.5594,-4.5594,-4.5594,-4.5594,-4.5594,-4.5594,-4.5594,-4.5594,-4.5594,-4.5594,-4.5594,-4.5594,-4.5594,-4.5594,-4.5594,-4.5594,-4.5594,-4.5594,-4.5594,-4.5594,-4.5594,-4.5594,-4.5594,-4.5594,-4.5594,-4.5594,-4.5594,-4.5594,-4.5594,-4.5594,-4.5594,-4.5594,-4.5594,-4.5594,-4.5594,-4.5594,-4.5594,-4.5594,-4.5586,-4.5559,-4.5559,-4.555,-4.5504,-4.5504,-4.5504,-4.5504,-4.5504,-4.5504,-4.5504,-4.5568,-4.5594,-4.5594,-4.5594,-4.5594,-4.5594,-4.5594,-4.5594,-4.5594,-4.5594,-4.5438,-4.5191,-4.5063,-4.4849,-4.4572,-4.4303,-4.4206,-4.4177,-4.5594,-4.5594,-4.5594,-4.5594,-4.5594,-4.5594,-4.5594,-4.5594,-4.5594,-4.5594,-4.5594,-4.5594,-4.5594,-4.5594,-4.5594,-4.5594,-4.5594,-4.5594,-4.5594,-4.5594,-4.5594,-4.5594,-4.5594,-4.5594,-4.5594,-4.5594,-4.5594,-4.5594,-4.5594,-4.5594,-4.5594,-4.5594,-4.5594,-4.5594,-4.5594,-4.5594,-4.5594,-4.5594,-4.5594,-4.5594,-4.5594,-4.5594,-4.5594,-4.5594,-4.5594,-4.5594,-4.5594,-4.5594,-4.5594,-4.5594,-4.5594,-4.5594,-4.5594,-4.5594,-4.5594,-4.5594,-4.5594,-4.5594,-4.5594,-4.5594,-4.5594,-4.5594,-4.5594,-4.5586,-4.5531,-4.5568,-4.5594,-4.5594,-4.5594,-4.5586,-4.555,-4.5522,-4.5522,-4.5522,-4.5522,-4.5559,-4.5586,-4.5594,-4.5594,-4.5594,-4.5594,-4.5594,-4.5594,-4.5594,-4.5594,-4.5594,-4.5594,-4.5568,-4.5504,-4.5504,-4.5476,-4.541,-4.54,-4.54,-4.54,-4.54,-4.54,-4.541,-4.5513,-4.5568,-4.5568,-4.5577,-4.5577,-4.5568,-4.5577,-4.5577,-4.5568,-4.5577,-4.54,-4.5096,-4.4908,-4.4624,-4.4294,-4.4048,-4.3976,-4.3961,-4.5594,-4.5594,-4.5594,-4.5594,-4.5594,-4.5594,-4.5594,-4.5594,-4.5594,-4.5594,-4.5594,-4.5594,-4.5594,-4.5594,-4.5594,-4.5594,-4.5594,-4.5594,-4.5594,-4.5594,-4.5594,-4.5594,-4.5594,-4.5594,-4.5594,-4.5594,-4.5594,-4.5594,-4.5594,-4.5594,-4.5594,-4.5594,-4.5594,-4.5594,-4.5594,-4.5594,-4.5594,-4.5594,-4.5594,-4.5594,-4.5594,-4.5594,-4.5594,-4.5594,-4.5594,-4.5594,-4.5594,-4.5594,-4.5594,-4.5594,-4.5594,-4.5594,-4.5594,-4.5594,-4.5594,-4.5594,-4.5594,-4.5594,-4.5594,-4.5594,-4.5594,-4.5594,-4.5594,-4.555,-4.5312,-4.5429,-4.5594,-4.5594,-4.5594,-4.5522,-4.5302,-4.5253,-4.5253,-4.5253,-4.5253,-4.5332,-4.5568,-4.5594,-4.5594,-4.5594,-4.5594,-4.5594,-4.5594,-4.5594,-4.5594,-4.5594,-4.5594,-4.5568,-4.5504,-4.5504,-4.5476,-4.541,-4.54,-4.54,-4.54,-4.54,-4.54,-4.541,-4.5419,-4.5429,-4.5429,-4.5495,-4.5485,-4.5429,-4.5495,-4.5485,-4.5429,-4.5495,-4.5222,-4.4776,-4.4985,-4.4612,-4.3961,-4.3867,-4.3837,-4.3837,-4.5594,-4.5594,-4.5594,-4.5594,-4.5594,-4.5594,-4.5594,-4.5594,-4.5594,-4.5594,-4.5594,-4.5594,-4.5594,-4.5594,-4.5594,-4.5594,-4.5594,-4.5594,-4.5594,-4.5594,-4.5594,-4.5594,-4.5594,-4.5594,-4.5594,-4.5594,-4.5594,-4.5594,-4.5594,-4.5594,-4.5594,-4.5594,-4.5594,-4.5594,-4.5594,-4.5594,-4.5594,-4.5594,-4.5594,-4.5594,-4.5594,-4.5594,-4.5594,-4.5594,-4.5594,-4.5594,-4.5594,-4.5594,-4.5594,-4.5594,-4.5594,-4.5594,-4.5594,-4.5594,-4.5594,-4.5594,-4.5594,-4.5594,-4.5594,-4.5594,-4.5594,-4.5594,-4.5495,-4.5342,-4.5222,-4.518,-4.514,-4.514,-4.5263,-4.5283,-4.503,-4.5096,-4.514,-4.5007,-4.5096,-4.5243,-4.5352,-4.5504,-4.5594,-4.5594,-4.5594,-4.5594,-4.5594,-4.5594,-4.5594,-4.5594,-4.5568,-4.5513,-4.5438,-4.5429,-4.5409,-4.536,-4.5341,-4.5341,-4.5341,-4.5341,-4.5341,-4.5341,-4.5341,-4.537,-4.541,-4.5429,-4.5438,-4.5467,-4.5495,-4.5419,-4.5302,-4.5322,-4.503,-4.4533,-4.4624,-4.4318,-4.3835,-4.3804,-4.3804,-4.3788]},{"header":{"parameterUnit":"m.s-1","parameterCategory":1,"la1":30.6,"la2":28.766,"lo1":-90.7593,"lo2":-88.6598,"dy":0.0162,"dx":0.0183,"nx":116,"ny":114,"refTime":"2023-03-02T06:00:00:Z","depth":0,"parameterNumber":3,"parameterNumberName":"V-component_of_WINDS"},"data":[0.0,0.0,0.0,0.0,0.0,0.0,0.0,0.0,0.0,0.0,0.0,0.0,0.0,0.0,0.0,0.0,0.0,0.0,0.0,0.0,0.0,0.0,0.0,0.0,0.0,0.0,0.0,0.0,0.0,0.0,0.0,0.0,0.0,0.0,0.0,0.0,0.0,0.0,0.0,0.0,0.0,0.0,0.0,0.0,0.0,0.0,0.0,0.0,0.0,0.0,0.0,0.0,0.0,0.0,0.0,0.0,0.0,0.0,0.0,0.0,0.0,0.0,0.0,0.0,0.0,0.0,0.0,0.0,0.0,0.0,0.0,0.0,0.0,0.0,0.0,0.0,0.0,0.0,0.0,0.0,0.0,0.0,0.0,0.0,0.0,0.0,0.0,0.0,0.0,0.0,0.0,0.0,0.0,0.0,0.0,0.0,0.0,0.0,0.0,0.0,0.0,0.0,0.0,0.0,0.0,0.0,0.0,0.0,0.0,0.0,0.0,0.0,0.0,0.0,0.0,0.0,0.0,0.0,0.0,0.0,0.0,0.0,0.0,0.0,0.0,0.0,0.0,0.0,0.0,0.0,0.0,0.0,0.0,0.0,0.0,0.0,0.0,0.0,0.0,0.0,0.0,0.0,0.0,0.0,0.0,0.0,0.0,0.0,0.0,0.0,0.0,0.0,0.0,0.0,0.0,0.0,0.0,0.0,0.0,0.0,0.0,0.0,0.0,0.0,0.0,0.0,0.0,0.0,0.0,0.0,0.0,0.0,0.0,0.0,0.0,0.0,0.0,0.0,0.0,0.0,0.0,0.0,0.0,0.0,0.0,0.0,0.0,0.0,0.0,0.0,0.0,0.0,0.0,0.0,0.0,0.0,0.0,0.0,0.0,0.0,0.0,0.0,0.0,0.0,0.0,0.0,0.0,0.0,0.0,0.0,0.0,0.0,0.0,0.0,0.0,0.0,0.0,0.0,0.0,0.0,0.0,0.0,0.0,0.0,0.0,0.0,0.0,0.0,0.0,0.0,0.0,0.0,0.0,0.0,0.0,0.0,0.0,0.0,0.0,0.0,0.0,0.0,0.0,0.0,0.0,0.0,0.0,0.0,0.0,0.0,0.0,0.0,0.0,0.0,0.0,0.0,0.0,0.0,0.0,0.0,0.0,0.0,0.0,0.0,0.0,0.0,0.0,0.0,0.0,0.0,0.0,0.0,0.0,0.0,0.0,0.0,0.0,0.0,0.0,0.0,0.0,0.0,0.0,0.0,0.0,0.0,0.0,0.0,0.0,0.0,0.0,0.0,0.0,0.0,0.0,0.0,0.0,0.0,0.0,0.0,0.0,0.0,0.0,0.0,0.0,0.0,0.0,0.0,0.0,0.0,0.0,0.0,0.0,0.0,0.0,0.0,0.0,0.0,0.0,0.0,0.0,0.0,0.0,0.0,0.0,0.0,0.0,0.0,0.0,0.0,0.0,0.0,0.0,0.0,0.0,0.0,0.0,0.0,0.0,0.0,0.0,0.0,0.0,0.0,0.0,0.0,0.0,0.0,0.0,0.0,0.0,0.0,0.0,0.0,0.0,0.0,0.0,0.0,0.0,0.0,0.0,0.0,0.0,0.0,0.0,0.0,0.0,0.0,0.0,0.0,0.0,0.0,0.0,0.0,0.0,0.0,0.0,0.0,0.0,0.0,0.0,0.0,0.0,0.0,0.0,0.0,0.0,0.0,0.0,0.0,0.0,0.0,0.0,0.0,0.0,0.0,0.0,0.0,0.0,0.0,0.0,0.0,0.0,0.0,0.0,0.0,0.0,0.0,0.0,0.0,0.0,0.0,0.0,0.0,0.0,0.0,0.0,0.0,0.0,0.0,0.0,0.0,0.0,0.0,0.0,0.0,0.0,0.0,0.0,0.0,0.0,0.0,0.0,0.0,0.0,0.0,0.0,0.0,0.0,0.0,0.0,0.0,0.0,0.0,0.0,0.0,0.0,0.0,0.0,0.0,0.0,0.0,0.0,0.0,0.0,0.0,0.0,0.0,0.0,0.0,0.0,0.0,0.0,0.0,0.0,0.0,0.0,0.0,0.0,0.0,0.0,0.0,0.0,0.0,0.0,0.0,0.0,0.0,0.0,0.0,0.0,0.0,0.0,0.0,0.0,0.0,0.0,0.0,0.0,0.0,0.0,0.0,0.0,0.0,0.0,0.0,0.0,0.0,0.0,0.0,0.0,0.0,0.0,0.0,0.0,0.0,0.0,0.0,0.0,0.0,0.0,0.0,0.0,0.0,0.0,0.0,0.0,0.0,0.0,0.0,0.0,0.0,0.0,0.0,0.0,0.0,0.0,0.0,0.0,0.0,0.0,0.0,0.0,0.0,0.0,0.0,0.0,0.0,0.0,0.0,0.0,0.0,0.0,0.0,0.0,0.0,0.0,0.0,0.0,0.0,0.0,0.0,0.0,0.0,0.0,0.0,0.0,0.0,0.0,0.0,0.0,0.0,0.0,0.0,0.0,0.0,0.0,0.0,0.0,0.0,0.0,0.0,0.0,0.0,0.0,0.0,0.0,0.0,0.0,0.0,0.0,0.0,0.0,0.0,0.0,0.0,0.0,0.0,0.0,0.0,0.0,0.0,0.0,0.0,0.0,0.0,0.0,0.0,0.0,0.0,0.0,0.0,0.0,0.0,0.0,0.0,0.0,0.0,0.0,0.0,0.0,0.0,0.0,0.0,0.0,0.0,0.0,0.0,0.0,0.0,0.0,0.0,0.0,0.0,0.0,0.0,0.0,0.0,0.0,0.0,0.0,0.0,0.0,0.0,0.0,0.0,0.0,0.0,0.0,0.0,0.0,0.0,0.0,0.0,0.0,0.0,0.0,0.0,0.0,0.0,0.0,0.0,0.0,0.0,0.0,0.0,0.0,0.0,0.0,0.0,0.0,0.0,0.0,0.0,0.0,0.0,0.0,0.0,0.0,0.0,0.0,0.0,0.0,0.0,0.0,0.0,0.0,0.0,0.0,0.0,0.0,0.0,0.0,0.0,0.0,0.0,0.0,0.0,0.0,0.0,0.0,0.0,0.0,0.0,0.0,0.0,0.0,0.0,0.0,0.0,0.0,0.0,0.0,0.0,0.0,0.0,0.0,0.0,0.0,0.0,0.0,0.0,0.0,0.0,0.0,0.0,0.0,0.0,0.0,0.0,0.0,0.0,0.0,0.0,0.0,0.0,0.0,0.0,0.0,0.0,0.0,0.0,0.0,0.0,0.0,0.0,0.0,0.0,0.0,0.0,0.0,0.0,0.0,0.0,0.0,0.0,0.0,0.0,0.0,0.0,0.0,0.0,0.0,0.0,0.0,0.0,0.0,0.0,0.0,0.0,0.0,0.0,0.0,0.0,0.0,0.0,0.0,0.0,0.0,0.0,0.0,0.0,0.0,0.0,0.0,0.0,0.0,0.0,0.0,0.0,0.0,0.0,0.0,0.0,0.0,0.0,0.0,0.0,0.0,0.0,0.0,0.0,0.0,0.0,0.0,0.0,0.0,0.0,0.0,0.0,0.0,0.0,0.0,0.0,0.0,0.0,0.0,0.0,0.0,0.0,0.0,0.0,0.0,0.0,0.0,0.0,0.0,0.0,0.0,0.0,0.0,0.0,0.0,0.0,0.0,0.0,0.0,0.0,0.0,0.0,0.0,0.0,0.0,0.0,0.0,0.0,0.0,0.0,0.0,0.0,0.0,0.0,0.0,0.0,0.0,0.0,0.0,0.0,0.0,0.0,0.0,0.0,0.0,0.0,0.0,0.0,0.0,0.0,0.0,0.0,0.0,0.0,0.0,0.0,0.0,0.0,0.0,0.0,0.0,0.0,0.0,0.0,0.0,0.0,0.0,0.0,0.0,0.0,0.0,0.0,0.0,0.0,0.0,0.0,0.0,0.0,0.0,0.0,0.0,0.0,0.0,0.0,0.0,0.0,0.0,0.0,0.0,0.0,0.0,0.0,0.0,0.0,0.0,0.0,0.0,0.0,0.0,0.0,0.0,0.0,0.0,0.0,0.0,0.0,0.0,0.0,0.0,0.0,0.0,0.0,0.0,0.0,0.0,0.0,0.0,0.0,0.0,0.0,0.0,0.0,0.0,0.0,0.0,0.0,0.0,0.0,0.0,0.0,0.0,0.0,0.0,0.0,0.0,0.0,0.0,0.0,0.0,0.0,0.0,0.0,0.0,0.0,0.0,0.0,0.0,0.0,0.0,0.0,0.0,0.0,0.0,0.0,0.0,0.0,0.0,0.0,0.0,0.0,0.0,0.0,0.0,0.0,0.0,0.0,0.0,0.0,0.0,0.0,0.0,0.0,0.0,0.0,0.0,0.0,0.0,0.0,0.0,0.0,0.0,0.0,0.0,0.0,0.0,0.0,0.0,0.0,0.0,0.0,0.0,0.0,0.0,0.0,0.0,0.0,0.0,0.0,0.0,0.0,0.0,0.0,0.0,0.0,0.0,0.0,0.0,0.0,0.0,0.0,0.0,0.0,0.0,0.0,0.0,0.0,0.0,0.0,0.0,0.0,0.0,0.0,0.0,0.0,0.0,0.0,0.0,0.0,0.0,0.0,0.0,0.0,0.0,0.0,0.0,0.0,0.0,0.0,0.0,0.0,0.0,0.0,0.0,0.0,0.0,0.0,0.0,0.0,0.0,0.0,0.0,0.0,0.0,0.0,0.0,0.0,0.0,0.0,0.0,0.0,0.0,0.0,0.0,0.0,0.0,0.0,0.0,0.0,0.0,0.0,0.0,0.0,0.0,0.0,0.0,0.0,0.0,0.0,0.0,0.0,0.0,0.0,0.0,0.0,0.0,0.0,0.0,0.0,0.0,0.0,0.0,0.0,0.0,0.0,0.0,0.0,0.0,0.0,0.0,0.0,0.0,0.0,0.0,0.0,0.0,0.0,0.0,0.0,0.0,0.0,0.0,0.0,0.0,0.0,0.0,0.0,0.0,0.0,0.0,0.0,0.0,0.0,0.0,0.0,0.0,0.0,0.0,0.0,0.0,0.0,0.0,0.0,0.0,0.0,0.0,0.0,0.0,0.0,0.0,0.0,0.0,0.0,0.0,0.0,0.0,0.0,0.0,0.0,0.0,0.0,0.0,0.0,0.0,0.0,0.0,0.0,0.0,0.0,0.0,0.0,0.0,0.0,0.0,0.0,0.0,0.0,0.0,0.0,0.0,0.0,0.0,0.0,0.0,0.0,0.0,0.0,0.0,0.0,0.0,0.0,0.0,0.0,0.0,0.0,0.0,0.0,0.0,0.0,0.0,0.0,0.0,0.0,0.0,0.0,0.0,0.0,0.0,0.0,0.0,0.0,0.0,0.0,0.0,0.0,0.0,0.0,0.0,0.0,0.0,0.0,0.0,0.0,0.0,0.0,0.0,0.0,0.0,0.0,0.0,0.0,0.0,0.0,0.0,0.0,0.0,0.0,0.0,0.0,0.0,0.0,0.0,0.0,0.0,0.0,0.0,0.0,0.0,0.0,0.0,0.0,0.0,0.0,0.0,0.0,0.0,0.0,0.0,0.0,0.0,0.0,0.0,0.0,0.0,0.0,0.0,0.0,0.0,0.0,0.0,0.0,0.0,0.0,0.0,0.0,0.0,0.0,0.0,0.0,0.0,0.0,0.0,0.0,0.0,0.0,0.0,0.0,0.0,0.0,0.0,0.0,0.0,0.0,0.0,0.0,0.0,0.0,0.0,0.0,0.0,0.0,0.0,0.0,0.0,0.0,0.0,0.0,0.0,0.0,0.0,0.0,0.0,0.0,0.0,0.0,0.0,0.0,0.0,0.0,0.0,0.0,0.0,0.0,0.0,0.0,0.0,0.0,0.0,0.0,0.0,0.0,0.0,0.0,0.0,0.0,0.0,0.0,0.0,0.0,0.0,0.0,0.0,0.0,0.0,0.0,0.0,0.0,0.0,0.0,0.0,0.0,0.0,0.0,0.0,0.0,0.0,0.0,0.0,0.0,0.0,0.0,0.0,0.0,0.0,0.0,0.0,0.0,0.0,0.0,0.0,0.0,0.0,0.0,0.0,0.0,0.0,0.0,0.0,0.0,0.0,0.0,0.0,0.0,0.7024,0.7051,0.0,0.0,0.0,0.0,0.0,0.0,0.0,0.0,0.0,0.0,0.0,0.0,0.0,0.0,0.0,0.0,0.0,0.0,0.0,0.0,0.0,0.0,0.0,0.0,0.0,0.0,0.0,0.0,0.0,0.0,0.0,0.0,0.0,0.0,0.0,0.0,0.0,0.0,0.0,0.0,0.0,0.0,0.0,0.0,0.0,0.0,0.0,0.0,0.0,0.0,0.0,0.0,0.0,0.0,0.0,0.0,0.0,0.0,0.0,0.0,0.0,0.0,0.0,0.0,0.0,0.0,0.0,0.0,0.0,0.0,0.0,0.0,0.0,0.0,0.0,0.0,0.0,0.0,0.0,0.0,0.0,0.0,0.0,0.0,0.0,0.0,0.0,0.0,0.0,0.0,0.0,0.0,0.0,0.0,0.0,0.0,0.0,0.0,0.0,0.0,0.0,0.0,0.0,0.0,0.0,0.0,0.0,0.0,0.0,0.0,0.0,0.0,0.0,0.0,0.7147,0.7155,0.0,0.0,0.0,0.0,0.0,0.0,0.0,0.0,0.0,0.0,0.0,0.0,0.0,0.0,0.0,0.0,0.0,0.0,0.0,0.0,0.0,0.0,0.0,0.0,0.0,0.0,0.0,0.0,0.0,0.0,0.0,0.0,0.0,0.0,0.0,0.0,0.0,0.0,0.0,0.0,0.0,0.0,0.0,0.0,0.0,0.0,0.0,0.0,0.0,0.0,0.0,0.0,0.0,0.0,0.0,0.0,0.0,0.0,0.0,0.0,0.0,0.0,0.0,0.0,0.0,0.0,0.0,0.0,0.0,0.0,0.0,0.0,0.0,0.0,0.0,0.0,0.0,0.0,0.0,0.0,0.0,0.0,0.0,0.0,0.0,0.0,0.0,0.0,0.0,0.0,0.0,0.0,0.0,0.0,0.0,0.0,0.0,0.0,0.0,0.0,0.0,0.0,0.0,0.0,0.0,0.0,0.0,0.0,0.6864,0.6915,0.7016,0.7016,0.7119,0.721,0.721,0.721,0.721,0.721,0.0,0.0,0.0,0.0,0.0,0.0,0.0,0.0,0.0,0.0,0.0,0.0,0.0,0.0,0.0,0.0,0.0,0.0,0.0,0.0,0.0,-0.0494,0.0,0.0,0.0,0.0,0.0,0.0,0.0,0.0,0.0,0.0,0.0,0.0,0.0,0.0,0.0,0.0,0.0,0.0,0.0,0.0,0.0,0.0,0.0,0.0,0.0,0.0,0.0,0.0,0.0,0.0,0.0,0.0,0.0,0.0,0.0,0.0,0.0,0.0,0.0,0.0,0.0,0.0,0.0,0.0,0.0,0.0,0.0,0.0,0.0,0.0,0.0,0.0,0.0,0.0,0.0,0.0,0.0,0.0,0.0,0.0,0.0,0.0,0.0,0.0,0.6823,0.6948,0.0,0.0,0.0,0.0,0.0,0.0,0.0,0.0,0.0,0.0,0.0,0.0,0.0,0.6853,0.6959,0.6961,0.701,0.7163,0.7163,0.7172,0.7188,0.7188,0.7196,0.721,0.721,0.0,0.721,0.721,0.0,0.0,0.0,0.0,0.0,0.0,0.0,0.0,0.0,0.0,0.0,0.0,0.0,0.0,0.0,0.0,0.0,0.0,0.0,0.0,0.0,-0.0584,0.0,0.0,0.0,0.0,0.0,0.0,0.0,0.0,0.0,0.0,0.0,0.0,0.0,0.0,0.0,0.0,0.0,0.0,0.0,0.0,0.0,0.0,0.0,0.0,0.0,0.0,0.0,0.0,0.0,0.0,0.0,0.0,0.0,0.0,0.0,0.0,0.0,0.0,0.0,0.0,0.0,0.0,0.0,0.0,0.0,0.0,0.0,0.0,0.0,0.0,0.0,0.0,0.0,0.0,0.0,0.0,0.0,0.0,0.0,0.0,0.0,0.0,0.0,0.6872,0.6948,0.7122,0.7136,0.7155,0.0,0.0,0.0,0.0,0.0,0.0,0.0,0.0,0.0,0.6983,0.6934,0.6961,0.7136,0.7136,0.7161,0.721,0.721,0.721,0.721,0.721,0.721,0.721,0.721,0.721,0.721,0.721,0.721,0.721,0.0,0.0,0.0,0.0,0.721,0.721,0.0,0.0,0.0,0.0,0.0,0.0,0.0,0.0,0.0,0.0,0.0,0.0,-0.1883,-0.0942,-0.0269,0.0,0.0,0.0,0.0,0.0,0.0,0.0,0.0,0.0,0.0,0.0,0.0,0.0,0.0,0.0,0.0,0.0,0.0,0.0,0.0,0.0,0.0,0.0,0.0,0.0,0.0,0.0,0.0,0.0,0.0,0.0,0.0,0.0,0.0,0.0,0.0,0.0,0.0,0.0,0.0,0.0,0.0,0.0,0.0,0.0,0.0,0.0,0.0,0.0,0.0,0.0,0.0,0.0,0.0,0.0,0.0,0.0,0.0,0.0,0.0,0.0,0.0,0.701,0.7114,0.7199,0.721,0.721,0.0,0.0,0.0,0.0,0.0,0.0,0.7032,0.6999,0.6997,0.7027,0.7029,0.7122,0.721,0.721,0.721,0.721,0.721,0.721,0.721,0.721,0.721,0.721,0.721,0.721,0.721,0.721,0.721,0.721,0.721,0.721,0.721,0.721,0.721,0.721,0.0,0.0,0.0,0.0,0.0,0.0,0.0,0.0,0.0,0.0,0.0,-0.3851,-0.2913,-0.1928,-0.0987,-0.009,0.0,0.0,0.0,0.0,0.0,0.0,0.0,0.0,0.0,0.0,0.0,0.0,0.0,0.0,0.0,0.0,0.0,0.0,0.0,0.0,0.0,0.0,0.0,0.0,0.0,0.0,0.0,0.0,0.0,0.0,0.0,0.0,0.0,0.0,0.0,0.0,0.0,0.0,0.0,0.0,0.0,0.0,0.0,0.0,0.0,0.0,0.0,0.0,0.0,0.0,0.0,0.0,0.0,0.0,0.0,0.0,0.0,0.0,0.0,0.0,0.0,0.0,0.0,0.721,0.721,0.0,0.0,0.0,0.0,0.721,0.7109,0.7037,0.7196,0.7046,0.7035,0.7199,0.7202,0.7204,0.721,0.721,0.721,0.721,0.721,0.721,0.721,0.721,0.721,0.721,0.721,0.721,0.721,0.721,0.721,0.721,0.721,0.721,0.721,0.721,0.721,0.721,0.0,0.0,0.0,0.0,0.0,0.0,0.0,0.0,-0.6598,-0.6004,-0.4987,-0.3941,-0.3001,-0.2017,-0.1037,-0.0091,0.0,0.0,0.0,0.0,0.0,0.0,0.0,0.0,0.0,0.0,0.0,0.0,0.0,0.0,0.0,0.0,0.0,0.0,0.0,0.0,0.0,0.0,0.0,0.0,0.0,0.0,0.0,0.0,0.0,0.0,0.0,0.0,0.0,0.0,0.0,0.0,0.0,0.0,0.0,0.0,0.0,0.0,0.0,0.0,0.0,0.0,0.0,0.0,0.0,0.0,0.0,0.0,0.0,0.0,0.0,0.0,0.0,0.0,0.0,0.0,0.0,0.0,0.0,0.721,0.721,0.0,0.721,0.721,0.721,0.721,0.7172,0.7166,0.7207,0.7172,0.7166,0.721,0.721,0.721,0.721,0.721,0.721,0.721,0.721,0.721,0.721,0.721,0.721,0.721,0.721,0.721,0.721,0.721,0.721,0.721,0.721,0.721,0.721,0.721,0.721,0.721,0.0,0.0,0.0,0.0,0.0,0.0,0.0,0.0,-0.6732,-0.6131,-0.5336,-0.4478,-0.3527,-0.2534,-0.1502,-0.0554,-0.019,0.0,0.0,0.0,0.0,0.0,0.0,0.0,0.0,0.0,0.0,0.0,0.0,0.0,0.0,0.0,0.0,0.0,0.0,0.0,0.0,0.0,0.0,0.0,0.0,0.0,0.0,0.0,0.0,0.0,0.0,0.0,0.0,0.0,0.0,0.0,0.0,0.0,0.0,0.0,0.0,0.0,0.0,0.0,0.0,0.0,0.0,0.0,0.0,0.0,0.0,0.0,0.0,0.0,0.0,0.0,0.0,0.0,0.0,0.0,0.0,0.721,0.721,0.721,0.721,0.721,0.721,0.721,0.721,0.721,0.721,0.721,0.721,0.721,0.721,0.721,0.721,0.721,0.721,0.721,0.721,0.721,0.721,0.721,0.721,0.721,0.721,0.721,0.721,0.721,0.721,0.721,0.721,0.721,0.721,0.721,0.721,0.721,0.721,0.721,0.0,0.0,0.0,0.0,0.0,0.0,0.0,-0.7122,-0.6891,-0.6365,-0.6059,-0.554,-0.4614,-0.3598,-0.254,-0.148,-0.0576,-0.0049,0.0,0.0,0.0,0.0,0.0,0.0,0.0,0.0,0.0,0.0,0.0,0.0,0.0,0.0,0.0,0.0,0.0,0.0,0.0,0.0,0.0,0.0,0.0,0.0,0.0,0.0,0.0,0.0,0.0,0.0,0.0,0.0,0.0,0.0,0.0,0.0,0.0,0.0,0.0,0.0,0.0,0.0,0.0,0.0,0.0,0.0,0.0,0.0,0.0,0.0,0.0,0.0,0.0,0.0,0.0,0.0,0.0,0.0,0.721,0.721,0.721,0.721,0.721,0.721,0.721,0.721,0.721,0.721,0.721,0.721,0.721,0.721,0.721,0.721,0.721,0.721,0.721,0.721,0.721,0.721,0.721,0.721,0.721,0.721,0.721,0.721,0.721,0.721,0.721,0.721,0.721,0.721,0.721,0.721,0.721,0.721,0.721,0.721,0.0,0.0,0.0,0.0,0.0,0.0,0.0,-0.6978,-0.67,-0.6365,-0.6132,-0.5704,-0.4761,-0.4383,-0.3509,-0.1686,-0.1315,-0.0832,-0.0049,0.0,0.0,0.0,0.0,0.0,0.0,0.0,0.0,0.0,0.0,0.0,0.0,0.0,0.0,0.0,0.0,0.0,0.0,0.0,0.0,0.0,0.0,0.0,0.0,0.0,0.0,0.0,0.0,0.0,0.0,0.0,0.0,0.0,0.0,0.0,0.0,0.0,0.0,0.0,0.0,0.0,0.0,0.0,0.0,0.0,0.0,0.0,0.0,0.0,0.0,0.0,0.0,0.0,0.0,0.0,0.721,0.721,0.721,0.721,0.721,0.721,0.721,0.721,0.721,0.721,0.721,0.721,0.721,0.721,0.721,0.721,0.721,0.721,0.721,0.721,0.721,0.721,0.721,0.721,0.721,0.721,0.721,0.721,0.721,0.721,0.721,0.721,0.721,0.721,0.721,0.721,0.721,0.721,0.721,0.721,0.721,0.721,0.0,0.0,0.0,0.0,0.0,0.0,0.0,-0.6927,-0.6634,-0.6388,-0.6236,-0.5968,-0.5439,-0.4958,-0.4012,-0.2348,-0.1813,-0.1127,-0.0049,-0.0099,-0.01,0.0,-0.0099,-0.0098,0.0,0.0,0.0,0.0,0.0,0.0,0.0,0.0,0.0,0.0,0.0,0.0,0.0,0.0,0.0,0.0,0.0,0.0,0.0,0.0,0.0,0.0,0.0,0.0,0.0,0.0,0.0,0.0,0.0,0.0,0.0,0.0,0.0,0.0,0.0,0.0,0.0,0.0,0.0,0.0,0.0,0.0,0.0,0.0,0.0,0.0,0.0,0.0,0.0,0.0,0.721,0.721,0.721,0.721,0.721,0.721,0.721,0.721,0.721,0.721,0.721,0.721,0.721,0.721,0.721,0.721,0.721,0.721,0.721,0.721,0.721,0.721,0.721,0.721,0.7206,0.723,0.7233,0.7282,0.7307,0.7304,0.7252,0.723,0.7228,0.7232,0.721,0.721,0.0,0.0,0.0,0.0,0.721,0.721,0.0,0.0,0.0,0.0,0.0,0.0,0.0,-0.6942,-0.6692,-0.6437,-0.635,-0.6287,-0.6287,-0.545,-0.4418,-0.329,-0.2309,-0.1279,-0.0098,-0.0245,-0.0245,0.0,-0.0244,-0.0242,0.0,0.0,0.0,0.0,0.0,0.0,0.0,0.0,0.0,0.0,0.0,0.0,0.0,0.0,0.0,0.0,0.0,0.0,0.0,0.0,0.0,0.0,0.0,0.0,0.0,0.0,0.0,0.0,0.0,0.0,0.0,0.0,0.0,0.0,0.0,0.0,0.0,0.0,0.0,0.0,0.0,0.0,0.0,0.0,0.0,0.0,0.0,0.0,0.0,0.0,0.721,0.721,0.721,0.721,0.721,0.721,0.721,0.721,0.721,0.721,0.721,0.721,0.721,0.721,0.721,0.721,0.0,0.0,0.0,0.7218,0.7232,0.7232,0.7237,0.7251,0.7304,0.7298,0.7301,0.747,0.7519,0.7513,0.7347,0.7298,0.729,0.7225,0.7224,0.721,0.7196,0.7199,0.721,0.7196,0.7199,0.721,0.0,0.0,0.0,0.0,0.0,0.0,0.0,-0.6789,-0.6437,-0.6387,-0.6368,-0.6404,-0.6404,-0.6203,-0.5655,-0.4556,-0.3506,-0.2055,-0.0151,-0.0049,-0.0048,0.0,-0.0048,-0.0047,0.0,0.0,0.0,0.0,0.0,0.0,0.0,0.0,0.0,0.0,0.0,0.0,0.0,0.0,0.0,0.0,0.0,0.0,0.0,0.0,0.0,0.0,0.0,0.0,0.0,0.0,0.0,0.0051,0.0252,0.0908,0.0,0.0,0.0,0.0,0.0,0.0,0.0,0.0,0.0,0.0,0.0,0.0,0.0,0.0,0.0,0.0,0.0,0.0,0.0,0.7043,0.721,0.721,0.721,0.721,0.721,0.721,0.721,0.721,0.721,0.721,0.721,0.721,0.721,0.721,0.721,0.721,0.721,0.721,0.721,0.7201,0.7298,0.7301,0.735,0.7448,0.7472,0.0,0.7483,0.7508,0.7519,0.7516,0.7494,0.7483,0.7472,0.735,0.7241,0.7202,0.7054,0.7128,0.7199,0.7106,0.713,0.721,0.0,0.0,0.0,0.0,0.0,0.0,0.0,-0.6639,-0.6387,-0.6387,-0.6387,-0.6387,-0.6387,-0.6387,-0.5984,-0.4885,-0.3827,-0.251,-0.0896,-0.0937,-0.0687,-0.0049,-0.0146,-0.0146,0.0,0.0,0.0,0.0,0.0,0.0,0.0,0.0,0.0,0.0,0.0,0.0,0.0,0.0,0.0,0.0,0.0,0.0,0.0,0.0,0.0,0.0,0.0,0.0,0.0,0.0,0.0,0.0,0.0,0.0353,0.0807,0.0,0.0,0.0,0.0,0.0,0.0,0.0,0.0,0.0,0.0,0.0,0.0,0.0,0.0,0.307,0.4293,0.0,0.5594,0.6207,0.6818,0.7191,0.7133,0.7125,0.7147,0.7202,0.721,0.721,0.721,0.721,0.721,0.721,0.721,0.721,0.721,0.721,0.721,0.721,0.7214,0.7274,0.728,0.7339,0.7459,0.7519,0.7581,0.7611,0.7611,0.7668,0.7695,0.7693,0.7635,0.7611,0.76,0.7478,0.7391,0.7317,0.7141,0.7161,0.7202,0.7147,0.7125,0.7125,0.0,0.0,0.0,0.0,0.0,0.0,0.0,-0.6589,-0.6387,-0.6387,-0.6387,-0.6387,-0.6387,-0.6387,-0.5984,-0.4885,-0.4029,-0.2953,-0.1677,-0.1794,-0.1345,-0.0049,-0.0199,-0.0202,0.0,0.0,0.0,0.0,0.0,0.0,0.0,0.0,0.0,0.0,0.0,0.0,0.0,0.0,0.0,0.0,0.0,0.0,0.0,0.0,0.0,0.0,0.0,0.0,0.0,0.0,0.0,0.0,0.0,0.0,0.0,0.0,0.0,0.0,0.0,0.0,0.0,0.0,0.0,0.0,0.0,0.0,0.026,0.1272,0.1452,0.1804,0.301,0.4029,0.4862,0.5291,0.6176,0.6858,0.6964,0.695,0.6983,0.713,0.7161,0.7177,0.7177,0.7196,0.721,0.721,0.721,0.721,0.721,0.7232,0.7245,0.7245,0.7307,0.7325,0.735,0.7505,0.7565,0.7587,0.7687,0.7733,0.7739,0.7828,0.7872,0.7867,0.7774,0.7722,0.7695,0.7595,0.754,0.75,0.7301,0.7281,0.7273,0.7202,0.7133,0.7018,0.0,0.0,0.0,0.0,0.0,0.0,0.0,0.0,-0.6387,-0.6387,-0.6387,-0.6387,-0.6387,-0.6387,-0.5984,-0.4885,-0.4684,-0.3773,-0.1708,-0.1636,-0.113,-0.0049,-0.0049,-0.005,0.0,0.0,0.0,0.0,0.0,0.0,0.0,0.0,0.0,0.0,0.0,0.0,0.0,0.0,0.0,0.0,0.0,0.0,0.0,0.0,0.0,0.0,0.0,0.0,0.0,0.0,0.0,0.0,0.0,0.0,0.0,0.0,0.0,0.0,0.0,0.0,0.0,0.0,0.0,0.0,0.0,0.0,0.0051,0.0159,0.0214,0.0594,0.1781,0.2127,0.284,0.4879,0.5358,0.5762,0.668,0.6823,0.6828,0.6839,0.6937,0.7005,0.7005,0.715,0.721,0.721,0.721,0.721,0.721,0.7255,0.7315,0.7315,0.7434,0.7551,0.766,0.7674,0.7731,0.7831,0.7845,0.7853,0.7853,0.7867,0.7872,0.7869,0.7856,0.7796,0.7701,0.7687,0.7616,0.7516,0.7489,0.7478,0.744,0.7122,0.7114,0.7191,0.0,0.0,0.0,0.0,0.0,0.0,0.0,0.0,0.0,0.0,-0.6387,-0.6387,-0.6387,-0.6387,-0.6234,-0.5787,-0.5183,-0.413,-0.262,-0.1951,-0.1097,-0.005,0.0,0.0,0.0,0.0,0.0,0.0,0.0,0.0,0.0,0.0,0.0,0.0,0.0,0.0,0.0,0.0,0.0,0.0,0.0,0.0,0.0,0.0,0.0,0.0,0.0,0.0,0.0,0.0,0.0,0.0,0.0,0.0,0.0,0.0,0.0,0.0,0.0,0.0,0.0,0.0,0.0,0.0,0.0,0.0,0.0,0.0,0.0,0.0162,0.0668,0.1333,0.2091,0.0,0.3784,0.4376,0.4769,0.481,0.5,0.5569,0.5756,0.6134,0.6918,0.7144,0.721,0.721,0.721,0.721,0.721,0.7271,0.728,0.728,0.7524,0.7649,0.7701,0.7766,0.7823,0.7872,0.7872,0.7872,0.7872,0.7872,0.7872,0.7872,0.7872,0.7845,0.7801,0.7801,0.7769,0.7717,0.7652,0.7625,0.7589,0.7296,0.7176,0.7199,0.0,0.0,0.0,0.0,0.0,0.0,0.0,0.0,0.0,0.0,-0.6387,-0.6387,-0.6387,-0.6387,-0.6387,-0.6387,-0.5687,-0.4682,-0.3274,-0.2469,-0.1412,-0.0051,-0.0051,-0.0052,0.0,-0.0054,-0.0054,0.0,0.0,0.0,0.0,0.0,0.0,0.0,0.0,0.0,0.0,0.0,0.0,0.0,0.0,0.0,0.0,0.0,0.0,0.0,0.0,0.0,0.0,0.0,0.0,0.0,0.0,0.0,0.0,0.0,0.0,0.0,0.0,0.0,0.0,0.0,0.0,0.0,0.0,0.0,0.0,0.0,0.0,0.0,0.0,0.0716,0.1415,0.1671,0.2501,0.3093,0.3293,0.3336,0.3582,0.4266,0.4793,0.5431,0.6418,0.6892,0.7177,0.7207,0.721,0.7224,0.7203,0.732,0.7344,0.7434,0.7641,0.7747,0.7747,0.7831,0.7872,0.7872,0.7872,0.7872,0.7872,0.7872,0.7872,0.7872,0.7872,0.7872,0.7872,0.7872,0.7872,0.7861,0.778,0.7747,0.7722,0.7513,0.7361,0.7239,0.0,0.0,0.0,0.0,0.0,0.0,0.0,0.0,0.0,0.0,0.0,0.0,0.0,-0.6387,-0.6387,-0.6387,-0.6387,-0.5432,-0.3324,-0.3173,-0.2217,-0.0101,-0.0257,-0.026,0.0,-0.0264,-0.0267,0.0,0.0,0.0,0.0,0.0,0.0,0.0,0.0,0.0,0.0,0.0,0.0,0.0,0.0,0.0,0.0,0.0,0.0,0.0,0.0,0.0,0.0,0.0,0.0,0.0,0.0,0.0,0.0,0.0,0.0,0.0,0.0,0.0,0.0,0.0,0.0,0.0,0.0,0.0,0.0,0.0,0.0,0.0,0.0,0.0055,0.0379,0.1463,0.166,0.2009,0.3083,0.3226,0.3196,0.3252,0.4411,0.5184,0.0,0.633,0.7035,0.7202,0.721,0.7206,0.7269,0.7448,0.7568,0.7687,0.7804,0.7867,0.7867,0.7869,0.7872,0.7872,0.7872,0.7872,0.7872,0.7872,0.7872,0.7872,0.7872,0.7872,0.7872,0.7872,0.7872,0.7872,0.7867,0.7867,0.785,0.7733,0.7614,0.7491,0.0,0.0,0.0,0.0,0.0,0.0,0.0,0.0,0.0,0.0,0.0,0.0,0.0,0.0,0.0,0.0,-0.5734,-0.4732,-0.3274,-0.2519,-0.1513,-0.0051,-0.0102,-0.0153,-0.0255,-0.0363,-0.0419,-0.0524,-0.0371,-0.0267,-0.0267,-0.0107,0.0,0.0,0.0,0.0,0.0,0.0,0.0,0.0,0.0,0.0,0.0,0.0,0.0,0.0,0.0,0.0,0.0,0.0,0.0,0.0,0.0,0.0,0.0,0.0,0.0,0.0,0.0,0.0,0.0,0.0,0.0,0.0,0.0,0.0,0.0,0.0,0.0,0.0,0.0,0.0,0.0107,0.0469,0.0514,0.0661,0.101,0.1059,0.132,0.2069,0.2551,0.0,0.0,0.0,0.0,0.7207,0.723,0.7293,0.7277,0.7529,0.766,0.7701,0.7812,0.7872,0.7872,0.7872,0.7872,0.7872,0.7872,0.7872,0.7872,0.7872,0.7872,0.7872,0.7872,0.7872,0.7872,0.7872,0.7872,0.7872,0.7872,0.7872,0.7867,0.7828,0.7788,0.7725,0.0,0.0,0.0,0.0,0.0,0.0,0.0,0.0,0.0,0.0,0.0,0.0,0.0,0.0,0.0,0.0,0.0,-0.4732,-0.3274,-0.2569,-0.1513,-0.0051,-0.0101,-0.0202,-0.0253,-0.0358,-0.0463,-0.0514,-0.0364,-0.0262,-0.0262,-0.0105,0.0,0.0,0.0,0.0,0.0,0.0,0.0,0.0,0.0,0.0,0.0,0.0,0.0,0.0,0.0,0.0,0.0,0.0,0.0,0.0,0.0,0.0,0.0,0.0,0.0,0.0,0.0,0.0,0.0,0.0,0.0,0.0,0.0,0.0,0.0,0.0,0.0,0.0,0.0,0.0,0.0,0.0,0.0,0.0,0.0,0.0,0.0254,0.0931,0.1407,0.1957,0.0,0.0,0.0,0.6541,0.6642,0.6893,0.7342,0.7592,0.772,0.7761,0.7834,0.7872,0.7872,0.7872,0.7872,0.7872,0.7872,0.7872,0.7872,0.7872,0.7872,0.7872,0.7872,0.7872,0.7872,0.7872,0.7872,0.7872,0.7872,0.7872,0.7872,0.7872,0.7872,0.7842,0.0,0.0,0.0,0.0,0.0,0.0,0.0,0.0,0.0,0.0,0.0,0.0,0.0,0.0,0.0,0.0,0.0,0.0,-0.3324,-0.3224,-0.2267,-0.0101,-0.0253,-0.0253,-0.0051,-0.0253,-0.0303,-0.0051,-0.0051,0.0,0.0,0.0,0.0,0.0,0.0,0.0,0.0,0.0,0.0,0.0,0.0,0.0,0.0,0.0,0.0,0.0,0.0,0.0,0.0,0.0,0.0,0.0,0.0,0.0,0.0,0.0,0.0,0.0,0.0,0.0,0.0,0.0,0.0,0.0,0.0,0.0,0.0,0.0,0.0,0.0,0.0,0.0,0.0,0.0,0.0,0.0,0.0,0.0,0.0,0.0,0.0,0.0,0.0,0.0,0.0,0.5098,0.0,0.6007,0.7343,0.7525,0.77,0.7869,0.7872,0.7872,0.7872,0.7872,0.7872,0.7872,0.7872,0.7872,0.7872,0.7872,0.7872,0.7872,0.7872,0.7872,0.7872,0.7872,0.7872,0.7872,0.7872,0.7872,0.7872,0.7872,0.7872,0.7856,0.0,0.0,0.0,0.0,0.0,0.0,0.0,0.0,0.0,0.0,0.0,0.0,0.0,0.0,0.0,0.0,0.0,0.0,-0.3324,-0.3224,-0.2267,-0.0101,0.0,0.0,0.0,0.0,0.0,-0.0606,-0.0404,-0.0303,-0.0303,-0.0101,0.0,0.0,0.0,0.0,0.0,0.0,0.0,0.0,0.0,0.0,0.0,0.0,0.0,0.0,0.0,0.0,0.0,0.0,0.0,0.0,0.0,0.0,0.0,0.0,0.0,0.0,0.0,0.0,0.0,0.0,0.0,0.0,0.0,0.0,0.0,0.0,0.0,0.0,0.0,0.0,0.0,0.0,0.0,0.0,0.0,0.0,0.0,0.0,0.0,0.0483,0.0437,0.0721,0.0,0.0,0.3645,0.4821,0.609,0.6308,0.6862,0.7869,0.7872,0.7872,0.7872,0.7872,0.7872,0.7872,0.7872,0.7872,0.7872,0.7872,0.7872,0.7872,0.7872,0.7872,0.7872,0.7872,0.7872,0.7872,0.7872,0.7872,0.7872,0.7872,0.7872,0.7867,0.0,0.0,0.0,0.0,0.0,0.0,0.0,0.0,0.0,0.0,0.0,0.0,0.0,0.0,0.0,0.0,0.0,0.0,0.0,-0.2771,-0.1765,-0.0051,0.0,0.0,0.0,0.0,0.0,0.0,0.0,0.0,-0.0202,-0.0051,0.0,0.0,0.0,0.0,0.0,0.0,0.0,0.0,0.0,0.0,0.0,0.0,0.0,0.0,0.0,0.0,0.0,0.0,0.0,0.0,0.0,0.0,0.0,0.0,0.0,0.0,0.0,0.0,0.0,0.0,0.0,0.0,0.0,0.0,0.0,0.0,0.0,0.0,0.0,0.0,0.0,0.0,0.0,0.0,0.0,0.0,0.0,0.0,0.0,0.0,0.0,0.0,0.0285,0.0,0.2223,0.3786,0.5584,0.5857,0.6521,0.7869,0.7872,0.7872,0.7872,0.7872,0.7872,0.7872,0.7872,0.7872,0.7872,0.7872,0.7872,0.7872,0.7872,0.7872,0.7872,0.7872,0.7872,0.7872,0.7872,0.7872,0.7872,0.7872,0.7872,0.7872,0.0,0.0,0.0,0.0,0.0,0.0,0.0,0.0,0.0,0.0,0.0,0.0,0.0,0.0,0.0,0.0,0.0,0.0,0.0,0.0,0.0,0.0,0.0,0.0,0.0,0.0,0.0,0.0,0.0,0.0,0.0,0.0,0.0,0.0,0.0,0.0,0.0,0.0,0.0,0.0,0.0,0.0,0.0,0.0,0.0,0.0,0.0,0.0,0.0,0.0,0.0,0.0,0.0,0.0,0.0,0.0,0.0,0.0,0.0,0.0,0.0,0.0,0.0,0.0,0.0,0.0,0.0,0.0,0.0,0.0,0.0,0.0,0.0,0.0,0.0,0.0,0.0,0.0,0.0,0.0,0.0,0.0,0.0,0.0,0.0,0.0,0.1061,0.2731,0.5061,0.5314,0.609,0.7564,0.7808,0.7872,0.7872,0.7872,0.7872,0.7872,0.7872,0.7872,0.7872,0.7872,0.7872,0.7872,0.7872,0.7872,0.7872,0.7872,0.7872,0.7872,0.7872,0.7872,0.7872,0.7872,0.7872,0.7872,0.0,0.0,0.0,0.0,0.0,0.0,0.0,0.0,0.0,0.0,-0.6387,-0.6387,0.0,0.0,0.0,0.0,0.0,0.0,0.0,0.0,0.0,0.0,0.0,0.0,0.0,0.0,0.0,0.0,0.0,0.0,0.0,0.0,0.0,0.0,0.0,0.0,0.0,0.0,0.0,0.0,0.0,0.0,0.0,0.0,0.0,0.0,0.0,0.0,0.0,0.0,0.0,0.0,0.0,0.0,0.0,0.0,0.0,0.0,0.0,0.0,0.0,0.0,0.0,0.0,0.0,0.0,0.0,0.0,0.0,0.0,0.0,0.0,0.0,0.0,0.0,0.0,0.0,0.0,0.0,0.0,0.0,0.0,0.0,0.0,0.0,0.0,0.0239,0.1027,0.2575,0.2646,0.3756,0.6151,0.7319,0.7872,0.7872,0.7872,0.7872,0.7872,0.7872,0.7872,0.7872,0.7872,0.7872,0.7872,0.7872,0.7872,0.7872,0.7872,0.7872,0.7872,0.7872,0.7872,0.7872,0.7872,0.7872,0.7872,0.0,0.0,0.0,0.0,0.0,0.0,0.0,-0.6387,-0.6387,-0.6387,-0.6387,-0.6387,-0.6387,-0.6387,-0.6387,0.0,0.0,0.0,0.0,0.0,0.0,0.0,0.0,0.0,0.0,0.0,0.0,0.0,0.0,0.0,0.0,0.0,0.0,0.0,0.0,0.0,0.0,0.0,0.0,0.0,0.0,0.0,0.0,0.0,0.0,0.0,0.0,0.0,0.0,0.0,0.0,0.0,0.0,0.0,0.0,0.0,0.0,0.0,0.0,0.0,0.0,0.0,0.0,0.0,0.0,0.0,0.0,0.0,0.0,0.0,0.0,0.0,0.0,0.0,0.0,0.0,0.0,0.0,0.0,0.0,0.0,0.0,0.0,0.0,0.0,0.0,0.0,0.0612,0.191,0.3265,0.4616,0.5845,0.7194,0.7872,0.7872,0.7872,0.7872,0.7872,0.7872,0.7872,0.7872,0.7872,0.7872,0.7872,0.7872,0.7872,0.7872,0.7872,0.7872,0.7872,0.7872,0.7872,0.7872,0.7872,0.7872,0.7872,0.0,0.0,0.0,0.0,0.0,0.0,0.0,-0.6387,-0.6387,-0.6387,-0.6387,-0.6387,-0.6387,-0.6387,-0.6287,0.0,0.0,0.0,0.0,0.0,0.0,0.0,0.0,0.0,0.0,0.0,0.0,0.0,0.0,0.0,0.0,0.0,0.0,0.0,0.0,0.0,0.0,0.0,0.0,0.0,0.0,0.0,0.0,0.0,0.0,0.0,0.0,0.0,0.0,0.0,0.0,0.0,0.0,0.0,0.0,0.0,0.0,0.0,0.0,0.0,0.0,0.0,0.0,0.0,0.0,0.0,0.0,0.0,0.0,0.0,0.0,0.0,0.0,0.0,0.0,0.0,0.0,0.0,0.0,0.0,0.0,0.0,0.0,0.0,0.0,0.0,0.0,0.0432,0.1542,0.3817,0.5168,0.5475,0.6766,0.7625,0.7872,0.7872,0.7872,0.7872,0.7872,0.7872,0.7872,0.7872,0.7872,0.7872,0.7872,0.7872,0.7872,0.7872,0.7872,0.7872,0.7872,0.7872,0.7872,0.7872,0.7872,0.7872,0.0,0.0,0.0,0.0,0.0,0.0,0.0,-0.6387,-0.6387,-0.6387,-0.6387,-0.6387,-0.6387,-0.6387,-0.5987,0.0,0.0,0.0,0.0,0.0,0.0,0.0,0.0,0.0,0.0,0.0,0.0,0.0,0.0,0.0,0.0,0.0,0.0,0.0,0.0,0.0,0.0,0.0,0.0,0.0,0.0,0.0,0.0,0.0,0.0,0.0,0.0,0.0,0.0,0.0,0.0,0.0,0.0,0.0,0.0,0.0,0.0,0.0,0.0,0.0,0.0,0.0,0.0,0.0,0.0,0.0,0.0,0.0,0.0,0.0,0.0,0.0,0.0,0.0,0.0,0.0,0.0,0.0,0.0,0.0,0.0,0.0,0.0,0.0,0.0,0.0,0.0,0.0062,0.0185,0.1542,0.2895,0.4059,0.5414,0.6644,0.7872,0.7872,0.7872,0.7872,0.7872,0.7872,0.7872,0.7872,0.7872,0.7872,0.7872,0.7872,0.7872,0.7872,0.7872,0.7872,0.7872,0.7872,0.7872,0.7872,0.7872,0.7872,0.0,0.0,0.0,0.0,0.0,0.0,-0.6387,-0.6387,-0.6387,-0.6387,-0.6387,-0.6387,-0.6387,-0.5834,-0.5286,-0.4834,0.0,0.0,0.0,0.0,0.0,0.0,0.0,0.0,0.0,0.0,0.0,0.0,0.0,0.0,0.0,0.0,0.0,0.0,0.0,0.0,0.0,0.0,0.0,0.0,0.0,0.0,0.0,0.0,0.0,0.0,0.0,0.0,0.0,0.0,0.0,0.0,0.0,0.0,0.0,0.0,0.0,0.0,0.0,0.0,0.0,0.0,0.0,0.0,0.0,0.0,0.0,0.0,0.0,0.0,0.0,0.0,0.0,0.0,0.0,0.0,0.0,0.0,0.0,0.0,0.0,0.0,0.0,0.0,0.0,0.0,0.0,0.0,0.0,0.1296,0.2219,0.271,0.48,0.6151,0.6705,0.7503,0.7872,0.7872,0.7872,0.7872,0.7872,0.7872,0.7872,0.7872,0.7872,0.7872,0.7872,0.7872,0.7872,0.7872,0.7872,0.7872,0.7872,0.7872,0.7872,0.7872,0.0,0.0,0.0,0.0,0.0,-0.6387,-0.6387,-0.6387,-0.6387,-0.6387,-0.6387,-0.6287,-0.5984,-0.5233,-0.4533,-0.3929,-0.3173,0.0,0.0,0.0,0.0,0.0,0.0,0.0,0.0,0.0,0.0,0.0,0.0,0.0,0.0,0.0,0.0,0.0,0.0,0.0,0.0,0.0,0.0,0.0,0.0,0.0,0.0,0.0,0.0,0.0,0.0,0.0,0.0,0.0,0.0,0.0,0.0,0.0,0.0,0.0,0.0,0.0,0.0,0.0,0.0,0.0,0.0,0.0,0.0,0.0,0.0,0.0,0.0,0.0,0.0,0.0,0.0,0.0,0.0,0.0,0.0,0.0,0.0,0.0,0.0,0.0,0.0,0.0,0.0,0.0,0.0,0.0,0.0,0.0925,0.1603,0.1973,0.3756,0.5107,0.5906,0.6827,0.7503,0.7872,0.7872,0.7872,0.7872,0.7872,0.7872,0.7872,0.7872,0.7872,0.7872,0.7872,0.7872,0.7872,0.7872,0.7872,0.7872,0.7872,0.7872,0.7872,0.0,0.0,0.0,0.0,0.0,0.0,-0.6387,-0.6387,-0.6387,-0.6387,-0.6387,-0.5987,-0.4935,-0.4784,-0.3927,-0.1815,-0.1613,0.0,0.0,0.0,0.0,0.0,0.0,0.0,0.0,0.0,0.0,0.0,0.0,0.0,0.0,0.0,0.0,0.0,0.0,0.0,0.0,0.0,0.0,0.0,0.0,0.0,0.0,0.0,0.0,0.0,0.0,0.0,0.0,0.0,0.0,0.0,0.0,0.0,0.0,0.0,0.0,0.0,0.0,0.0,0.0,0.0,0.0,0.0,0.0,0.0,0.0,0.0,0.0,0.0,0.0,0.0,0.0,0.0,0.0,0.0,0.0,0.0,0.0,0.0,0.0,0.0,0.0,0.0,0.0,0.0,0.0,0.0,0.0,0.0,0.0617,0.1973,0.2035,0.3265,0.5845,0.5906,0.6582,0.7872,0.7872,0.7872,0.7872,0.7872,0.7872,0.7872,0.7872,0.7872,0.7872,0.7872,0.7872,0.7872,0.7872,0.7872,0.7872,0.7872,0.7872,0.7872,0.0,0.0,0.0,0.0,0.0,0.0,0.0,-0.6387,-0.6387,-0.6387,-0.6387,-0.5984,-0.4935,-0.413,-0.3123,-0.1714,-0.1613,0.0,0.0,0.0,0.0,0.0,0.0,0.0,0.0,0.0,0.0,0.0,0.0,0.0,0.0,0.0,0.0,0.0,0.0,0.0,0.0,0.0,0.0,0.0,0.0,0.0,0.0,0.0,0.0,0.0,0.0,0.0,0.0,0.0,0.0,0.0,0.0,0.0,0.0,0.0,0.0,0.0,0.0,0.0,0.0,0.0,0.0,0.0,0.0,0.0,0.0,0.0,0.0,0.0,0.0,0.0,0.0,0.0,0.0,0.0,0.0,0.0,0.0,0.0,0.0,0.0,0.0,0.0,0.0,0.0,0.0,0.0,0.0,0.0,0.0183,0.0617,0.1542,0.2834,0.449,0.5414,0.658,0.7872,0.7872,0.7872,0.7872,0.7872,0.7872,0.7872,0.7872,0.7872,0.7872,0.7872,0.7872,0.7872,0.7872,0.7872,0.7872,0.7872,0.7872,0.7872,0.0,0.0,0.0,0.0,0.0,0.0,0.0,-0.6387,-0.6387,-0.6387,-0.6034,-0.5384,-0.4331,-0.3224,-0.2167,-0.111,-0.1009,0.0,0.0,0.0,0.0,0.0,0.0,0.0,0.0,0.0,0.0,0.0,0.0,0.0,0.0,0.0,0.0,0.0,0.0,0.0,0.0,0.0,0.0,0.0,0.0,0.0,0.0,0.0,0.0,0.0,0.0,0.0,0.0,0.0,0.0,0.0,0.0,0.0,0.0,0.0,0.0,0.0,0.0,0.0,0.0,0.0,0.0,0.0,0.0,0.0,0.0,0.0,0.0,0.0,0.0,0.0,0.0,0.0,0.0,0.0,0.0,0.0,0.0,0.0,0.0,0.0,0.0,0.0,0.0,0.0,0.0,0.0,0.0,0.0,0.0,0.0,0.0797,0.2095,0.3875,0.4737,0.6088,0.7872,0.7872,0.7872,0.7872,0.7872,0.7872,0.7872,0.7872,0.7847,0.0,0.7807,0.778,0.7741,0.779,0.7807,0.7812,0.7856,0.7872,0.7867,0.0,0.0,0.0,0.0,0.0,0.0,0.0,-0.6387,-0.6387,-0.6287,-0.5434,-0.4381,-0.3224,-0.2217,-0.116,-0.0101,0.0,0.0,0.0,0.0,0.0,0.0,0.0,0.0,0.0,0.0,0.0,0.0,0.0,0.0,0.0,0.0,0.0,0.0,0.0,0.0,0.0,0.0,0.0,0.0,0.0,0.0,0.0,0.0,0.0,0.0,0.0,0.0,0.0,0.0,0.0,0.0,0.0,0.0,0.0,0.0,0.0,0.0,0.0,0.0,0.0,0.0,0.0,0.0,0.0,0.0,0.0,0.0,0.0,0.0,0.0,0.0,0.0,0.0,0.0,0.0,0.0,0.0,0.0,0.0,0.0,0.0,0.0,0.0,0.0,0.0,0.0,0.0,0.0,0.0,0.0,0.0,0.0,0.1229,0.3863,0.3863,0.5212,0.7858,0.785,0.785,0.7858,0.785,0.7845,0.7845,0.7845,0.7785,0.769,0.769,0.7622,0.7529,0.7644,0.769,0.7701,0.7807,0.7845,0.7831,0.0,0.0,0.0,0.0,0.0,0.0,0.0,0.0,0.0,0.0,-0.4935,-0.4079,-0.2167,-0.1765,-0.116,0.0,0.0,0.0,0.0,0.0,0.0,0.0,0.0,0.0,0.0,0.0,0.0,0.0,0.0,0.0,0.0,0.0,0.0,0.0,0.0,0.0,0.0,0.0,0.0,0.0,0.0,0.0,0.0,0.0,0.0,0.0,0.0,0.0,0.0,0.0,0.0,0.0,0.0,0.0,0.0,0.0,0.0,0.0,0.0,0.0,0.0,0.0,0.0,0.0,0.0,0.0,0.0,0.0,0.0,0.0,0.0,0.0,0.0,0.0,0.0,0.0,0.0,0.0,0.0,0.0,0.0,0.0,0.0,0.0,0.0,0.0,0.0,0.0,0.0,0.0,0.0,0.0,0.0,0.125,0.3804,0.3804,0.5139,0.7739,0.7646,0.7652,0.7739,0.7644,0.7603,0.7603,0.7603,0.7587,0.7562,0.7562,0.7543,0.7521,0.7551,0.7562,0.7565,0.7592,0.7603,0.7597,0.0,0.0,0.0,0.0,0.0,0.0,0.0,0.0,0.0,0.0,0.0,-0.3425,-0.1765,-0.116,0.0,0.0,0.0,0.0,0.0,0.0,0.0,0.0,0.0,0.0,0.0,0.0,0.0,0.0,0.0,0.0,0.0,0.0,0.0,0.0,0.0,0.0,0.0,0.0,0.0,0.0,0.0,0.0,0.0,0.0,0.0,0.0,0.0,0.0,0.0,0.0,0.0,0.0,0.0,0.0,0.0,0.0,0.0,0.0,0.0,0.0,0.0,0.0,0.0,0.0,0.0,0.0,0.0,0.0,0.0,0.0,0.0,0.0,0.0,0.0,0.0,0.0,0.0,0.0,0.0,0.0,0.0,0.0,0.0,0.0,0.0,0.0,0.0,0.0,0.0,0.0,0.0,0.0,0.0,0.1209,0.3762,0.382,0.5075,0.7616,0.7551,0.7554,0.7616,0.7548,0.7519,0.7519,0.7519,0.7486,0.7434,0.7434,0.7402,0.7358,0.7413,0.7434,0.7442,0.7497,0.7519,0.7502,0.0,0.0,0.0,0.0,0.0,0.0,0.0,0.0,0.0,0.0,0.0,0.0,0.0,0.0,0.0,0.0,0.0,0.0,0.0,0.0,0.0,0.0,0.0,0.0,0.0,0.0,0.0,0.0,0.0,0.0,0.0,0.0,0.0,0.0,0.0,0.0,0.0,0.0,0.0,0.0,0.0,0.0,0.0,0.0,0.0,0.0,0.0,0.0,0.0,0.0,0.0,0.0,0.0,0.0,0.0,0.0,0.0,0.0,0.0,0.0,0.0,0.0,0.0,0.0,0.0,0.0,0.0,0.0,0.0,0.0,0.0,0.0,0.0,0.0,0.0,0.0,0.0,0.0,0.0,0.0,0.0,0.0,0.0,0.0,0.0,0.0,0.0,0.0,0.0,0.0,0.0,0.0,0.0,0.1112,0.3473,0.3667,0.4904,0.7198,0.7354,0.7472,0.7491,0.747,0.7462,0.7462,0.7462,0.7404,0.7307,0.7307,0.7247,0.7221,0.7269,0.7307,0.732,0.7423,0.7453,0.7402,0.0,0.0,0.0,0.0,0.0,0.0,0.0,0.0,0.0,0.0,0.0,0.0,0.0,0.0,0.0,0.0,0.0,0.0,0.0,0.0,0.0,0.0,0.0,0.0,0.0,0.0,0.0,0.0,0.0,0.0,0.0,0.0,0.0,0.0,0.0,0.0,0.0,0.0,0.0,0.0,0.0,0.0,0.0,0.0,0.0,0.0,0.0,0.0,0.0,0.0,0.0,0.0,0.0,0.0,0.0,0.0,0.0,0.0,0.0,0.0,0.0,0.0,0.0,0.0,0.0,0.0,0.0,0.0,0.0,0.0,0.0,0.0,0.0,0.0,0.0,0.0,0.0,0.0,0.0,0.0,0.0,0.0,0.0,0.0,0.0,0.0,0.0,0.0,0.0,0.0,0.0,0.0,0.0,0.0698,0.2107,0.3112,0.437,0.5805,0.6804,0.7266,0.7301,0.7258,0.7267,0.7267,0.7267,0.7254,0.7237,0.7237,0.7226,0.7213,0.7232,0.7237,0.724,0.7259,0.7149,0.7032,0.0,0.0,0.0,0.0,0.0,0.0,0.0,0.0,0.0,0.0,0.0,0.0,0.0,0.0,0.0,0.0,0.0,0.0,0.0,0.0,0.0,0.0,0.0,0.0,0.0,0.0,0.0,0.0,0.0,0.0,0.0,0.0,0.0,0.0,0.0,0.0,0.0,0.0,0.0,0.0,0.0,0.0,0.0,0.0,0.0,0.0,0.0,0.0,0.0,0.0,0.0,0.0,0.0,0.0,0.0,0.0,0.0,0.0,0.0,0.0,0.0,0.0,0.0,0.0,0.0,0.0,0.0,0.0,0.0,0.0,0.0,0.0,0.0,0.0,0.0,0.0,0.0,0.0,0.0,0.0,0.0,0.0,0.0,0.0,0.0,0.0,0.0,0.0,0.0,0.0,0.0,0.0,0.0,0.0264,0.0799,0.2592,0.417,0.5466,0.6589,0.7124,0.7236,0.7235,0.721,0.721,0.721,0.721,0.721,0.721,0.721,0.721,0.721,0.7172,0.7109,0.6989,0.6891,0.6771,0.0,0.0,0.0,0.0,0.0,0.0,0.0,0.0,0.0,0.0,0.0,0.0,0.0,0.0,0.0,0.0,0.0,0.0,0.0,0.0,0.0,0.0,0.0,0.0,0.0,0.0,0.0,0.0,0.0,0.0,0.0,0.0,0.0,0.0,0.0,0.0,0.0,0.0,0.0,0.0,0.0,0.0,0.0,0.0,0.0,0.0,0.0,0.0,0.0,0.0,0.0,0.0,0.0,0.0,0.0,0.0,0.0,0.0,0.0,0.0,0.0,0.0,0.0,0.0,0.0,0.0,0.0,0.0,0.0,0.0,0.0,0.0,0.0,0.0,0.0,0.0,0.0,0.0,0.0,0.0,0.0,0.0,0.0,0.0,0.0,0.0,0.0,0.0,0.0,0.0,0.0,0.0,0.0,0.0,0.0,0.2206,0.3872,0.4932,0.629,0.6989,0.7125,0.7125,0.7144,0.7169,0.7169,0.7169,0.7169,0.7169,0.7152,0.7125,0.7125,0.7018,0.6929,0.6804,0.67,0.6616,0.0,0.0,0.0,0.0,0.0,0.0,0.0,0.0,0.0,0.0,0.0,0.0,0.0,0.0,0.0,0.0,0.0,0.0,0.0,0.0,0.0,0.0,0.0,0.0,0.0,0.0,0.0,0.0,0.0,0.0,0.0,0.0,0.0,0.0,0.0,0.0,0.0,0.0,0.0,0.0,0.0,0.0,0.0,0.0,0.0,0.0,0.0,0.0,0.0,0.0,0.0,0.0,0.0,0.0,0.0,0.0,0.0,0.0,0.0,0.0,0.0,0.0,0.0,0.0,0.0,0.0,0.0,0.0,0.0,0.0,0.0,0.0,0.0,0.0,0.0,0.0,0.0,0.0,0.0,0.0,0.0,0.0,0.0,0.0,0.0,0.0,0.0,0.0,0.0,0.0,0.0,0.0,0.0,0.0,0.0,0.2125,0.3344,0.3564,0.5748,0.682,0.6828,0.6828,0.6891,0.6997,0.6997,0.6997,0.6997,0.6997,0.6931,0.6828,0.6828,0.6823,0.6801,0.6676,0.6627,0.6603,0.0,0.0,0.0,0.0,0.0,0.0,0.0,0.0,0.0,0.0,0.0,0.0,0.0,0.0,0.0,0.0,0.0,0.0,0.0,0.0,0.0,0.0,0.0,0.0,0.0,0.0,0.0,0.0,0.0,0.0,0.0,0.0,0.0,0.0,0.0,0.0,0.0,0.0,0.0,0.0,0.0,0.0,0.0,0.0,0.0,0.0,0.0,0.0,0.0,0.0,0.0,0.0,0.0,0.0,0.0,0.0,0.0,0.0,0.0,0.0,0.0,0.0,0.0,0.0,0.0,0.0,0.0,0.0,0.0,0.0,0.0,0.0,0.0,0.0,0.0,0.0,0.0,0.0,0.0,0.0,0.0,0.0,0.0,0.0,0.0,0.0,0.0,0.0,0.0,0.0,0.0,0.0,0.0,0.0,0.0,0.2116,0.3245,0.329,0.5561,0.6728,0.6801,0.6801,0.6828,0.6872,0.6872,0.6872,0.6872,0.6872,0.6844,0.6796,0.6717,0.6687,0.6673,0.6551,0.6454,0.6449,0.0,0.0,0.0,0.0,0.0,0.0,0.0,0.0,0.0,0.0,0.0,0.0,0.0,0.0,0.0,0.0,0.0,0.0,0.0,0.0,0.0,0.0,0.0,0.0,0.0,0.0,0.0,0.0,0.0,0.0,0.0,0.0,0.0,0.0,0.0,0.0,0.0,0.0,0.0,0.0,0.0,0.0,0.0,0.0,0.0,0.0,0.0,0.0,0.0,0.0,0.0,0.0,0.0,0.0,0.0,0.0,0.0,0.0,0.0,0.0,0.0,0.0,0.0,0.0,0.0,0.0,0.0,0.0,0.0,0.0,0.0,0.0,0.0,0.0,0.0,0.0,0.0,0.0,0.0,0.0,0.0,0.0,0.0,0.0,0.0,0.0,0.0,0.0,0.0,0.0,0.0,0.0,0.0,0.0151,0.0505,0.2318,0.3374,0.3726,0.5606,0.6605,0.6687,0.6687,0.6709,0.6744,0.6744,0.6744,0.6744,0.6744,0.6722,0.6679,0.6594,0.6562,0.65,0.6416,0.6387,0.6392,0.0,0.0,0.0,0.0,0.0,0.0,0.0,0.0,0.0,0.0,0.0,0.0,0.0,0.0,0.0,0.0,0.0,0.0,0.0,0.0,0.0,0.0,0.0,0.0,0.0,0.0,0.0,0.0,0.0,0.0,0.0,0.0,0.0,0.0,0.0,0.0,0.0,0.0,0.0,0.0,0.0,0.0,0.0,0.0,0.0,0.0,0.0,0.0,0.0,0.0,0.0,0.0,0.0,0.0,0.0,0.0,0.0,0.0,0.0,0.0,0.0,0.0,0.0,0.0,0.0,0.0,0.0,0.0,0.0,0.0,0.0,0.0,0.0,0.0,0.0,0.0,0.0,0.0,0.0,0.0,0.0,0.0,0.0,0.0,0.0,0.0,0.0,0.0,0.0,0.0,0.0,0.0,0.0,0.0505,0.1613,0.267,0.3728,0.4834,0.5884,0.6387,0.6387,0.6387,0.6452,0.6619,0.6619,0.6619,0.6619,0.6619,0.6495,0.6387,0.6387,0.6387,0.6387,0.6387,0.6387,0.6406,0.0,0.0,0.0,0.0,0.0,0.0,0.0,0.0,0.0,0.0,0.0,0.0,0.0,0.0,0.0,0.0,0.0,0.0,0.0,0.0,0.0,0.0,0.0,0.0,0.0,0.0,0.0,0.0,0.0,0.0,0.0,0.0,0.0,0.0,0.0,0.0,0.0,0.0,0.0,0.0,0.0,0.0,0.0,0.0,0.0,0.0,0.0,0.0,0.0,0.0,0.0,0.0,0.0,0.0,0.0,0.0,0.0,0.0,0.0,0.0,0.0,0.0,0.0,0.0,0.0,0.0,0.0,0.0,0.0,0.0,0.0,0.0,0.0,0.0,0.0,0.0,0.0,0.0,0.0,0.0,0.0,0.0,0.0,0.0,0.0,0.0,0.0,0.0,0.0,0.0,0.0,0.0,0.0757,0.1261,0.1613,0.3425,0.4481,0.4834,0.5884,0.6387,0.6387,0.6387,0.6406,0.6441,0.6441,0.6441,0.6441,0.6441,0.6419,0.6387,0.6387,0.6387,0.6387,0.6387,0.6441,0.657,0.0,0.0,0.0,0.0,0.0,0.0,0.0,0.0,0.0,0.0,0.0,0.0,0.0,0.0,0.0,0.0,0.0,0.0,0.0,0.0,0.0,0.0,0.0,0.0,0.0,0.0,0.0,0.0,0.0,0.0,0.0,0.0,0.0,0.0,0.0,0.0,0.0,0.0,0.0,0.0,0.0,0.0,0.0,0.0,0.0,0.0,0.0,0.0,0.0,0.0,0.0,0.0,0.0,0.0,0.0,0.0,0.0,0.0,0.0,0.0,0.0,0.0,0.0,0.0,0.0,0.0,0.0,0.0,0.0,0.0,0.0,0.0,0.0,0.0,0.0,0.0,0.0,0.0,0.0,0.0,0.0,0.0,0.0,0.0,0.0,0.0,0.0,0.0,0.0,0.0,0.0,0.0,0.1063,0.1815,0.2217,0.3927,0.5035,0.5436,0.6087,0.6387,0.6387,0.6387,0.6387,0.6387,0.6387,0.6387,0.6387,0.6387,0.6387,0.6387,0.6387,0.6387,0.6387,0.6387,0.6462,0.6627,0.0,0.0,0.0,0.0,0.0,0.0,0.0,0.0,0.0,0.0,0.0,0.0,0.0,0.0,0.0,0.0,0.0,0.0,0.0,0.0,0.0,0.0,0.0,0.0,0.0,0.0,0.0,0.0,0.0,0.0,0.0,0.0,0.0,0.0,0.0,0.0,0.0,0.0,0.0,0.0,0.0,0.0,0.0,0.0,0.0,0.0,0.0,0.0,0.0,0.0,0.0,0.0,0.0,0.0,0.0,0.0,0.0,0.0,0.0,0.0,0.0,0.0,0.0,0.0,0.0,0.0,0.0,0.0,0.0,0.0,0.0,0.0,0.0,0.0,0.0,0.0,0.0,0.0,0.0,0.0,0.0,0.0,0.0,0.0,0.0,0.0,0.0,0.0,0.0,0.0,0.0052,0.0156,0.1228,0.2279,0.3391,0.4453,0.5464,0.6419,0.6419,0.6419,0.6419,0.6395,0.6387,0.6387,0.6387,0.6387,0.6387,0.6387,0.6387,0.6387,0.6387,0.6387,0.6387,0.6387,0.647,0.6651,0.0,0.0,0.0,0.0,0.0,0.0,0.0,0.0,0.0,0.0,0.0,0.0,0.0,0.0,0.0,0.0,0.0,0.0,0.0,0.0,0.0,0.0,0.0,0.0,0.0,0.0,0.0,0.0,0.0,0.0,0.0,0.0,0.0,0.0,0.0,0.0,0.0,0.0,0.0,0.0,0.0,0.0,0.0,0.0,0.0,0.0,0.0,0.0,0.0,0.0,0.0,0.0,0.0,0.0,0.0,0.0,0.0,0.0,0.0,0.0,0.0,0.0,0.0,0.0,0.0,0.0,0.0,0.0,0.0,0.0,0.0,0.0,0.0,0.0,0.0,0.0,0.0,0.0,0.0,0.0,0.0,0.0,0.0,0.0,0.0,0.0,0.0,0.0,0.0,0.0,0.0424,0.1375,0.2474,0.3571,0.4779,0.5832,0.6461,0.6722,0.6722,0.6722,0.6717,0.6473,0.6387,0.6387,0.6387,0.6387,0.6387,0.6387,0.6387,0.6387,0.6387,0.6387,0.6387,0.6387,0.6575,0.6766,0.0,0.0,0.0,0.0,0.0,0.0,0.0,0.0,0.0,0.0,0.0,0.0,0.0,0.0,0.0,0.0,0.0,0.0,0.0,0.0,0.0,0.0,0.0,0.0,0.0,0.0,0.0,0.0,0.0,0.0,0.0,0.0,0.0,0.0,0.0,0.0,0.0,0.0,0.0,0.0,0.0,0.0,0.0,0.0,0.0,0.0,0.0,0.0,0.0,0.0,0.0,0.0,0.0,0.0,0.0,0.0,0.0,0.0,0.0,0.0,0.0,0.0,0.0,0.0,0.0,0.0,0.0,0.0,0.0,0.0,0.0,0.0,0.0,0.0,0.0,0.0,0.0,0.0,0.0,0.0,0.0,0.0,0.0,0.0,0.0,0.0,0.0,0.0,0.0,0.0,0.054,0.1776,0.2827,0.3982,0.5204,0.6268,0.6801,0.6801,0.6801,0.6801,0.6796,0.6608,0.6473,0.647,0.6411,0.6387,0.6387,0.6387,0.6387,0.6387,0.6387,0.6387,0.6387,0.6387,0.6554,0.6722,0.0,0.0,0.0,0.0,0.0,0.0,0.0,0.0,0.0,0.0,0.0,0.0,0.0,0.0,0.0,0.0,0.0,0.0,0.0,0.0,0.0,0.0,0.0,0.0,0.0,0.0,0.0,0.0,0.0051,0.0051,0.0,0.0,0.0,0.0,0.0,0.0,0.0,0.0,0.0,0.0,0.0,0.0,0.0,0.0,0.0,0.0,0.0,0.0,0.0,0.0,0.0,0.0,0.0,0.0,0.0,0.0,0.0,0.0,0.0,0.0,0.0,0.0,0.0,0.0,0.0,0.0,0.0,0.0,0.0,0.0,0.0,0.0,0.0,0.0,0.0,0.0,0.0,0.0,0.0,0.0,0.0,0.0,0.0,0.0,0.0,0.0,0.0,0.0,0.0,0.0,0.0659,0.2083,0.297,0.4126,0.5521,0.6432,0.6864,0.6864,0.6864,0.6864,0.6858,0.6738,0.6671,0.6643,0.647,0.6416,0.6416,0.6395,0.6387,0.6387,0.6387,0.6387,0.6387,0.6387,0.6462,0.6635,0.0,0.0,0.0,0.0,0.0,0.0,0.0,0.0,0.0,0.0,0.0,0.0,0.0,0.0,0.0,0.0,0.0,0.0,0.0,0.0,0.0,0.0,0.0,0.0,0.0,0.0,0.0,0.0,0.0253,0.0253,0.0,0.0,0.0,0.0,0.0,0.0,0.0,0.0,0.0,0.0,0.0,0.0,0.0,0.0,0.0,0.0,0.0,0.0,0.0,0.0,0.0,0.0,0.0,0.0,0.0,0.0,0.0,0.0,0.0,0.0,0.0,0.0,0.0,0.0,0.0,0.0,0.0,0.0,0.0,0.0,0.0,0.0,0.0,0.0,0.0,0.0,0.0,0.0,0.0,0.0,0.0,0.0,0.0,0.0,0.0,0.0,0.0,0.0,0.0,0.0,0.1005,0.329,0.3504,0.4664,0.6885,0.705,0.7163,0.7163,0.7163,0.7163,0.7158,0.6989,0.6877,0.6771,0.6646,0.6594,0.6586,0.643,0.6387,0.6387,0.6387,0.6387,0.6387,0.6387,0.6462,0.6635,0.0,0.0,0.0,0.0,0.0,0.0,0.0,0.0,0.0,0.0,0.0,0.0,0.0,0.0,0.0,0.0,0.0,0.0,0.0,0.0,0.0,0.0,0.0,0.0,0.0,0.0152,0.0202,0.0202,0.0505,0.0556,0.0455,0.0303,0.0152,0.0,0.0,0.0,0.0,0.0,0.0,0.0,0.0,0.0,0.0,0.0,0.0,0.0,0.0,0.0,0.0,0.0,0.0,0.0,0.0,0.0,0.0,0.0,0.0,0.0,0.0,0.0,0.0,0.0,0.0,0.0,0.0,0.0,0.0,0.0,0.0,0.0,0.0,0.0,0.0,0.0,0.0,0.0,0.0,0.0,0.0,0.0,0.0,0.0,0.0,0.0,0.0,0.0,0.0,0.0,0.0,0.0,0.112,0.3525,0.358,0.4752,0.7154,0.721,0.721,0.721,0.721,0.721,0.721,0.7158,0.7016,0.6899,0.6777,0.6722,0.6711,0.6589,0.6489,0.6481,0.6414,0.6387,0.6387,0.6387,0.6419,0.6484,0.0,0.0,0.0,0.0,0.0,0.0,0.0,0.0,0.0,0.0,0.0,0.0,0.0,0.0,0.0,0.0,0.0,0.0,0.0,0.0,0.0,0.0,0.0,0.0202,0.0202,0.0404,0.0505,0.0505,0.0758,0.0859,0.0808,0.0657,0.0404,0.0101,0.0051,0.0,0.0,0.0,0.0,0.0,0.0,0.0,0.0,0.0,0.0,0.0,0.0,0.0,0.0,0.0,0.0,0.0,0.0,0.0,0.0,0.0,0.0,0.0,0.0,0.0,0.0,0.0,0.0,0.0,0.0,0.0,0.0,0.0,0.0,0.0,0.0,0.0,0.0,0.0,0.0,0.0,0.0,0.0,0.0,0.0,0.0,0.0,0.0,0.0,0.0,0.0,0.0,0.0,0.0,0.028,0.14,0.3525,0.3916,0.5089,0.7154,0.721,0.721,0.721,0.721,0.721,0.721,0.721,0.7163,0.7021,0.6902,0.685,0.6839,0.6717,0.6665,0.6657,0.6564,0.6478,0.6478,0.6478,0.6478,0.6497,0.0,0.0,0.0,0.0,0.0,0.0,0.0,0.0,0.0,0.0,0.0,0.0,0.0,0.0,0.0,0.0,0.0,0.0,0.0,0.0,0.0,0.0,0.0,0.0,0.0758,0.0758,0.0758,0.0758,0.1061,0.1061,0.0808,0.1061,0.0859,0.0354,0.0101,0.0,0.0,0.0,0.0,0.0,0.0,0.0,0.0,0.0,0.0,0.0,0.0,0.0,0.0,0.0,0.0,0.0,0.0,0.0,0.0,0.0,0.0,0.0,0.0,0.0,0.0,0.0,0.0,0.0,0.0,0.0,0.0,0.0,0.0,0.0,0.0,0.0,0.0,0.0,0.0,0.0,0.0,0.0,0.0,0.0,0.0,0.0,0.0,0.0,0.0,0.0,0.0,0.0,0.0,0.1064,0.2295,0.358,0.4698,0.5929,0.721,0.721,0.721,0.721,0.721,0.721,0.721,0.721,0.7207,0.7193,0.7024,0.6975,0.6967,0.6842,0.6793,0.6793,0.6785,0.6782,0.6782,0.6782,0.6782,0.6801,0.0,0.0,0.0,0.0,0.0,0.0,0.0,0.0,0.0,0.0,0.0,0.0,0.0,0.0101,0.0152,0.0505,0.0505,0.0,0.0,0.0,0.0,0.0,0.0,0.0,0.0808,0.096,0.1061,0.1061,0.1314,0.1415,0.1314,0.1212,0.101,0.0657,0.0354,0.0152,0.0,0.0,0.0,0.0,0.0,0.0,0.0,0.0,0.0,0.0,0.0,0.0,0.0,0.0,0.0,0.0,0.0,0.0,0.0,0.0,0.0,0.0,0.0,0.0,0.0,0.0,0.0,0.0,0.0,0.0,0.0,0.0,0.0,0.0,0.0,0.0,0.0,0.0,0.0,0.0,0.0,0.0,0.0053,0.0213,0.0268,0.0323,0.0485,0.0487,0.0546,0.0551,0.0386,0.0277,0.028,0.1232,0.2351,0.358,0.4754,0.5984,0.721,0.721,0.721,0.721,0.721,0.721,0.721,0.721,0.721,0.7207,0.7166,0.715,0.7141,0.697,0.6918,0.6912,0.6834,0.6801,0.6801,0.6801,0.6801,0.6806,0.0,0.0,0.0,0.0,0.0,0.0,0.0,0.0,0.0,0.0152,0.0,0.0,0.0,0.0,0.0404,0.0758,0.0808,0.0859,0.0909,0.0909,0.0,0.0,0.0,0.0,0.0,0.1255,0.1356,0.1314,0.1506,0.1607,0.1617,0.1314,0.1061,0.0808,0.0505,0.0253,0.0,0.0,0.0,0.0,0.0,0.0,0.0,0.0,0.0,0.0,0.0,0.0,0.0,0.0,0.0,0.0,0.0,0.0,0.0,0.0,0.0,0.0,0.0,0.0,0.0,0.0,0.0,0.0,0.0,0.0,0.0,0.0,0.0,0.0,0.0,0.0,0.0,0.0,0.0,0.005,0.0099,0.0152,0.0206,0.0463,0.052,0.0629,0.0786,0.0795,0.0804,0.0867,0.0651,0.0656,0.0999,0.1999,0.3226,0.4751,0.5592,0.6374,0.721,0.721,0.721,0.721,0.721,0.721,0.721,0.721,0.721,0.721,0.721,0.721,0.7204,0.7128,0.7043,0.7035,0.6953,0.6921,0.6921,0.6921,0.6921,0.6921,0.0,0.0,0.0,0.0,0.0,0.0,0.0,0.0,0.0404,0.0404,0.0,0.0,0.0,0.0,0.0,0.0808,0.0808,0.0909,0.1212,0.1212,0.0,0.0,0.0,0.0,0.1617,0.1588,0.1587,0.1617,0.1587,0.1588,0.1566,0.1314,0.1061,0.0758,0.0505,0.0252,0.0,0.0,0.0,0.0,0.0,0.0,0.0,0.0,0.0,0.0,0.0,0.0,0.0,0.0,0.0,0.0,0.0,0.0,0.0,0.0,0.0,0.0,0.0,0.0,0.0,0.0,0.0,0.0,0.0,0.0,0.0,0.0,0.0,0.0,0.0,0.0,0.0,0.0,0.0,0.0095,0.0381,0.0429,0.0477,0.0668,0.0789,0.0807,0.0807,0.0834,0.0799,0.0799,0.0799,0.1234,0.2179,0.338,0.4996,0.7143,0.7204,0.7207,0.721,0.721,0.721,0.721,0.721,0.721,0.721,0.721,0.721,0.721,0.721,0.721,0.721,0.721,0.721,0.721,0.721,0.721,0.721,0.721,0.721,0.7265,0.0,0.0,0.0,0.0,0.0,0.0,0.0556,0.0657,0.0707,0.0,0.0,0.0,0.1061,0.1263,0.1313,0.1111,0.1263,0.1415,0.1465,0.1465,0.1516,0.1617,0.1617,0.1617,0.1617,0.1609,0.1609,0.1617,0.1609,0.1508,0.1314,0.1212,0.096,0.0505,0.0448,0.0247,0.0,0.0,0.0,0.0,0.0,0.0,0.0,0.0,0.0,0.0,0.0,0.0,0.0,0.0,0.0,0.0,0.0,0.0,0.0,0.0,0.0,0.0,0.0,0.0,0.0,0.0,0.0,0.0,0.0,0.0,0.0,0.0,0.0,0.0,0.0,0.0,0.0045,0.0271,0.0276,0.0326,0.0373,0.052,0.0715,0.0954,0.1011,0.1115,0.1308,0.1338,0.1365,0.0,0.1195,0.158,0.2622,0.4174,0.5665,0.7029,0.7032,0.7125,0.721,0.721,0.721,0.721,0.721,0.721,0.721,0.721,0.721,0.721,0.721,0.721,0.721,0.721,0.721,0.721,0.721,0.721,0.721,0.721,0.7324,0.7493,0.0,0.0,0.0,0.0,0.0,0.0808,0.0808,0.0909,0.096,0.0,0.0,0.0,0.1364,0.1415,0.1364,0.1212,0.1263,0.1263,0.1263,0.1263,0.1314,0.1415,0.1415,0.1415,0.1415,0.1454,0.1454,0.1415,0.1303,0.1253,0.1212,0.096,0.0704,0.0399,0.0296,0.0146,0.0,0.0,0.0,0.0,0.0,0.0,0.0,0.0,0.0,0.0,0.0,0.0,0.0,0.0,0.0,0.0,0.0,0.0,0.0,0.0,0.0,0.0,0.0,0.0,0.0,0.0,0.0,0.0,0.0,0.0,0.0,0.0,0.0,0.0,0.0,0.009,0.0224,0.0359,0.0544,0.0685,0.0685,0.0784,0.0977,0.1209,0.1265,0.1319,0.1507,0.1535,0.156,0.1578,0.1857,0.2714,0.4198,0.5554,0.6563,0.7065,0.7068,0.7072,0.7139,0.7139,0.7163,0.721,0.721,0.721,0.721,0.7161,0.7139,0.7136,0.7084,0.7008,0.7065,0.7226,0.7332,0.7379,0.7379,0.7435,0.7543,0.7543,0.7657,0.7771,0.0,0.0,0.1162,0.0909,0.0909,0.0909,0.0909,0.1111,0.1263,0.0,0.1465,0.1566,0.1566,0.1364,0.1263,0.1263,0.101,0.0909,0.0909,0.0909,0.101,0.1212,0.1263,0.1263,0.1263,0.1242,0.1241,0.1263,0.0993,0.0994,0.1162,0.0655,0.0399,0.0344,0.0098,0.0,0.0,0.0,0.0,0.0,0.0,0.0,0.0,0.0,0.0,0.0,0.0,0.0046,0.0138,0.0136,0.0135,0.0135,0.0045,0.0,0.0,0.0,0.0,0.0,0.0,0.0,0.0045,0.0135,0.018,0.0,0.0314,0.0314,0.0225,0.0225,0.0135,0.009,0.009,0.0269,0.0448,0.0493,0.0807,0.1121,0.1121,0.1121,0.1211,0.1391,0.1459,0.1476,0.1476,0.1503,0.1521,0.1663,0.2807,0.4318,0.6052,0.7059,0.7503,0.725,0.7197,0.7155,0.7018,0.7072,0.713,0.7246,0.7246,0.7246,0.7243,0.7138,0.7032,0.6959,0.6903,0.6854,0.6862,0.7237,0.7468,0.7531,0.7601,0.7771,0.7934,0.7989,0.8045,0.8097,0.0,0.0,0.1516,0.1465,0.1465,0.1465,0.1465,0.1465,0.1516,0.1516,0.1566,0.1516,0.1313,0.1415,0.1516,0.1516,0.1465,0.1465,0.1465,0.1465,0.1465,0.1516,0.1516,0.1516,0.1516,0.151,0.151,0.1516,0.146,0.1258,0.0858,0.0796,0.0493,0.0098,0.0,0.0,0.0,0.0,0.0,0.0,0.0,0.0,0.0,0.0,0.0,0.0,0.0,0.0497,0.1127,0.1123,0.1122,0.0987,0.0225,0.0,0.0,0.0,0.0,0.0,0.0,0.0,0.018,0.0942,0.13,0.0,0.2416,0.2104,0.1702,0.0,0.1076,0.0583,0.0583,0.0628,0.0718,0.0942,0.1031,0.1121,0.1121,0.1256,0.1345,0.1391,0.1395,0.1399,0.1399,0.1472,0.1815,0.2558,0.446,0.5689,0.5883,0.6998,0.7525,0.7373,0.7376,0.7287,0.7149,0.7367,0.7434,0.7339,0.7554,0.7554,0.7394,0.7531,0.7356,0.6836,0.729,0.7328,0.7167,0.7464,0.7392,0.7193,0.7729,0.7826,0.7715,0.7934,0.8156,0.8416,0.0,0.1607,0.1617,0.1617,0.1617,0.1617,0.1617,0.1617,0.1617,0.1617,0.1465,0.1415,0.1415,0.1263,0.1263,0.1364,0.1263,0.1212,0.1212,0.1212,0.1263,0.1415,0.1415,0.1415,0.1415,0.1415,0.1415,0.1415,0.1263,0.1156,0.0996,0.074,0.0535,0.0333,0.0093,0.0092,0.0182,0.0045,0.0,0.0,0.0,0.0,0.0,0.0,0.0269,0.0718,0.0718,0.1301,0.2062,0.1569,0.1749,0.1973,0.0987,0.1032,0.1436,0.1436,0.1436,0.1436,0.1436,0.1436,0.1569,0.2017,0.2329,0.0,0.0,0.304,0.286,0.286,0.2458,0.2147,0.2147,0.2236,0.2325,0.2459,0.2194,0.2016,0.2016,0.1659,0.1391,0.1391,0.1391,0.1391,0.1391,0.1901,0.2786,0.4284,0.5442,0.6269,0.6785,0.7348,0.7651,0.7494,0.7497,0.746,0.7281,0.744,0.7509,0.7478,0.7639,0.7639,0.7478,0.7569,0.7395,0.7125,0.7319,0.7337,0.7238,0.762,0.7534,0.7243,0.7925,0.8166,0.8175,0.8355,0.8501,0.859,0.1564,0.1592,0.161,0.1615,0.1617,0.1617,0.1617,0.1617,0.1566,0.1516,0.1566,0.1666,0.1817,0.1665,0.1665,0.1866,0.1715,0.1463,0.1262,0.1262,0.1262,0.1263,0.1263,0.1263,0.1263,0.1263,0.1263,0.1263,0.1057,0.1047,0.1178,0.0731,0.0573,0.0648,0.046,0.0364,0.0314,0.0359,0.0314,0.0269,0.0269,0.018,0.0,0.018,0.0718,0.1436,0.1838,0.2465,0.3045,0.224,0.251,0.3001,0.2017,0.224,0.2911,0.2911,0.2911,0.2911,0.2911,0.2911,0.2956,0.3179,0.3411,0.3642,0.0,0.0,0.0,0.4043,0.0,0.0,0.0,0.0,0.0,0.0,0.0,0.0,0.0,0.2451,0.0,0.1436,0.1569,0.1704,0.1704,0.2732,0.4098,0.5759,0.6062,0.6629,0.7665,0.778,0.7771,0.7651,0.768,0.7598,0.7454,0.7508,0.7576,0.766,0.7716,0.7716,0.7657,0.7598,0.7482,0.7346,0.7337,0.7338,0.7297,0.7762,0.776,0.7584,0.813,0.8454,0.8575,0.875,0.8771,0.8662,0.1609,0.1624,0.1585,0.1612,0.1617,0.1617,0.1617,0.1617,0.1516,0.1263,0.2269,0.2871,0.2669,0.3673,0.4373,0.4373,0.4373,0.3924,0.2972,0.2922,0.2521,0.1616,0.1566,0.1566,0.1566,0.1566,0.1566,0.1566,0.154,0.1427,0.1177,0.109,0.079,0.0462,0.1451,0.1168,0.0135,0.1165,0.1479,0.1256,0.1256,0.0763,0.009,0.0942,0.1301,0.1614,0.336,0.403,0.4119,0.403,0.403,0.3985,0.3045,0.2823,0.2911,0.2911,0.2911,0.2911,0.2911,0.2911,0.3179,0.4249,0.4757,0.5233,0.6341,0.0,0.5859,0.5659,0.0,0.0,0.0,0.0,0.0,0.0,0.0,0.0,0.3738,0.3841,0.3309,0.1614,0.2196,0.2732,0.2732,0.4338,0.5458,0.5694,0.6656,0.7292,0.7417,0.7668,0.7773,0.7789,0.7872,0.7849,0.7569,0.7816,0.7888,0.7875,0.8087,0.8087,0.7875,0.8122,0.7836,0.726,0.7696,0.7793,0.7596,0.7859,0.7965,0.7945,0.8339,0.8299,0.8144,0.8421,0.8523,0.8489,0.151,0.1596,0.1576,0.1588,0.1605,0.1617,0.1617,0.2119,0.2471,0.237,0.3272,0.3922,0.3972,0.4321,0.4622,0.4774,0.4824,0.4624,0.4175,0.4124,0.3924,0.3473,0.3473,0.3473,0.3473,0.3473,0.3407,0.3322,0.2803,0.2423,0.2181,0.2004,0.1883,0.1861,0.2648,0.2727,0.2282,0.2505,0.255,0.2417,0.233,0.2017,0.1704,0.2107,0.2598,0.3269,0.4612,0.5104,0.5015,0.4478,0.4656,0.4971,0.403,0.4076,0.4523,0.4523,0.4523,0.4523,0.4523,0.4523,0.467,0.5265,0.5724,0.6193,0.674,0.6942,0.701,0.6901,0.0,0.0,0.0,0.0,0.0,0.0,0.5429,0.0,0.0,0.0,0.3976,0.3175,0.0,0.0,0.4472,0.523,0.5941,0.6473,0.6977,0.7278,0.7412,0.7489,0.7634,0.7804,0.7872,0.7851,0.7842,0.7939,0.7969,0.7982,0.8086,0.8086,0.7982,0.8086,0.7949,0.769,0.7889,0.7942,0.7842,0.7939,0.7988,0.8002,0.8177,0.818,0.8215,0.8399,0.8428,0.835,0.1464,0.151,0.1601,0.1617,0.159,0.1707,0.2017,0.2973,0.3624,0.3624,0.4423,0.5024,0.5227,0.5325,0.5475,0.5677,0.5677,0.5577,0.5277,0.5227,0.5114,0.474,0.4762,0.4752,0.4703,0.4728,0.4697,0.4562,0.3862,0.3419,0.3278,0.3075,0.3042,0.3223,0.3796,0.3972,0.3794,0.3707,0.3708,0.3664,0.3491,0.3492,0.3628,0.3405,0.3851,0.4792,0.5466,0.5688,0.5599,0.4926,0.5149,0.5599,0.4882,0.5151,0.5688,0.5688,0.5688,0.5688,0.5688,0.5802,0.5891,0.6065,0.6507,0.6963,0.7061,0.7403,0.7709,0.7665,0.7658,0.0,0.0,0.0,0.0,0.0,0.0,0.6147,0.0,0.5474,0.0,0.0,0.0,0.0,0.0,0.6074,0.6384,0.7051,0.7095,0.7146,0.7302,0.735,0.7489,0.7746,0.779,0.7885,0.7988,0.7988,0.7988,0.7988,0.7988,0.7988,0.7988,0.7988,0.7988,0.7988,0.7988,0.7988,0.7988,0.7988,0.7988,0.7988,0.7988,0.8109,0.8218,0.8323,0.8296,0.8208,0.1392,0.1462,0.1502,0.161,0.1621,0.1927,0.3015,0.4074,0.4724,0.4724,0.5679,0.6334,0.6334,0.7288,0.7889,0.7889,0.7889,0.7437,0.6434,0.6334,0.5837,0.4657,0.473,0.4695,0.4431,0.456,0.456,0.4423,0.4289,0.4246,0.4238,0.4244,0.4111,0.3929,0.491,0.4688,0.3659,0.455,0.4954,0.491,0.4736,0.501,0.5508,0.4612,0.4837,0.5644,0.5688,0.5688,0.5688,0.5644,0.5688,0.5688,0.5644,0.5688,0.5688,0.5688,0.5688,0.5688,0.5688,0.5998,0.6362,0.6591,0.707,0.7514,0.7707,0.787,0.7934,0.7834,0.7804,0.7763,0.7624,0.7597,0.0,0.0,0.0,0.0,0.0,0.0,0.0,0.0,0.0,0.0,0.0,0.7051,0.7051,0.7095,0.7095,0.7098,0.7102,0.7288,0.7444,0.76,0.774,0.7885,0.7988,0.7988,0.7988,0.7988,0.7988,0.7988,0.7988,0.7988,0.7988,0.7988,0.7988,0.7988,0.7988,0.7988,0.7988,0.7988,0.7988,0.7992,0.7995,0.8002,0.8002,0.7995,0.224,0.2389,0.2422,0.2443,0.2481,0.2905,0.3942,0.509,0.5805,0.5731,0.6657,0.7313,0.7225,0.7507,0.775,0.775,0.775,0.7603,0.7215,0.7298,0.7091,0.6625,0.6737,0.6722,0.6508,0.6549,0.6505,0.6374,0.5683,0.5304,0.5238,0.5245,0.5181,0.5137,0.6115,0.6293,0.5933,0.6115,0.6207,0.6166,0.5766,0.5769,0.5908,0.5419,0.5419,0.5688,0.5688,0.5688,0.5688,0.5688,0.5688,0.5688,0.5688,0.5688,0.5733,0.5908,0.5952,0.5994,0.6124,0.6245,0.6388,0.6569,0.6894,0.7248,0.7481,0.7706,0.7875,0.7821,0.7892,0.7867,0.7767,0.774,0.0,0.0,0.0,0.0,0.0,0.0,0.0,0.0,0.0,0.0,0.0,0.0,0.7095,0.7095,0.7095,0.7095,0.7095,0.7146,0.7288,0.7444,0.7594,0.774,0.7885,0.7938,0.7988,0.7988,0.7988,0.7988,0.7988,0.7988,0.7988,0.7988,0.7988,0.7988,0.7988,0.7988,0.7988,0.7988,0.7988,0.7988,0.7988,0.7988,0.7988,0.7988,0.3223,0.3401,0.3379,0.3405,0.3753,0.4296,0.4975,0.6063,0.6772,0.6687,0.7302,0.7702,0.7611,0.76,0.76,0.76,0.76,0.76,0.76,0.7685,0.7672,0.7526,0.7658,0.7641,0.7441,0.7492,0.7444,0.7288,0.6647,0.6287,0.6207,0.6207,0.6207,0.6207,0.6741,0.7054,0.7095,0.6881,0.684,0.6881,0.639,0.6171,0.6083,0.5819,0.5688,0.5688,0.5688,0.5688,0.5688,0.5688,0.5688,0.5688,0.5688,0.5688,0.5733,0.6041,0.6083,0.6127,0.6257,0.6379,0.6526,0.6615,0.686,0.7131,0.741,0.7593,0.775,0.7801,0.7848,0.7837,0.7892,0.7848,0.0,0.0,0.0,0.0,0.0,0.7319,0.0,0.0,0.0,0.0,0.0,0.7095,0.7095,0.7095,0.7095,0.7095,0.7095,0.7095,0.721,0.7412,0.7519,0.7668,0.7811,0.7914,0.7988,0.7988,0.7988,0.7988,0.7988,0.7988,0.7988,0.7988,0.7988,0.7988,0.7988,0.7988,0.7988,0.7988,0.7988,0.7988,0.7988,0.7988,0.7988,0.7988,0.4156,0.4423,0.445,0.4447,0.533,0.6062,0.6062,0.6926,0.7597,0.759,0.759,0.759,0.759,0.759,0.759,0.76,0.76,0.7597,0.759,0.7597,0.7529,0.7412,0.7506,0.7448,0.7102,0.7285,0.7288,0.7095,0.7095,0.7095,0.7095,0.7095,0.7095,0.7095,0.6881,0.6925,0.7095,0.6881,0.6925,0.7051,0.6609,0.6302,0.6083,0.5822,0.5733,0.5688,0.5688,0.5688,0.5688,0.5688,0.5688,0.5688,0.5688,0.5688,0.5733,0.6041,0.6083,0.6083,0.6127,0.6394,0.6673,0.6721,0.6953,0.7242,0.754,0.759,0.7628,0.7763,0.7689,0.7682,0.7907,0.7899,0.7858,0.0,0.0,0.0,0.0,0.0,0.7429,0.7429,0.7251,0.0,0.0,0.7095,0.7095,0.7095,0.7095,0.7095,0.0,0.7095,0.7207,0.7402,0.7516,0.7665,0.7797,0.7911,0.7988,0.7988,0.7988,0.7988,0.7988,0.7988,0.7988,0.7988,0.7988,0.7988,0.7988,0.7988,0.7988,0.7988,0.7988,0.7988,0.7988,0.7988,0.7988,0.7988,0.5006,0.5894,0.6393,0.6382,0.673,0.7053,0.7053,0.7336,0.756,0.7444,0.7431,0.7431,0.7431,0.7431,0.7475,0.759,0.76,0.7553,0.7438,0.7536,0.7478,0.721,0.7346,0.7339,0.7098,0.7136,0.7136,0.7095,0.7095,0.7095,0.7095,0.7095,0.7095,0.7095,0.7054,0.7054,0.7095,0.7054,0.7054,0.7098,0.6789,0.6567,0.6299,0.6083,0.5863,0.5688,0.5688,0.5688,0.5688,0.5688,0.5688,0.5688,0.5688,0.5688,0.5733,0.6041,0.6083,0.6127,0.6299,0.6411,0.6528,0.6713,0.6831,0.7021,0.7358,0.7431,0.7441,0.7478,0.7546,0.7587,0.755,0.7689,0.7824,0.0,0.0,0.0,0.7763,0.7631,0.7543,0.7543,0.7506,0.739,0.7119,0.7095,0.7095,0.7095,0.7095,0.7095,0.7095,0.7095,0.7112,0.7156,0.7461,0.7617,0.7655,0.7864,0.7988,0.7988,0.7988,0.7988,0.7988,0.7988,0.7988,0.7988,0.7988,0.7988,0.7988,0.7988,0.7988,0.7988,0.7988,0.7988,0.7988,0.7988,0.7988,0.7988,0.603,0.6741,0.7095,0.7095,0.7214,0.7272,0.7272,0.7343,0.739,0.7419,0.7415,0.7443,0.7465,0.7472,0.7506,0.7594,0.76,0.7563,0.7478,0.7553,0.7492,0.7251,0.7326,0.7299,0.7098,0.7095,0.7095,0.7095,0.7095,0.7095,0.7095,0.7095,0.7095,0.7095,0.0,0.7095,0.7095,0.7095,0.7095,0.7098,0.6881,0.6656,0.0,0.6233,0.6031,0.5814,0.5869,0.5852,0.5814,0.5869,0.5888,0.5888,0.5888,0.5888,0.5933,0.6156,0.6244,0.629,0.6518,0.6563,0.6642,0.6812,0.6889,0.6937,0.7223,0.7272,0.7288,0.7402,0.7387,0.7414,0.7461,0.7553,0.7662,0.0,0.0,0.7913,0.7913,0.7784,0.7692,0.7692,0.7638,0.7529,0.7356,0.7282,0.7214,0.7102,0.7095,0.7095,0.7095,0.7095,0.7095,0.7095,0.7438,0.76,0.76,0.7843,0.7988,0.7988,0.7988,0.7988,0.7988,0.7988,0.7988,0.7988,0.7988,0.7988,0.7988,0.7988,0.7988,0.7988,0.7988,0.7988,0.7988,0.7988,0.7988,0.7988,0.6918,0.7095,0.7095,0.7095,0.7112,0.7125,0.7125,0.7125,0.7217,0.7398,0.7436,0.7458,0.7611,0.7628,0.7634,0.7655,0.7658,0.7648,0.7628,0.7628,0.756,0.7453,0.7429,0.7309,0.7129,0.7105,0.7095,0.7095,0.7095,0.7095,0.7095,0.7095,0.0,0.0,0.0,0.0,0.0,0.7095,0.7095,0.7098,0.6881,0.6669,0.6427,0.6324,0.6147,0.5942,0.6067,0.6032,0.5945,0.6048,0.6086,0.6086,0.6086,0.6086,0.6133,0.6364,0.6408,0.6458,0.6747,0.6794,0.686,0.6977,0.7024,0.7021,0.7115,0.7109,0.7132,0.7312,0.7234,0.7176,0.7489,0.7448,0.7461,0.0,0.7864,0.7961,0.7961,0.7913,0.7841,0.7841,0.7733,0.0,0.7631,0.7492,0.7336,0.7139,0.7125,0.7119,0.7098,0.7095,0.7095,0.7095,0.7438,0.76,0.76,0.7843,0.7988,0.7988,0.7988,0.7988,0.7988,0.7988,0.7988,0.7988,0.7988,0.7988,0.7988,0.7988,0.7988,0.7988,0.7988,0.7988,0.7988,0.7988,0.7988,0.7988,0.6918,0.7095,0.7095,0.7095,0.7244,0.7329,0.7329,0.7329,0.7343,0.7412,0.7482,0.7614,0.7756,0.7773,0.7824,0.7901,0.7914,0.786,0.7784,0.7773,0.7709,0.7567,0.7438,0.7405,0.7333,0.7207,0.7095,0.7095,0.7095,0.7095,0.7095,0.7095,0.0,0.0,0.0,0.0,0.7095,0.7095,0.7095,0.7098,0.6881,0.6729,0.6557,0.6359,0.6204,0.607,0.624,0.6157,0.6056,0.6078,0.6086,0.6086,0.6086,0.6086,0.6133,0.6411,0.6505,0.6552,0.6794,0.6891,0.6932,0.7139,0.7092,0.7047,0.7291,0.7231,0.7102,0.7132,0.7115,0.7112,0.7166,0.7302,0.7431,0.7607,0.7756,0.7851,0.7851,0.7887,0.7948,0.7948,0.7928,0.7864,0.7787,0.7645,0.7495,0.7343,0.7329,0.7275,0.7102,0.7095,0.7095,0.7095,0.7438,0.76,0.76,0.7843,0.7988,0.7988,0.7988,0.7988,0.7988,0.7988,0.7988,0.7988,0.7988,0.7988,0.7988,0.7988,0.7988,0.7988,0.7988,0.7988,0.7988,0.7988,0.7988,0.7988,0.7007,0.7204,0.7258,0.7258,0.7387,0.7489,0.7489,0.7553,0.76,0.76,0.7662,0.7767,0.7913,0.788,0.7911,0.7982,0.7988,0.7958,0.7884,0.788,0.7865,0.7716,0.7638,0.7529,0.7419,0.7299,0.7221,0.7095,0.7095,0.7095,0.7095,0.7095,0.7095,0.7095,0.0,0.7095,0.0,0.7095,0.7095,0.7095,0.701,0.6786,0.6493,0.6475,0.6357,0.6205,0.6299,0.6424,0.6573,0.6492,0.6466,0.6466,0.6611,0.6657,0.6706,0.6803,0.6849,0.69,0.7197,0.7249,0.7324,0.7484,0.7462,0.7423,0.7407,0.7316,0.7238,0.7112,0.7095,0.7095,0.7095,0.7265,0.7443,0.7468,0.7604,0.7702,0.7702,0.7767,0.7838,0.7864,0.7874,0.7874,0.788,0.7868,0.7733,0.7506,0.7489,0.7421,0.7268,0.7258,0.7224,0.7098,0.7438,0.76,0.76,0.7843,0.7988,0.7988,0.7988,0.7988,0.7988,0.7988,0.7988,0.7988,0.7988,0.7988,0.7988,0.7988,0.7988,0.7988,0.7988,0.7988,0.7988,0.7988,0.7988,0.7988,0.7186,0.7336,0.7421,0.7421,0.7546,0.7645,0.7645,0.7767,0.7848,0.7814,0.7838,0.7906,0.7978,0.7988,0.7988,0.7988,0.7988,0.7988,0.7988,0.7988,0.7934,0.7865,0.7828,0.7702,0.7468,0.745,0.7312,0.7146,0.7112,0.7065,0.7004,0.7065,0.7095,0.7095,0.7095,0.7095,0.7095,0.7095,0.7095,0.7095,0.7054,0.6849,0.6531,0.6593,0.652,0.6389,0.6401,0.6665,0.697,0.6877,0.688,0.6904,0.7099,0.7128,0.7103,0.7202,0.7202,0.7251,0.7507,0.7625,0.7671,0.7793,0.7811,0.775,0.7516,0.7441,0.7377,0.7221,0.7119,0.7095,0.7095,0.7241,0.7322,0.7322,0.7451,0.755,0.755,0.758,0.7641,0.7753,0.7767,0.7814,0.7884,0.7897,0.7848,0.7617,0.7628,0.758,0.7428,0.7436,0.7316,0.7149,0.7458,0.76,0.76,0.7843,0.7988,0.7988,0.7988,0.7988,0.7988,0.7988,0.7988,0.7988,0.7988,0.7988,0.7988,0.7988,0.7988,0.7988,0.7988,0.7988,0.7988,0.7988,0.7988,0.7988,0.7529,0.7567,0.758,0.758,0.7695,0.779,0.779,0.787,0.7917,0.7828,0.7884,0.7975,0.7988,0.7988,0.7988,0.7988,0.7988,0.7988,0.7988,0.7988,0.7982,0.7968,0.7885,0.7797,0.777,0.7509,0.7409,0.735,0.721,0.696,0.6749,0.697,0.7095,0.7095,0.7095,0.7095,0.7095,0.7095,0.7095,0.7098,0.6881,0.6873,0.6901,0.6679,0.6666,0.6732,0.6756,0.6765,0.6862,0.7108,0.7104,0.6967,0.7015,0.693,0.6878,0.7111,0.7203,0.7253,0.7543,0.7688,0.7779,0.7814,0.7811,0.7804,0.7777,0.7672,0.7536,0.738,0.7238,0.7095,0.7095,0.7109,0.7119,0.7119,0.7292,0.7439,0.7439,0.7512,0.7604,0.7617,0.7617,0.7624,0.7641,0.7641,0.7631,0.76,0.7719,0.7729,0.7587,0.7448,0.7409,0.7395,0.7512,0.76,0.76,0.7843,0.7988,0.7988,0.7988,0.7988,0.7988,0.7988,0.7988,0.7988,0.7988,0.7988,0.7988,0.7988,0.7988,0.7988,0.7988,0.7988,0.7988,0.7988,0.7988,0.7988,0.7587,0.7668,0.7726,0.7726,0.7848,0.7897,0.7897,0.7951,0.7968,0.7907,0.7951,0.7988,0.7988,0.7988,0.7988,0.7988,0.7988,0.7988,0.7988,0.7988,0.7988,0.7988,0.7931,0.7906,0.7814,0.7695,0.755,0.7415,0.7309,0.717,0.6923,0.7041,0.7095,0.7095,0.7095,0.7095,0.7095,0.7095,0.7095,0.7095,0.701,0.6958,0.6882,0.6745,0.6734,0.6794,0.6688,0.6904,0.7151,0.7185,0.7158,0.7159,0.7305,0.7313,0.7315,0.7409,0.7453,0.7456,0.7553,0.7702,0.7811,0.7811,0.7879,0.7923,0.7831,0.7767,0.7685,0.7539,0.7458,0.7387,0.7295,0.7278,0.7248,0.7112,0.7146,0.7234,0.7234,0.7285,0.7356,0.7451,0.7461,0.7499,0.759,0.76,0.76,0.76,0.7651,0.7617,0.7468,0.745,0.7329,0.7238,0.7472,0.76,0.76,0.7843,0.7988,0.7988,0.7988,0.7988,0.7988,0.7988,0.7988,0.7988,0.7988,0.7988,0.7988,0.7988,0.7988,0.7988,0.7988,0.7988,0.7988,0.7988,0.7988,0.7988,0.7719,0.7807,0.7879,0.7879,0.7917,0.7988,0.7988,0.7988,0.7988,0.7988,0.7988,0.7988,0.7988,0.7988,0.7988,0.7988,0.7988,0.7988,0.7988,0.7988,0.7988,0.7988,0.7988,0.7938,0.7882,0.7834,0.7709,0.7502,0.7458,0.7316,0.7034,0.6987,0.7014,0.7095,0.7095,0.7095,0.7095,0.7095,0.7095,0.7095,0.7095,0.701,0.6881,0.6881,0.6881,0.6894,0.6767,0.6986,0.7319,0.7191,0.7181,0.7234,0.7469,0.7502,0.7465,0.7465,0.7465,0.7465,0.7465,0.7604,0.775,0.775,0.7896,0.7961,0.7902,0.7879,0.7838,0.7692,0.7628,0.7567,0.7458,0.7446,0.7336,0.7224,0.7125,0.7095,0.7095,0.7095,0.7136,0.7288,0.7302,0.7346,0.7455,0.7465,0.7465,0.7465,0.7465,0.7458,0.7441,0.7443,0.7322,0.721,0.7461,0.76,0.76,0.7843,0.7988,0.7988,0.7988,0.7988,0.7988,0.7988,0.7988,0.7988,0.7988,0.7988,0.7988,0.7988,0.7988,0.7988,0.7988,0.7988,0.7988,0.7988,0.7988,0.7988,0.7955,0.7985,0.7985,0.7985,0.7988,0.7988,0.7988,0.7988,0.7988,0.7988,0.7988,0.7988,0.7988,0.7988,0.7988,0.7988,0.7988,0.7988,0.7988,0.7988,0.7988,0.7988,0.7988,0.7988,0.7985,0.7889,0.7811,0.7804,0.7665,0.737,0.6886,0.6776,0.6861,0.7095,0.7095,0.7095,0.7095,0.7095,0.7095,0.7095,0.7095,0.7095,0.7095,0.7095,0.7095,0.7095,0.7098,0.7098,0.7098,0.7102,0.7102,0.7129,0.7326,0.7268,0.7102,0.7102,0.7102,0.7102,0.7102,0.737,0.76,0.76,0.7824,0.7988,0.7988,0.7985,0.7944,0.7838,0.7695,0.76,0.7597,0.7472,0.7415,0.7415,0.7241,0.7095,0.7095,0.7095,0.7095,0.7098,0.7098,0.7098,0.7102,0.7102,0.7102,0.7102,0.7102,0.7233,0.758,0.7455,0.7415,0.7412,0.7519,0.76,0.76,0.7843,0.7988,0.7988,0.7988,0.7988,0.7988,0.7988,0.7988,0.7988,0.7988,0.7988,0.7988,0.7988,0.7988,0.7988,0.7988,0.7988,0.7988,0.7988,0.7988,0.7988,0.7982,0.7988,0.7988,0.7988,0.7988,0.7988,0.7988,0.7988,0.7988,0.7988,0.7988,0.7988,0.7988,0.7988,0.7988,0.7988,0.7988,0.7988,0.7988,0.7988,0.7988,0.7988,0.7988,0.7988,0.7988,0.7941,0.7916,0.7811,0.7767,0.7567,0.7231,0.718,0.7153,0.7095,0.7095,0.7095,0.7095,0.7095,0.7095,0.7095,0.7095,0.7095,0.7095,0.7095,0.7095,0.7095,0.7095,0.7095,0.7095,0.7095,0.7095,0.7105,0.7156,0.7136,0.7095,0.7095,0.7095,0.7095,0.7095,0.7363,0.76,0.76,0.7821,0.7988,0.7988,0.7988,0.7975,0.7928,0.788,0.7868,0.7763,0.7624,0.7492,0.7436,0.7241,0.7095,0.7095,0.7095,0.7095,0.7095,0.7095,0.7095,0.7095,0.7095,0.7095,0.7095,0.7095,0.7139,0.7237,0.7241,0.7261,0.7412,0.7519,0.7645,0.7743,0.7891,0.7988,0.7988,0.7988,0.7988,0.7988,0.7988,0.7988,0.7988,0.7988,0.7988,0.7988,0.7988,0.7988,0.7988,0.7988,0.7988,0.7988,0.7988,0.7988,0.7988,0.7988,0.7988,0.7988,0.7988,0.7988,0.7988,0.7988,0.7988,0.7988,0.7988,0.7988,0.7988,0.7988,0.7988,0.7988,0.7988,0.7988,0.7988,0.7988,0.7988,0.7988,0.7988,0.7988,0.7988,0.7988,0.7988,0.7941,0.7896,0.7838,0.7716,0.7536,0.7467,0.7319,0.7224,0.7122,0.7095,0.7095,0.7095,0.7095,0.7095,0.7095,0.7095,0.7095,0.7095,0.7095,0.7095,0.7095,0.7095,0.7095,0.7095,0.7095,0.7095,0.7095,0.7095,0.7095,0.7095,0.7095,0.7109,0.721,0.7411,0.7611,0.7665,0.7862,0.7988,0.7988,0.7988,0.7988,0.7988,0.7988,0.7961,0.7916,0.7777,0.7631,0.7482,0.7329,0.7207,0.7105,0.7095,0.7095,0.7095,0.7095,0.7095,0.7095,0.7095,0.7095,0.7095,0.7149,0.7227,0.7227,0.7227,0.7272,0.7412,0.7573,0.7723,0.7811,0.7914,0.7988,0.7988,0.7988,0.7988,0.7988,0.7988,0.7988,0.7988,0.7988,0.7988,0.7988,0.7988,0.7988,0.7988,0.7988,0.7988,0.7988,0.7988,0.7988,0.7988,0.7988,0.7988,0.7988,0.7988,0.7988,0.7988,0.7988,0.7988,0.7988,0.7988,0.7988,0.7988,0.7988,0.7988,0.7988,0.7988,0.7988,0.7988,0.7988,0.7988,0.7988,0.7988,0.7988,0.7988,0.7988,0.7988,0.7988,0.7988,0.7896,0.7821,0.7804,0.7529,0.7436,0.7409,0.7221,0.7105,0.7095,0.7095,0.7095,0.7095,0.7095,0.7095,0.7095,0.7095,0.7095,0.7095,0.7095,0.7095,0.7095,0.7095,0.7095,0.7095,0.7095,0.7095,0.7095,0.7095,0.7102,0.7142,0.7333,0.7492,0.7645,0.7777,0.7877,0.7988,0.7988,0.7988,0.7988,0.7988,0.7988,0.7988,0.7988,0.7867,0.7767,0.7624,0.7472,0.7319,0.7119,0.7095,0.7095,0.7095,0.7105,0.7112,0.7112,0.7122,0.7129,0.7129,0.7305,0.7433,0.7433,0.7443,0.7446,0.7446,0.7668,0.7818,0.7828,0.7917,0.7988,0.7988,0.7988,0.7988,0.7988,0.7988,0.7988,0.7988,0.7988,0.7988,0.7988,0.7988,0.7988,0.7988,0.7988,0.7988,0.7988,0.7988,0.7988,0.7988,0.7988,0.7988,0.7988,0.7988,0.7988,0.7988,0.7988,0.7988,0.7988,0.7988,0.7988,0.7988,0.7988,0.7988,0.7988,0.7988,0.7988,0.7988,0.7988,0.7988,0.7988,0.7988,0.7988,0.7988,0.7988,0.7988,0.7988,0.7988,0.7955,0.7877,0.7811,0.774,0.7587,0.7415,0.7333,0.7251,0.7095,0.7095,0.7095,0.7095,0.7095,0.7095,0.7095,0.7095,0.7095,0.7095,0.7095,0.7095,0.7095,0.7095,0.7095,0.7095,0.7095,0.7095,0.7095,0.7095,0.7224,0.7326,0.7405,0.756,0.777,0.7801,0.7877,0.7988,0.7988,0.7988,0.7988,0.7988,0.7988,0.7988,0.7988,0.7867,0.7767,0.7624,0.7472,0.7319,0.7119,0.7095,0.7095,0.7095,0.7244,0.7316,0.7316,0.7421,0.7489,0.7489,0.7526,0.7546,0.7546,0.7648,0.7706,0.7706,0.7773,0.7868,0.7934,0.7971,0.7988,0.7988,0.7988,0.7988,0.7988,0.7988,0.7988,0.7988,0.7988,0.7988,0.7988,0.7988,0.7988,0.7988,0.7988,0.7988,0.7988,0.7988,0.7988,0.7988,0.7988,0.7988,0.7988,0.7988,0.7988,0.7988,0.7988,0.7988,0.7988,0.7988,0.7988,0.7988,0.7988,0.7988,0.7988,0.7988,0.7988,0.7988,0.7988,0.7988,0.7988,0.7988,0.7988,0.7988,0.7988,0.7988,0.7988,0.7988,0.7988,0.7948,0.7867,0.7845,0.7692,0.7472,0.745,0.7285,0.7095,0.7095,0.7095,0.7095,0.7095,0.7095,0.7095,0.7095,0.7095,0.7095,0.7095,0.7095,0.7095,0.7095,0.7095,0.7109,0.7224,0.7244,0.7258,0.7329,0.736,0.7446,0.7536,0.7689,0.7828,0.7896,0.7928,0.7988,0.7988,0.7988,0.7988,0.7988,0.7988,0.7988,0.7988,0.7921,0.7868,0.7719,0.7628,0.7519,0.7373,0.735,0.735,0.735,0.7424,0.7475,0.7475,0.755,0.76,0.76,0.7658,0.7695,0.7695,0.7834,0.7882,0.7814,0.7879,0.7907,0.7988,0.7988,0.7988,0.7988,0.7988,0.7988,0.7988,0.7988,0.7988,0.7988,0.7988,0.7988,0.7988,0.7988,0.7988,0.7988,0.7988,0.7988,0.7988,0.7988,0.7988,0.7988,0.7988,0.7988,0.7988,0.7988,0.7988,0.7988,0.7988,0.7988,0.7988,0.7988,0.7988,0.7988,0.7988,0.7988,0.7988,0.7988,0.7988,0.7988,0.7988,0.7988,0.7988,0.7988,0.7988,0.7988,0.7988,0.7988,0.7988,0.7988,0.7988,0.7988,0.7985,0.7906,0.7756,0.7594,0.7465,0.7305,0.7095,0.7095,0.7095,0.7095,0.7095,0.7095,0.7095,0.7095,0.7095,0.7095,0.7095,0.7109,0.7132,0.7132,0.7146,0.7186,0.7363,0.7453,0.7438,0.7587,0.7539,0.7492,0.7743,0.7828,0.7875,0.7958,0.7988,0.7988,0.7988,0.7988,0.7988,0.7988,0.7988,0.7988,0.7988,0.7988,0.7938,0.7834,0.7811,0.7763,0.7617,0.76,0.76,0.76,0.7617,0.7631,0.7631,0.7651,0.7665,0.7665,0.7777,0.7845,0.7845,0.7921,0.7931,0.7848,0.7921,0.7988,0.7988,0.7988,0.7988,0.7988,0.7988,0.7988,0.7988,0.7988,0.7988,0.7988,0.7988,0.7988,0.7988,0.7988,0.7988,0.7988,0.7988,0.7988,0.7988,0.7988,0.7988,0.7988,0.7988,0.7988,0.7988,0.7988,0.7988,0.7988,0.7988,0.7988,0.7988,0.7988,0.7988,0.7988,0.7988,0.7988,0.7988,0.7988,0.7988,0.7988,0.7988,0.7988,0.7988,0.7988,0.7988,0.7988,0.7988,0.7988,0.7988,0.7988,0.7988,0.7988,0.7988,0.7965,0.7858,0.7597,0.7577,0.7407,0.7095,0.7095,0.7095,0.7095,0.7095,0.7095,0.7095,0.7095,0.7095,0.7095,0.7095,0.7224,0.7336,0.7336,0.7421,0.7533,0.7556,0.7563,0.7594,0.7736,0.7763,0.7753,0.7797,0.7906,0.7961,0.7985,0.7988,0.7988,0.7988,0.7988,0.7988,0.7988,0.7988,0.7988,0.7988,0.7988,0.7938,0.7834,0.7811,0.7763,0.7617,0.76,0.76,0.76,0.7706,0.7777,0.7777,0.7896,0.7921,0.7921,0.7941,0.7955,0.7955,0.7978,0.7978,0.7955,0.7978,0.7988,0.7988,0.7988,0.7988,0.7988,0.7988,0.7988,0.7988,0.7988,0.7988,0.7988,0.7988,0.7988,0.7988,0.7988,0.7988,0.7988,0.7988,0.7988,0.7988,0.7988,0.7988,0.7988,0.7988,0.7988,0.7988,0.7988,0.7988,0.7988,0.7988,0.7988,0.7988,0.7988,0.7988,0.7988,0.7988,0.7988,0.7988,0.7988,0.7988,0.7988,0.7988,0.7988,0.7988,0.7988,0.7988,0.7988,0.7988,0.7988,0.7988,0.7988,0.7988,0.7988,0.7988,0.7988,0.7874,0.7709,0.7634,0.7475,0.7258,0.7132,0.7095,0.7095,0.7095,0.7095,0.7105,0.7234,0.7265,0.7275,0.7356,0.7434,0.7495,0.7495,0.7543,0.7614,0.7689,0.7712,0.7743,0.7889,0.7884,0.7884,0.7884,0.7934,0.7988,0.7988,0.7988,0.7988,0.7988,0.7988,0.7988,0.7988,0.7988,0.7988,0.7988,0.7988,0.7968,0.7897,0.7884,0.7864,0.7845,0.7838,0.7838,0.7838,0.7892,0.7884,0.7884,0.7948,0.7988,0.7988,0.7988,0.7988,0.7988,0.7988,0.7988,0.7988,0.7988,0.7988,0.7988,0.7988,0.7988,0.7988,0.7988,0.7988,0.7988,0.7988,0.7988,0.7988,0.7988,0.7988,0.7988,0.7988,0.7988,0.7988,0.7988,0.7988,0.7988,0.7988,0.7988,0.7988,0.7988,0.7988,0.7988,0.7988,0.7988,0.7988,0.7988,0.7988,0.7988,0.7988,0.7988,0.7988,0.7988,0.7988,0.7988,0.7988,0.7988,0.7988,0.7988,0.7988,0.7988,0.7988,0.7988,0.7988,0.7988,0.7988,0.7988,0.7988,0.7988,0.7988,0.7988,0.7988,0.7907,0.7807,0.7695,0.7563,0.7417,0.7299,0.7203,0.7203,0.7203,0.7203,0.7216,0.738,0.7424,0.7441,0.7556,0.7621,0.7648,0.7648,0.7672,0.7723,0.7831,0.7865,0.7885,0.7955,0.7988,0.7988,0.7988,0.7988,0.7988,0.7988,0.7988,0.7988,0.7988,0.7988,0.7988,0.7988,0.7988,0.7988,0.7988,0.7988,0.7988,0.7988,0.7988,0.7988,0.7988,0.7988,0.7988,0.7988,0.7988,0.7988,0.7988,0.7988,0.7988,0.7988,0.7988,0.7988,0.7988,0.7988,0.7988,0.7988,0.7988,0.7988,0.7988,0.7988,0.7988,0.7988,0.7988,0.7988,0.7988,0.7988,0.7988,0.7988,0.7988,0.7988,0.7988,0.7988,0.7988,0.7988,0.7988,0.7988,0.7988,0.7988,0.7988,0.7995,0.7988,0.7988,0.7988,0.7988,0.7988,0.7988,0.7988,0.7988,0.7988,0.7988,0.7988,0.7988,0.7988,0.7988,0.7988,0.7988,0.7988,0.7988,0.7988,0.7988,0.7988,0.7988,0.7988,0.7988,0.7988,0.7988,0.7988,0.7988,0.7988,0.7988,0.7988,0.7988,0.7907,0.7811,0.7801,0.7716,0.7584,0.757,0.7567,0.7567,0.7567,0.7567,0.7567,0.758,0.7584,0.7584,0.7597,0.7685,0.7794,0.7794,0.7889,0.7961,0.7971,0.7971,0.7975,0.7985,0.7988,0.7988,0.7988,0.7988,0.7988,0.7988,0.7988,0.7988,0.7988,0.7988,0.7988,0.7988,0.7988,0.7988,0.7988,0.7988,0.7988,0.7988,0.7988,0.7988,0.7988,0.7988,0.7988,0.7988,0.7988,0.7988,0.7988,0.7988,0.7988,0.7988,0.7988,0.7988,0.7988,0.7988,0.7988,0.7988,0.7988,0.7988,0.7988,0.7988,0.7988,0.7988,0.7988,0.7988,0.7988,0.7988,0.7988,0.7988,0.7988,0.7988,0.7988,0.7988,0.7988,0.7988,0.7988,0.7988,0.7988,0.7988,0.7988,0.8012,0.7988,0.7988,0.7988,0.7988,0.7988,0.7988,0.7988,0.7988,0.7988,0.7988,0.7988,0.7988,0.7988,0.7988,0.7988,0.7988,0.7988,0.7988,0.7988,0.7988,0.7988,0.7988,0.7988,0.7988,0.7988,0.7988,0.7988,0.7988,0.7988,0.7988,0.7988,0.7988,0.7958,0.7897,0.7851,0.778,0.7726,0.7638,0.76,0.76,0.76,0.76,0.7607,0.7695,0.7729,0.7743,0.7838,0.786,0.7904,0.7904,0.7941,0.7988,0.7988,0.7988,0.7988,0.7988,0.7988,0.7988,0.7988,0.7988,0.7988,0.7988,0.7988,0.7988,0.7988,0.7988,0.7988,0.7988,0.7988,0.7988,0.7988,0.7988,0.7988,0.7988,0.7988,0.7988,0.7988,0.7988,0.7988,0.7988,0.7988,0.7988,0.7988,0.7988,0.7988,0.7988,0.7988,0.7988,0.7988,0.7988,0.7988,0.7988,0.7988,0.7988,0.7988,0.7988,0.7988,0.7988,0.7988,0.7988,0.7988,0.7988,0.7988,0.7988,0.7988,0.7988,0.7988,0.7988,0.7988,0.7988,0.7988,0.7988,0.7988,0.7988,0.7988,0.7998,0.7988,0.7988,0.7988,0.7988,0.7988,0.7988,0.7988,0.7988,0.7988,0.7988,0.7988,0.7988,0.7988,0.7988,0.7988,0.7988,0.7988,0.7988,0.7988,0.7988,0.7988,0.7988,0.7988,0.7988,0.7988,0.7988,0.7988,0.7988,0.7988,0.7988,0.7988,0.7988,0.7988,0.7985,0.788,0.7882,0.7875,0.778,0.774,0.774,0.774,0.774,0.775,0.7845,0.7882,0.7896,0.7951,0.7988,0.7988,0.7988,0.7988,0.7988,0.7988,0.7988,0.7988,0.7988,0.7988,0.7988,0.7988,0.7988,0.7988,0.7988,0.7988,0.7988,0.7988,0.7988,0.7988,0.7988,0.7988,0.7988,0.7988,0.7988,0.7988,0.7988,0.7988,0.7988,0.7988,0.7988,0.7988,0.7988,0.7988,0.7988,0.7988,0.7988,0.7988,0.7988,0.7988,0.7988,0.7988,0.7988,0.7988,0.7988,0.7988,0.7988,0.7988,0.7988,0.7988,0.7988,0.7988,0.7988,0.7988,0.7988,0.7988,0.7988,0.7988,0.7988,0.7988,0.7988,0.7988,0.7988,0.7988,0.7988,0.7988,0.7988,0.8237,0.8485,0.7988,0.7988,0.7988,0.7988,0.7988,0.7988,0.7988,0.7988,0.7988,0.7988,0.7988,0.7988,0.7988,0.7988,0.7988,0.7988,0.7988,0.7988,0.7988,0.7988,0.7988,0.7988,0.7988,0.7988,0.7988,0.7988,0.7988,0.7988,0.7988,0.7988,0.7988,0.7988,0.7988,0.7988,0.7988,0.7988,0.7988,0.7988,0.7988,0.7988,0.7988,0.7988,0.7988,0.7988,0.7988,0.7988,0.7988,0.7988,0.7988,0.7988,0.7988,0.7988,0.7988,0.7988,0.7988,0.7988,0.7988,0.7988,0.7988,0.7988,0.7988,0.7988,0.7988,0.7988,0.7988,0.7988,0.7988,0.7988,0.7988,0.7988,0.7988,0.7988,0.7988,0.7988,0.7988,0.7988,0.7988,0.7988,0.7988,0.7988,0.7988,0.7988,0.7988,0.7988,0.7988,0.7988,0.7988,0.7988,0.7988,0.7988,0.7988,0.7988,0.7988,0.7988,0.7988,0.7988,0.7988,0.7988,0.7988,0.7988,0.7988,0.7988,0.7988,0.7988,0.7988,0.7988,0.7988,0.7988,0.7988,0.7988,0.7988,0.7988,0.7988,0.7988,0.8676,0.9632,0.7988,0.7988,0.7988,0.7988,0.7988,0.7988,0.7988,0.7988,0.7988,0.7988,0.7988,0.7988,0.7988,0.7988,0.7988,0.7988,0.7988,0.7988,0.7988,0.7988,0.7988,0.7988,0.7988,0.7988,0.7988,0.7988,0.7988,0.7988,0.7988,0.7988,0.7988,0.7988,0.7988,0.7988,0.7988,0.7988,0.7988,0.7988,0.7988,0.7988,0.7988,0.7988,0.7988,0.7988,0.7988,0.7988,0.7988,0.7988,0.7988,0.7988,0.7988,0.7988,0.7988,0.7988,0.7988,0.7988,0.7988,0.7988,0.7988,0.7988,0.7988,0.7988,0.7988,0.7988,0.7988,0.7988,0.7988,0.7988,0.7988,0.7988,0.7988,0.7988,0.7988,0.7988,0.7988,0.7988,0.7988,0.7988,0.7988,0.7988,0.7988,0.7988,0.7988,0.7988,0.7988,0.7988,0.7988,0.7988,0.7988,0.7988,0.7988,0.7988,0.7988,0.7988,0.7988,0.7988,0.7988,0.7988,0.7988,0.7988,0.7988,0.7988,0.7988,0.7988,0.7988,0.7988,0.7988,0.7988,0.7988,0.7988,0.7988,0.7988,0.8088,0.8825,0.9312,0.9715,0.7988,0.7988,0.7988,0.7988,0.7988,0.7988,0.7988,0.7988,0.7988,0.7988,0.7988,0.7988,0.7988,0.7988,0.7988,0.7988,0.7988,0.7988,0.7988,0.7988,0.7988,0.7988,0.7988,0.7988,0.7988,0.7988,0.7988,0.7988,0.7988,0.7988,0.7988,0.7988,0.7988,0.7988,0.7988,0.7988,0.7988,0.7988,0.7988,0.7988,0.7988,0.7988,0.7988,0.7988,0.7988,0.7988,0.7988,0.7988,0.7988,0.7988,0.7988,0.7988,0.7988,0.7988,0.7988,0.7988,0.7988,0.7988,0.7988,0.7988,0.7988,0.7988,0.7988,0.7988,0.7988,0.7988,0.7988,0.7988,0.7988,0.7988,0.7988,0.7988,0.7988,0.7988,0.7988,0.7988,0.7988,0.7988,0.7988,0.7988,0.7988,0.7988,0.7988,0.7988,0.7988,0.7988,0.7988,0.7988,0.7988,0.7988,0.7988,0.7988,0.7988,0.7988,0.7988,0.7988,0.7988,0.7988,0.7988,0.7988,0.7988,0.7988,0.7988,0.7988,0.7988,0.7988,0.7988,0.7988,0.7988,0.8038,0.8482,0.8627,0.8775,0.985,1.0485,1.0925,0.7988,0.7988,0.7988,0.7988,0.7988,0.7988,0.7988,0.7988,0.7988,0.7988,0.7988,0.7988,0.7988,0.7988,0.7988,0.7988,0.7988,0.7988,0.7988,0.7988,0.7988,0.7988,0.7988,0.7988,0.7988,0.7988,0.7988,0.7988,0.7988,0.7988,0.7988,0.7988,0.7988,0.7988,0.7988,0.7988,0.7988,0.7988,0.7988,0.7988,0.7988,0.7988,0.7988,0.7988,0.7988,0.7988,0.7988,0.7988,0.7988,0.7988,0.7988,0.7988,0.7988,0.7988,0.7988,0.7988,0.7988,0.7988,0.7988,0.7988,0.7988,0.7988,0.7988,0.7988,0.7988,0.7988,0.7988,0.7988,0.7988,0.7988,0.7988,0.7988,0.7988,0.7988,0.7988,0.7988,0.7988,0.7988,0.7988,0.7988,0.7988,0.7988,0.7988,0.7988,0.7988,0.7988,0.7988,0.7988,0.7988,0.7988,0.7988,0.7988,0.7988,0.7988,0.7988,0.7988,0.7988,0.7988,0.7988,0.7988,0.7988,0.7988,0.7988,0.7988,0.7988,0.7988,0.7988,0.7988,0.8038,0.8237,0.9217,0.9657,0.985,1.0925,1.1901,1.2732,0.7988,0.7988,0.7988,0.7988,0.7988,0.7988,0.7988,0.7988,0.7988,0.7988,0.7988,0.7988,0.7988,0.7988,0.7988,0.7988,0.7988,0.7988,0.7988,0.7988,0.7988,0.7988,0.7988,0.7988,0.7988,0.7988,0.7988,0.7988,0.7988,0.7988,0.7988,0.7988,0.7988,0.7988,0.7988,0.7988,0.7988,0.7988,0.7988,0.7988,0.7988,0.7988,0.7988,0.7988,0.7988,0.7988,0.7988,0.7988,0.7988,0.7988,0.7988,0.7988,0.7988,0.7988,0.7988,0.7988,0.7988,0.7988,0.7988,0.7988,0.7988,0.7988,0.7988,0.7988,0.7988,0.7988,0.7988,0.7988,0.7988,0.7988,0.7988,0.7988,0.7988,0.7988,0.7988,0.7988,0.7988,0.7988,0.7988,0.7988,0.7988,0.7988,0.7988,0.7988,0.7988,0.7988,0.7988,0.7988,0.7988,0.7988,0.7988,0.7988,0.7988,0.7988,0.7988,0.7988,0.7988,0.7988,0.7988,0.7988,0.7988,0.7988,0.7988,0.7988,0.7988,0.7988,0.7988,0.7988,0.8482,0.9262,0.9509,1.0096,1.0974,1.1999,1.2484,1.2829,0.7988,0.7988,0.7988,0.7988,0.7988,0.7988,0.7988,0.7988,0.7988,0.7988,0.7988,0.7988,0.7988,0.7988,0.7988,0.7988,0.7988,0.7988,0.7988,0.7988,0.7988,0.7988,0.7988,0.7988,0.7988,0.7988,0.7988,0.7988,0.7988,0.7988,0.7988,0.7988,0.7988,0.7988,0.7988,0.7988,0.7988,0.7988,0.7988,0.7988,0.7988,0.7988,0.7988,0.7988,0.7988,0.7988,0.7988,0.7988,0.7988,0.7988,0.7988,0.7988,0.7988,0.7988,0.7988,0.7988,0.7988,0.7988,0.7988,0.7988,0.7988,0.7988,0.7988,0.7988,0.7988,0.7988,0.7988,0.7988,0.7988,0.7988,0.7988,0.7988,0.7988,0.7988,0.7988,0.7988,0.7988,0.7988,0.7988,0.7988,0.7988,0.7988,0.7988,0.7988,0.7988,0.7988,0.7988,0.8038,0.8187,0.8187,0.8237,0.8382,0.8382,0.8382,0.8382,0.8382,0.8382,0.8382,0.8137,0.7988,0.7988,0.7988,0.7988,0.7988,0.7988,0.7988,0.7988,0.7988,0.8627,0.9657,1.0145,1.0974,1.2047,1.3071,1.3463,1.3559,0.7988,0.7988,0.7988,0.7988,0.7988,0.7988,0.7988,0.7988,0.7988,0.7988,0.7988,0.7988,0.7988,0.7988,0.7988,0.7988,0.7988,0.7988,0.7988,0.7988,0.7988,0.7988,0.7988,0.7988,0.7988,0.7988,0.7988,0.7988,0.7988,0.7988,0.7988,0.7988,0.7988,0.7988,0.7988,0.7988,0.7988,0.7988,0.7988,0.7988,0.7988,0.7988,0.7988,0.7988,0.7988,0.7988,0.7988,0.7988,0.7988,0.7988,0.7988,0.7988,0.7988,0.7988,0.7988,0.7988,0.7988,0.7988,0.7988,0.7988,0.7988,0.7988,0.7988,0.8038,0.8233,0.8137,0.7988,0.7988,0.7988,0.8038,0.8237,0.8283,0.8283,0.8283,0.8283,0.8187,0.8038,0.7988,0.7988,0.7988,0.7988,0.7988,0.7988,0.7988,0.7988,0.7988,0.7988,0.8137,0.8382,0.8382,0.8531,0.8775,0.8825,0.8825,0.8825,0.8825,0.8825,0.8775,0.8333,0.8137,0.8137,0.8088,0.8088,0.8137,0.8088,0.8088,0.8137,0.8088,0.8825,0.9998,1.073,1.1853,1.3173,1.41,1.4448,1.4496,0.7988,0.7988,0.7988,0.7988,0.7988,0.7988,0.7988,0.7988,0.7988,0.7988,0.7988,0.7988,0.7988,0.7988,0.7988,0.7988,0.7988,0.7988,0.7988,0.7988,0.7988,0.7988,0.7988,0.7988,0.7988,0.7988,0.7988,0.7988,0.7988,0.7988,0.7988,0.7988,0.7988,0.7988,0.7988,0.7988,0.7988,0.7988,0.7988,0.7988,0.7988,0.7988,0.7988,0.7988,0.7988,0.7988,0.7988,0.7988,0.7988,0.7988,0.7988,0.7988,0.7988,0.7988,0.7988,0.7988,0.7988,0.7988,0.7988,0.7988,0.7988,0.7988,0.7988,0.8237,0.9167,0.8676,0.7988,0.7988,0.7988,0.8283,0.9217,0.9361,0.9361,0.9361,0.9361,0.9069,0.8137,0.7988,0.7988,0.7988,0.7988,0.7988,0.7988,0.7988,0.7988,0.7988,0.7988,0.8137,0.8382,0.8382,0.8531,0.8775,0.8825,0.8825,0.8825,0.8825,0.8825,0.8775,0.8726,0.8676,0.8676,0.8432,0.8482,0.8676,0.8432,0.8482,0.8676,0.8432,0.9509,1.1268,1.0489,1.1901,1.4496,1.4838,1.4987,1.4987,0.7988,0.7988,0.7988,0.7988,0.7988,0.7988,0.7988,0.7988,0.7988,0.7988,0.7988,0.7988,0.7988,0.7988,0.7988,0.7988,0.7988,0.7988,0.7988,0.7988,0.7988,0.7988,0.7988,0.7988,0.7988,0.7988,0.7988,0.7988,0.7988,0.7988,0.7988,0.7988,0.7988,0.7988,0.7988,0.7988,0.7988,0.7988,0.7988,0.7988,0.7988,0.7988,0.7988,0.7988,0.7988,0.7988,0.7988,0.7988,0.7988,0.7988,0.7988,0.7988,0.7988,0.7988,0.7988,0.7988,0.7988,0.7988,0.7988,0.7988,0.7988,0.7988,0.8432,0.9019,0.9509,0.9706,0.9801,0.9801,0.9312,0.9213,1.0293,0.9998,0.9801,1.0391,0.9998,0.941,0.897,0.8382,0.7988,0.7988,0.7988,0.7988,0.7988,0.7988,0.7988,0.7988,0.8137,0.8333,0.8627,0.8779,0.8981,0.9229,0.9225,0.9225,0.9225,0.9225,0.9225,0.9225,0.9225,0.9076,0.8775,0.8676,0.8627,0.8581,0.8432,0.8726,0.9217,0.9118,1.0293,1.2193,1.1853,1.3022,1.4933,1.5083,1.5083,1.5131]}]]